[[{"header":{"parameterUnit":"m.s-1","parameterCategory":1,"la1":30.6,"la2":28.766,"lo1":-90.7593,"lo2":-88.6598,"dy":0.0162,"dx":0.0183,"nx":116,"ny":114,"refTime":"2023-11-10T06:00:00:Z","depth":0,"parameterNumber":2,"parameterNumberName":"U-component_of_WINDS"},"data":[0.0,0.0,0.0,0.0,0.0,0.0,0.0,0.0,0.0,0.0,0.0,0.0,0.0,0.0,0.0,0.0,0.0,0.0,0.0,0.0,0.0,0.0,0.0,0.0,0.0,0.0,0.0,0.0,0.0,0.0,0.0,0.0,0.0,0.0,0.0,0.0,0.0,0.0,0.0,0.0,0.0,0.0,0.0,0.0,0.0,0.0,0.0,0.0,0.0,0.0,0.0,0.0,0.0,0.0,0.0,0.0,0.0,0.0,0.0,0.0,0.0,0.0,0.0,0.0,0.0,0.0,0.0,0.0,0.0,0.0,0.0,0.0,0.0,0.0,0.0,0.0,0.0,0.0,0.0,0.0,0.0,0.0,0.0,0.0,0.0,0.0,0.0,0.0,0.0,0.0,0.0,0.0,0.0,0.0,0.0,0.0,0.0,0.0,0.0,0.0,0.0,0.0,0.0,0.0,0.0,0.0,0.0,0.0,0.0,0.0,0.0,0.0,0.0,0.0,0.0,0.0,0.0,0.0,0.0,0.0,0.0,0.0,0.0,0.0,0.0,0.0,0.0,0.0,0.0,0.0,0.0,0.0,0.0,0.0,0.0,0.0,0.0,0.0,0.0,0.0,0.0,0.0,0.0,0.0,0.0,0.0,0.0,0.0,0.0,0.0,0.0,0.0,0.0,0.0,0.0,0.0,0.0,0.0,0.0,0.0,0.0,0.0,0.0,0.0,0.0,0.0,0.0,0.0,0.0,0.0,0.0,0.0,0.0,0.0,0.0,0.0,0.0,0.0,0.0,0.0,0.0,0.0,0.0,0.0,0.0,0.0,0.0,0.0,0.0,0.0,0.0,0.0,0.0,0.0,0.0,0.0,0.0,0.0,0.0,0.0,0.0,0.0,0.0,0.0,0.0,0.0,0.0,0.0,0.0,0.0,0.0,0.0,0.0,0.0,0.0,0.0,0.0,0.0,0.0,0.0,0.0,0.0,0.0,0.0,0.0,0.0,0.0,0.0,0.0,0.0,0.0,0.0,0.0,0.0,0.0,0.0,0.0,0.0,0.0,0.0,0.0,0.0,0.0,0.0,0.0,0.0,0.0,0.0,0.0,0.0,0.0,0.0,0.0,0.0,0.0,0.0,0.0,0.0,0.0,0.0,0.0,0.0,0.0,0.0,0.0,0.0,0.0,0.0,0.0,0.0,0.0,0.0,0.0,0.0,0.0,0.0,0.0,0.0,0.0,0.0,0.0,0.0,0.0,0.0,0.0,0.0,0.0,0.0,0.0,0.0,0.0,0.0,0.0,0.0,0.0,0.0,0.0,0.0,0.0,0.0,0.0,0.0,0.0,0.0,0.0,0.0,0.0,0.0,0.0,0.0,0.0,0.0,0.0,0.0,0.0,0.0,0.0,0.0,0.0,0.0,0.0,0.0,0.0,0.0,0.0,0.0,0.0,0.0,0.0,0.0,0.0,0.0,0.0,0.0,0.0,0.0,0.0,0.0,0.0,0.0,0.0,0.0,0.0,0.0,0.0,0.0,0.0,0.0,0.0,0.0,0.0,0.0,0.0,0.0,0.0,0.0,0.0,0.0,0.0,0.0,0.0,0.0,0.0,0.0,0.0,0.0,0.0,0.0,0.0,0.0,0.0,0.0,0.0,0.0,0.0,0.0,0.0,0.0,0.0,0.0,0.0,0.0,0.0,0.0,0.0,0.0,0.0,0.0,0.0,0.0,0.0,0.0,0.0,0.0,0.0,0.0,0.0,0.0,0.0,0.0,0.0,0.0,0.0,0.0,0.0,0.0,0.0,0.0,0.0,0.0,0.0,0.0,0.0,0.0,0.0,0.0,0.0,0.0,0.0,0.0,0.0,0.0,0.0,0.0,0.0,0.0,0.0,0.0,0.0,0.0,0.0,0.0,0.0,0.0,0.0,0.0,0.0,0.0,0.0,0.0,0.0,0.0,0.0,0.0,0.0,0.0,0.0,0.0,0.0,0.0,0.0,0.0,0.0,0.0,0.0,0.0,0.0,0.0,0.0,0.0,0.0,0.0,0.0,0.0,0.0,0.0,0.0,0.0,0.0,0.0,0.0,0.0,0.0,0.0,0.0,0.0,0.0,0.0,0.0,0.0,0.0,0.0,0.0,0.0,0.0,0.0,0.0,0.0,0.0,0.0,0.0,0.0,0.0,0.0,0.0,0.0,0.0,0.0,0.0,0.0,0.0,0.0,0.0,0.0,0.0,0.0,0.0,0.0,0.0,0.0,0.0,0.0,0.0,0.0,0.0,0.0,0.0,0.0,0.0,0.0,0.0,0.0,0.0,0.0,0.0,0.0,0.0,0.0,0.0,0.0,0.0,0.0,0.0,0.0,0.0,0.0,0.0,0.0,0.0,0.0,0.0,0.0,0.0,0.0,0.0,0.0,0.0,0.0,0.0,0.0,0.0,0.0,0.0,0.0,0.0,0.0,0.0,0.0,0.0,0.0,0.0,0.0,0.0,0.0,0.0,0.0,0.0,0.0,0.0,0.0,0.0,0.0,0.0,0.0,0.0,0.0,0.0,0.0,0.0,0.0,0.0,0.0,0.0,0.0,0.0,0.0,0.0,0.0,0.0,0.0,0.0,0.0,0.0,0.0,0.0,0.0,0.0,0.0,0.0,0.0,0.0,0.0,0.0,0.0,0.0,0.0,0.0,0.0,0.0,0.0,0.0,0.0,0.0,0.0,0.0,0.0,0.0,0.0,0.0,0.0,0.0,0.0,0.0,0.0,0.0,0.0,0.0,0.0,0.0,0.0,0.0,0.0,0.0,0.0,0.0,0.0,0.0,0.0,0.0,0.0,0.0,0.0,0.0,0.0,0.0,0.0,0.0,0.0,0.0,0.0,0.0,0.0,0.0,0.0,0.0,0.0,0.0,0.0,0.0,0.0,0.0,0.0,0.0,0.0,0.0,0.0,0.0,0.0,0.0,0.0,0.0,0.0,0.0,0.0,0.0,0.0,0.0,0.0,0.0,0.0,0.0,0.0,0.0,0.0,0.0,0.0,0.0,0.0,0.0,0.0,0.0,0.0,0.0,0.0,0.0,0.0,0.0,0.0,0.0,0.0,0.0,0.0,0.0,0.0,0.0,0.0,0.0,0.0,0.0,0.0,0.0,0.0,0.0,0.0,0.0,0.0,0.0,0.0,0.0,0.0,0.0,0.0,0.0,0.0,0.0,0.0,0.0,0.0,0.0,0.0,0.0,0.0,0.0,0.0,0.0,0.0,0.0,0.0,0.0,0.0,0.0,0.0,0.0,0.0,0.0,0.0,0.0,0.0,0.0,0.0,0.0,0.0,0.0,0.0,0.0,0.0,0.0,0.0,0.0,0.0,0.0,0.0,0.0,0.0,0.0,0.0,0.0,0.0,0.0,0.0,0.0,0.0,0.0,0.0,0.0,0.0,0.0,0.0,0.0,0.0,0.0,0.0,0.0,0.0,0.0,0.0,0.0,0.0,0.0,0.0,0.0,0.0,0.0,0.0,0.0,0.0,0.0,0.0,0.0,0.0,0.0,0.0,0.0,0.0,0.0,0.0,0.0,0.0,0.0,0.0,0.0,0.0,0.0,0.0,0.0,0.0,0.0,0.0,0.0,0.0,0.0,0.0,0.0,0.0,0.0,0.0,0.0,0.0,0.0,0.0,0.0,0.0,0.0,0.0,0.0,0.0,0.0,0.0,0.0,0.0,0.0,0.0,0.0,0.0,0.0,0.0,0.0,0.0,0.0,0.0,0.0,0.0,0.0,0.0,0.0,0.0,0.0,0.0,0.0,0.0,0.0,0.0,0.0,0.0,0.0,0.0,0.0,0.0,0.0,0.0,0.0,0.0,0.0,0.0,0.0,0.0,0.0,0.0,0.0,0.0,0.0,0.0,0.0,0.0,0.0,0.0,0.0,0.0,0.0,0.0,0.0,0.0,0.0,0.0,0.0,0.0,0.0,0.0,0.0,0.0,0.0,0.0,0.0,0.0,0.0,0.0,0.0,0.0,0.0,0.0,0.0,0.0,0.0,0.0,0.0,0.0,0.0,0.0,0.0,0.0,0.0,0.0,0.0,0.0,0.0,0.0,0.0,0.0,0.0,0.0,0.0,0.0,0.0,0.0,0.0,0.0,0.0,0.0,0.0,0.0,0.0,0.0,0.0,0.0,0.0,0.0,0.0,0.0,0.0,0.0,0.0,0.0,0.0,0.0,0.0,0.0,0.0,0.0,0.0,0.0,0.0,0.0,0.0,0.0,0.0,0.0,0.0,0.0,0.0,0.0,0.0,0.0,0.0,0.0,0.0,0.0,0.0,0.0,0.0,0.0,0.0,0.0,0.0,0.0,0.0,0.0,0.0,0.0,0.0,0.0,0.0,0.0,0.0,0.0,0.0,0.0,0.0,0.0,0.0,0.0,0.0,0.0,0.0,0.0,0.0,0.0,0.0,0.0,0.0,0.0,0.0,0.0,0.0,0.0,0.0,0.0,0.0,0.0,0.0,0.0,0.0,0.0,0.0,0.0,0.0,0.0,0.0,0.0,0.0,0.0,0.0,0.0,0.0,0.0,0.0,0.0,0.0,0.0,0.0,0.0,0.0,0.0,0.0,0.0,0.0,0.0,0.0,0.0,0.0,0.0,0.0,0.0,0.0,0.0,0.0,0.0,0.0,0.0,0.0,0.0,0.0,0.0,0.0,0.0,0.0,0.0,0.0,0.0,0.0,0.0,0.0,0.0,0.0,0.0,0.0,0.0,0.0,0.0,0.0,0.0,0.0,0.0,0.0,0.0,0.0,0.0,0.0,0.0,0.0,0.0,0.0,0.0,0.0,0.0,0.0,0.0,0.0,0.0,0.0,0.0,0.0,0.0,0.0,0.0,0.0,0.0,0.0,0.0,0.0,0.0,0.0,0.0,0.0,0.0,0.0,0.0,0.0,0.0,0.0,0.0,0.0,0.0,0.0,0.0,0.0,0.0,0.0,0.0,0.0,0.0,0.0,0.0,0.0,0.0,0.0,0.0,0.0,0.0,0.0,0.0,0.0,0.0,0.0,0.0,0.0,0.0,0.0,0.0,0.0,0.0,0.0,0.0,0.0,0.0,0.0,0.0,0.0,0.0,0.0,0.0,0.0,0.0,0.0,0.0,0.0,0.0,0.0,0.0,0.0,0.0,0.0,0.0,0.0,0.0,0.0,0.0,0.0,0.0,0.0,0.0,0.0,0.0,0.0,0.0,0.0,0.0,0.0,0.0,0.0,0.0,0.0,0.0,0.0,0.0,0.0,0.0,0.0,0.0,0.0,0.0,0.0,0.0,0.0,0.0,0.0,0.0,0.0,0.0,0.0,0.0,0.0,0.0,0.0,0.0,0.0,0.0,0.0,0.0,0.0,0.0,0.0,0.0,0.0,0.0,0.0,0.0,0.0,0.0,0.0,0.0,0.0,0.0,0.0,0.0,0.0,0.0,0.0,0.0,0.0,0.0,0.0,0.0,0.0,0.0,0.0,0.0,0.0,0.0,0.0,0.0,0.0,0.0,0.0,0.0,0.0,0.0,0.0,0.0,0.0,0.0,0.0,0.0,0.0,0.0,0.0,0.0,0.0,0.0,0.0,0.0,0.0,0.0,0.0,0.0,0.0,0.0,0.0,0.0,0.0,0.0,0.0,0.0,0.0,0.0,0.0,0.0,0.0,0.0,0.0,0.0,0.0,0.0,0.0,0.0,0.0,0.0,0.0,0.0,0.0,0.0,0.0,0.0,0.0,0.0,0.0,0.0,0.0,0.0,0.0,0.0,0.0,0.0,0.0,0.0,0.0,0.0,0.0,0.0,0.0,0.0,0.0,0.0,0.0,0.0,0.0,0.0,0.0,0.0,0.0,0.0,0.0,0.0,0.0,0.0,0.0,0.0,0.0,0.0,0.0,0.0,0.0,0.0,0.0,0.0,0.0,0.0,0.0,0.0,0.0,0.0,0.0,0.0,0.0,0.0,0.0,0.0,0.0,0.0,0.0,0.0,0.0,0.0,0.0,0.0,0.0,0.0,0.0,0.0,0.0,0.0,0.0,0.0,0.0,0.0,0.0,0.0,0.0,0.0,0.0,0.0,1.7743,1.7951,0.0,0.0,0.0,0.0,0.0,0.0,0.0,0.0,0.0,0.0,0.0,0.0,0.0,0.0,0.0,0.0,0.0,0.0,0.0,0.0,0.0,0.0,0.0,1.5396,1.5396,1.5396,1.6016,1.6484,1.6687,1.7308,1.7773,1.7991,1.7991,1.7991,1.7991,1.7991,1.7991,1.7991,1.8418,1.9062,1.9902,1.9471,1.9041,1.8613,0.0,0.0,0.0,0.0,0.0,0.0,0.0,0.0,0.0,0.0,0.0,0.0,0.0,0.0,0.0,0.0,0.0,0.0,0.0,0.0,0.0,0.0,0.0,0.0,0.0,0.0,0.0,0.0,0.0,0.0,0.0,0.0,0.0,0.0,0.0,0.0,0.0,0.0,0.0,0.0,0.0,0.0,0.0,0.0,0.0,0.0,0.0,0.0,0.0,0.0,0.0,0.0,0.0,0.0,0.0,0.0,0.0,0.0,0.0,0.0,0.0,0.0,0.0,0.0,0.0,0.0,0.0,0.0,0.0,0.0,1.8571,1.8564,0.0,0.0,0.0,0.0,0.0,0.0,0.0,0.0,0.0,0.0,0.0,0.0,0.0,0.0,0.0,0.0,0.0,0.0,0.0,0.0,0.0,1.5396,1.5396,1.5396,1.5435,1.5508,1.6254,1.6726,1.682,1.7561,1.7991,1.7991,1.7991,1.7991,1.7991,1.7991,1.8069,1.8223,1.9238,2.0117,2.084,2.084,2.0429,1.9726,1.8848,0.0,0.0,0.0,0.0,0.0,0.0,0.0,0.0,0.0,0.0,0.0,0.0,0.0,0.0,0.0,0.0,0.0,0.0,0.0,0.0,0.0,0.0,0.0,0.0,0.0,0.0,0.0,0.0,0.0,0.0,0.0,0.0,0.0,0.0,0.0,0.0,0.0,0.0,0.0,0.0,0.0,0.0,0.0,0.0,0.0,0.0,0.0,0.0,0.0,0.0,0.0,0.0,0.0,0.0,0.0,0.0,0.0,0.0,0.0,0.0,0.0,0.0,0.0,2.3069,2.2386,2.2313,2.0917,1.9778,1.8911,1.9704,1.9319,1.8134,1.8963,0.0,0.0,0.0,0.0,0.0,0.0,0.0,0.0,0.0,0.0,0.0,0.0,0.0,0.0,0.0,0.0,0.0,0.0,0.0,1.5396,1.5396,1.5396,1.5566,1.5968,1.643,1.6879,1.7282,1.7754,1.7991,1.7991,1.7991,1.7991,1.7991,1.7991,1.8379,1.9139,2.0762,2.1622,2.1739,2.1739,2.1681,2.1524,2.0644,1.9843,1.9139,0.0,0.0,0.0,0.0,0.0,0.0,0.0,0.0,0.0,0.0,0.0,0.0,0.0,0.0,0.0,0.0,0.0,0.0,0.0,0.0,0.0,0.0,0.0,0.0,0.0,0.0,0.0,0.0,0.0,0.0,0.0,0.0,0.0,0.0,0.0,0.0,0.0,0.0,0.0,0.0,0.0,2.0137,2.1015,0.0,0.0,0.0,0.0,0.0,0.0,0.0,0.0,0.0,0.0,0.0,0.0,0.0,2.416,2.5445,2.4292,2.4051,2.4746,2.371,2.3171,2.3027,2.1892,2.1309,2.1083,1.9442,0.0,1.9955,2.0101,0.0,0.0,0.0,0.0,0.0,0.0,0.0,0.0,0.0,0.0,0.0,0.0,0.0,0.0,0.0,0.0,0.0,0.0,0.0,0.0,0.0,1.6074,1.6617,1.6809,1.7852,1.8381,1.8088,1.8496,1.8516,1.801,1.7991,1.7991,1.7991,1.8477,1.9413,2.0762,2.1524,2.2129,2.2576,2.2576,2.2576,2.2557,2.2187,2.1269,2.0019,2.0019,0.0,0.0,0.0,0.0,0.0,0.0,0.0,0.0,0.0,0.0,0.0,0.0,0.0,0.0,0.0,0.0,0.0,0.0,0.0,0.0,0.0,0.0,0.0,0.0,0.0,0.0,0.0,0.0,0.0,0.0,0.0,0.0,0.0,0.0,0.0,0.0,0.0,0.0,0.0,2.0195,2.1327,2.2165,2.2245,2.209,0.0,0.0,0.0,0.0,0.0,0.0,0.0,0.0,0.0,2.482,2.4859,2.5508,2.6816,2.6238,2.6215,2.6748,2.5514,2.488,2.4743,2.2583,2.1614,2.1514,1.9749,1.9329,1.978,1.943,1.936,1.9386,0.0,0.0,0.0,0.0,1.7194,1.7235,0.0,0.0,0.0,0.0,0.0,0.0,0.0,0.0,0.0,0.0,0.0,0.0,1.5918,1.709,1.7927,1.8027,1.918,1.9571,1.883,1.9102,1.8906,1.8047,1.7991,1.7991,1.7991,1.9062,2.039,2.1915,2.2109,2.2498,2.3101,2.3101,2.3101,2.3101,2.3101,2.2284,2.0918,2.0918,2.0583,1.9994,0.0,0.0,0.0,0.0,0.0,0.0,0.0,0.0,0.0,0.0,0.0,0.0,0.0,0.0,0.0,0.0,0.0,0.0,0.0,0.0,0.0,0.0,0.0,0.0,0.0,0.0,0.0,0.0,0.0,0.0,0.0,0.0,0.0,0.0,0.0,0.0,0.0,2.1211,2.2363,2.3181,2.3298,2.322,0.0,0.0,0.0,0.0,0.0,0.0,2.4277,2.4567,2.5191,2.6167,2.6206,2.6738,2.7839,2.7858,2.781,2.7726,2.7006,2.6454,2.6018,2.3777,2.2533,2.2081,2.0587,1.9764,1.9361,1.892,1.8746,1.8704,1.8544,1.8237,1.7836,1.7836,1.7836,1.7862,0.0,0.0,0.0,0.0,0.0,0.0,0.0,0.0,0.0,0.0,0.0,1.7301,1.7301,1.8435,1.9355,1.9727,1.9844,1.9727,1.9277,1.9296,1.8906,1.8047,1.7991,1.7991,1.7991,1.9667,2.0977,2.1915,2.2654,2.3062,2.3101,2.3101,2.3101,2.3101,2.3101,2.2635,2.1837,2.1837,2.1929,2.1891,2.0032,0.0,0.0,0.0,0.0,0.0,0.0,0.0,0.0,0.0,0.0,0.0,0.0,0.0,0.0,0.0,0.0,0.0,0.0,0.0,0.0,0.0,0.0,0.0,0.0,0.0,0.0,0.0,0.0,0.0,0.0,0.0,0.0,0.0,0.0,0.0,0.0,0.0,0.0,2.3652,2.4801,0.0,0.0,0.0,0.0,2.3772,2.4121,2.4723,2.5562,2.5615,2.6225,2.7565,2.7585,2.7819,2.8262,2.8262,2.7573,2.6236,2.7565,2.7465,2.61,2.5936,2.5068,2.3599,2.2109,2.0702,1.9388,1.9361,1.9348,1.9294,1.8704,1.8477,1.8437,1.8437,1.8437,1.8558,0.0,0.0,0.0,0.0,0.0,1.5396,1.5396,1.5396,1.5396,1.5396,1.6578,1.7399,1.7399,1.9277,2.0586,2.0703,2.1503,2.1679,2.1035,2.0449,1.9745,1.8867,1.8301,1.8535,1.9647,2.082,2.1836,2.2674,2.2967,2.3101,2.3101,2.3101,2.3101,2.3101,2.3101,2.2925,2.2674,2.2674,2.2418,2.195,2.1253,2.1052,0.0,0.0,0.0,0.0,0.0,0.0,0.0,0.0,0.0,0.0,0.0,0.0,0.0,0.0,0.0,0.0,0.0,0.0,0.0,0.0,0.0,0.0,0.0,0.0,0.0,0.0,0.0,0.0,0.0,0.0,0.0,0.0,0.0,0.0,0.0,0.0,0.0,2.4082,2.4844,0.0,2.4887,2.5234,2.5371,2.5035,2.5957,2.6666,2.6953,2.7226,2.7598,2.8073,2.8093,2.8144,2.8301,2.8301,2.804,2.7538,2.804,2.7617,2.6331,2.5367,2.4215,2.2871,2.1362,2.0413,1.992,1.992,1.9813,1.9639,1.9626,1.9583,1.9583,1.9583,1.9583,1.961,0.0,0.0,0.0,0.0,1.5396,1.5396,1.5396,1.5396,1.5552,1.6016,1.7207,1.8203,1.8633,2.0566,2.1834,2.1834,2.2613,2.2635,2.1524,2.0918,2.0077,1.8906,1.8594,1.9238,2.0996,2.1602,2.2305,2.3101,2.3101,2.3101,2.3101,2.3101,2.3101,2.3101,2.3101,2.3101,2.3101,2.3101,2.3028,2.2831,2.2158,2.1764,2.1435,0.0,0.0,0.0,0.0,0.0,0.0,0.0,0.0,0.0,0.0,0.0,0.0,0.0,0.0,0.0,0.0,0.0,0.0,0.0,0.0,0.0,0.0,0.0,0.0,0.0,0.0,0.0,0.0,0.0,0.0,0.0,0.0,0.0,0.0,2.283,2.3806,2.4551,2.518,2.559,2.5727,2.6133,2.6362,2.6362,2.7305,2.7897,2.7897,2.8171,2.8301,2.8301,2.8301,2.8359,2.8496,2.8496,2.8574,2.8758,2.8758,2.8026,2.666,2.568,2.4234,2.2453,2.1421,2.0681,2.021,2.0304,2.0267,2.0107,2.017,2.0197,2.0197,2.0197,2.0197,2.0224,0.0,0.0,0.0,1.5396,1.5396,1.5396,1.5396,1.5396,1.5879,1.7223,1.8514,1.9785,2.1054,2.2321,2.3101,2.3101,2.3101,2.2401,2.0762,2.0625,1.9823,1.8125,1.8906,2.0175,2.1855,2.1914,2.2324,2.3101,2.3101,2.3101,2.3101,2.3101,2.3101,2.3101,2.3101,2.3101,2.3101,2.3101,2.3735,2.4597,2.2687,2.2546,2.3275,0.0,0.0,0.0,0.0,0.0,0.0,0.0,0.0,0.0,0.0,0.0,0.0,0.0,0.0,0.0,0.0,0.0,0.0,0.0,0.0,0.0,0.0,0.0,0.0,0.0,0.0,0.0,0.0,0.0,0.0,0.0,0.0,0.0,2.3149,2.3926,2.4609,2.5102,2.5923,2.6582,2.6967,2.7422,2.7702,2.7702,2.8093,2.8301,2.8301,2.8301,2.8301,2.832,2.832,2.8516,2.8918,2.8918,2.9141,2.9598,2.9598,2.8737,2.7111,2.7054,2.5381,2.2543,2.2483,2.1615,2.025,2.0575,2.0726,2.0686,2.0344,2.0224,2.0224,2.0224,2.0224,2.0277,0.0,0.0,0.0,1.5396,1.5396,1.5396,1.5396,1.5396,1.5879,1.7223,1.8514,1.9785,2.1054,2.2321,2.3101,2.3101,2.3101,2.2654,2.1622,2.0938,2.0097,1.8984,2.0371,2.1407,2.1896,2.2459,2.2888,2.3101,2.3101,2.3101,2.3101,2.3101,2.3101,2.3101,2.3101,2.3101,2.3101,2.3101,2.3278,2.3521,2.2999,2.2957,2.3103,0.0,0.0,0.0,0.0,0.0,0.0,0.0,0.0,0.0,0.0,0.0,0.0,0.0,0.0,0.0,0.0,0.0,0.0,0.0,0.0,0.0,0.0,0.0,0.0,0.0,0.0,0.0,0.0,0.0,0.0,0.0,2.3811,2.43,2.4535,2.4769,2.5317,2.6348,2.6998,2.7389,2.7506,2.7897,2.8151,2.8151,2.8223,2.8301,2.8301,2.8301,2.8437,2.873,2.875,2.8945,2.9422,2.9422,2.9481,2.9598,2.9598,2.8918,2.7553,2.6351,2.4873,2.3213,2.1993,2.123,2.0882,2.0962,2.0989,2.0989,2.0895,2.0837,2.0837,2.0837,2.0837,2.0882,0.0,0.0,0.0,1.5396,1.5396,1.5396,1.5396,1.5566,1.6304,1.7986,1.9002,2.0176,2.1814,2.2652,2.3101,2.3101,2.2791,2.2246,2.1407,2.0527,2.0156,2.039,2.1368,2.2051,2.2402,2.2869,2.3101,2.3101,2.3101,2.3101,2.3101,2.3101,2.3101,2.3101,2.3101,2.3101,2.3101,2.3101,2.3101,2.3101,2.3101,2.2894,2.2533,2.2081,2.167,2.1355,2.1489,2.1527,2.1445,2.0952,0.0,0.0,0.0,0.0,0.0,0.0,0.0,0.0,0.0,0.0,0.0,0.0,0.0,0.0,0.0,0.0,0.0,0.0,0.0,0.0,0.0,0.0,0.0,0.0,2.4785,2.5547,2.6099,2.6021,2.623,2.7168,2.7545,2.7761,2.7936,2.8144,2.8301,2.8301,2.8457,2.8555,2.8555,2.873,2.8945,2.918,2.9199,2.9394,2.9852,2.9852,2.995,3.0146,2.9422,2.8391,2.7002,2.534,2.3825,2.2497,2.1506,2.1109,2.1109,2.1109,2.1109,2.1109,0.0,0.0,0.0,0.0,2.1109,2.1109,0.0,0.0,1.5415,1.5469,1.5488,1.5493,1.5532,1.5894,1.6946,1.91,1.9687,2.0723,2.2867,2.3101,2.3101,2.3101,2.2363,2.1524,2.0664,1.996,2.0293,2.1837,2.1993,2.2383,2.3081,2.3101,2.3101,2.3101,2.3101,2.3101,2.3101,2.3101,2.3101,2.3101,2.3101,2.3101,2.3101,2.3101,2.3101,2.3101,2.3101,2.2674,2.2052,2.2052,2.1563,2.0899,2.1017,2.1076,2.1076,2.0977,0.0,0.0,0.0,0.0,0.0,0.0,0.0,0.0,0.0,0.0,0.0,0.0,0.0,0.0,0.0,0.0,0.0,0.0,0.0,0.0,0.0,0.0,0.0,0.0,2.5347,2.6342,2.7604,2.7402,2.7305,2.7721,2.7761,2.7917,2.8262,2.834,2.8359,2.8359,2.875,2.8984,2.8984,2.9355,0.0,0.0,0.0,2.9787,2.9996,2.9996,3.0123,3.0333,2.8842,2.7374,2.5954,2.4332,2.2779,2.1348,2.1172,2.1109,2.1109,2.1109,2.1109,2.1109,2.1109,2.1109,2.1109,2.1109,2.1109,2.1109,0.0,1.5396,1.5527,1.5909,1.5968,1.607,1.6395,1.6527,1.7347,1.9493,1.9844,2.0723,2.2867,2.3101,2.3101,2.3101,2.2363,2.1524,2.0664,2.1094,2.1563,2.1896,2.2518,2.2925,2.3081,2.3101,2.3101,2.3101,2.3101,2.3101,2.3101,2.3101,2.3101,2.3101,2.3101,2.3101,2.3101,2.3101,2.3101,2.3101,2.3101,2.3003,2.2869,2.2869,2.2771,2.2744,2.3677,2.3992,2.3888,2.3181,2.2932,2.2731,2.1471,2.0488,0.0,0.0,0.0,0.0,0.0,0.0,0.0,0.0,0.0,0.0,0.0,0.0,0.0,0.0,0.0,0.0,0.0,0.0,0.0,2.5918,2.6738,2.7526,2.8086,2.8105,2.8086,2.8164,2.8164,2.8203,2.8281,2.8594,2.8762,2.8762,2.9199,2.9481,2.9481,2.9559,2.9755,3.0059,3.0078,2.9652,2.8744,2.8762,2.8128,2.6923,2.6621,0.0,2.5954,2.4332,2.3419,2.3045,2.1695,2.1109,2.1109,2.1109,2.1109,2.1109,2.1109,2.1109,2.1109,2.1109,2.1109,2.1109,0.0,0.0,1.6118,1.6367,1.6406,1.6484,1.6668,1.6898,1.7581,1.9064,1.9454,2.0176,2.168,2.1855,2.1855,2.1855,2.1485,2.1055,2.0625,2.1407,2.207,2.2479,2.2888,2.3101,2.3101,2.3101,2.3101,2.3101,2.3101,2.3101,2.3101,2.3101,2.3101,2.3101,2.3101,2.3101,2.3101,2.3101,2.3101,2.3101,2.3101,2.3101,2.3101,2.3101,2.3101,2.3169,2.3735,2.3951,2.387,2.3446,2.3446,2.3523,2.2748,2.207,2.1524,0.0,0.0,0.0,0.0,0.0,0.0,0.0,0.0,0.0,0.0,0.0,0.0,0.0,0.0,2.4515,2.4707,0.0,2.642,2.666,2.7422,2.8073,2.8262,2.8301,2.8301,2.8301,2.8476,2.8613,2.8613,2.8984,2.9238,2.9238,2.9648,2.9911,2.9911,3.0126,2.9968,2.931,3.0315,3.0174,2.8745,2.8883,2.8547,2.7733,2.6032,2.5188,2.5125,2.3513,2.2808,2.2744,2.1923,2.155,2.1537,2.1422,2.1368,2.1309,2.1162,2.1109,2.1109,2.1109,2.1109,2.1109,0.0,0.0,0.0,1.6859,1.684,1.6863,1.6941,1.7285,1.7812,1.8635,1.9062,1.9628,2.0507,2.0605,2.0527,2.0351,2.0664,2.0781,2.0625,2.1563,2.242,2.3062,2.3101,2.3101,2.3101,2.3101,2.3101,2.3101,2.3101,2.3101,2.3101,2.3101,2.3101,2.3101,2.3101,2.3101,2.3101,2.3101,2.3101,2.3101,2.3101,2.3101,2.3101,2.3101,2.3101,2.3101,2.3101,2.3042,2.3003,2.3181,2.3415,2.3711,2.3987,2.3714,2.3186,2.258,2.25,0.0,0.0,0.0,0.0,0.0,0.0,0.0,0.0,2.4434,2.4723,2.5,2.5356,2.563,2.5708,2.6562,2.724,2.724,2.7832,2.8301,2.8301,2.8359,2.8418,2.8418,2.8711,2.8918,2.9043,2.9434,2.9715,2.9715,3.0098,3.0371,3.0449,3.0801,3.0428,2.917,3.077,3.0852,2.9221,2.9436,2.9226,2.8522,2.5769,2.4254,2.3898,2.2588,2.1991,2.1991,2.1991,2.1991,2.1964,2.177,2.1662,2.1649,2.1376,2.1283,2.1269,2.1149,2.1109,2.1046,0.0,0.0,0.0,1.7383,1.7321,1.7441,1.7796,1.791,1.8242,1.9102,1.9276,1.9628,2.0507,2.0605,2.0292,1.9511,2.0859,2.1426,2.0664,2.2069,2.3003,2.3081,2.3101,2.3101,2.3101,2.3101,2.3101,2.3101,2.3101,2.3101,2.3101,2.3101,2.3101,2.3101,2.3101,2.3101,2.3101,2.3101,2.3101,2.3101,2.3101,2.3101,2.3101,2.3101,2.3101,2.3101,2.3101,2.2869,2.2695,2.3457,2.3474,2.3396,2.4593,2.4398,2.3769,2.4043,2.3633,2.2932,2.2072,2.1914,2.2228,2.299,2.342,2.3984,0.0,2.5523,2.5893,2.7096,2.737,2.7526,2.7897,2.8047,2.8144,2.8144,2.8223,2.8301,2.8301,2.8613,2.882,2.882,2.8859,2.9062,2.9481,2.9883,3.0137,3.0137,3.0547,3.0976,3.1348,3.1396,3.1531,3.178,3.201,3.1321,2.965,2.9674,2.8146,2.5128,2.4756,2.3768,2.2274,2.2076,2.1991,2.1991,2.1991,2.1991,2.201,2.1984,2.197,2.1937,2.1897,2.1884,2.183,2.1309,2.1109,2.0887,0.0,0.0,0.0,1.7773,1.7754,1.7812,1.7971,1.7991,1.8144,1.8496,1.8535,1.8672,1.9061,1.91,1.8926,1.8574,2.0136,2.0977,2.0625,2.2187,2.3101,2.3101,2.3101,2.3101,2.3101,2.3101,2.3101,2.3101,2.3101,2.3101,2.3101,2.3101,2.3101,2.3101,2.3101,2.3101,2.3101,2.3101,2.3101,2.3101,2.3101,2.3101,2.3101,2.3101,2.3279,2.3435,2.2927,2.2635,0.0,2.3181,2.3435,2.3691,2.4769,2.4672,2.418,2.4332,2.3786,2.3184,2.332,2.3359,2.3633,2.4789,2.52,2.559,2.6621,2.7051,2.7383,2.791,2.8054,2.8112,2.8262,2.8301,2.8301,2.8301,2.8301,2.8379,2.8633,2.8781,2.9074,2.9609,2.9668,2.9726,2.9922,3.0332,3.0703,3.0957,3.1152,3.1445,3.1875,3.1894,3.156,3.0778,3.1923,3.1741,3.013,2.9238,2.8089,2.6676,2.4583,2.3211,2.2532,2.2532,2.2532,2.2532,2.2532,2.2532,2.2519,2.2311,2.2231,2.2218,2.2044,2.1991,2.1951,2.171,2.0922,1.9899,0.0,0.0,0.0,0.0,0.0,1.7991,1.7991,1.7991,1.7991,1.7991,1.7991,1.7991,1.7991,1.7991,1.7991,1.7991,1.9355,2.0332,2.0586,2.1953,2.2869,2.3081,2.3101,2.3101,2.3101,2.3101,2.3101,2.3101,2.3101,2.3101,2.3101,2.3101,2.3101,2.3101,2.3101,2.3101,2.3101,2.3101,2.3101,2.3101,2.3101,2.3101,2.3101,2.3237,2.3337,2.3359,2.2734,2.2498,2.2537,2.2849,2.3084,2.3418,2.4281,2.4316,2.4102,2.4219,2.3708,2.3315,2.4336,2.4512,2.4742,2.6191,2.666,2.6959,2.7702,2.8093,2.8301,2.8301,2.8301,2.8301,2.8301,2.8301,2.8301,2.8301,2.8301,2.8437,2.884,2.8996,2.9375,3.0117,3.0312,3.043,3.0547,3.0859,3.1191,3.1474,3.1621,3.1694,3.1642,3.211,3.1423,2.9358,3.1208,3.147,2.9814,2.8718,2.7933,2.7404,2.4858,2.3359,2.2893,2.2893,2.2893,2.2893,2.2893,2.2893,2.288,2.2632,2.2539,2.2525,2.2311,2.1918,2.1471,2.1471,2.0501,1.9054,0.0,0.0,0.0,0.0,0.0,1.7991,1.7991,1.7991,1.7991,1.7991,1.7991,1.7991,1.7991,1.7991,1.7991,1.7991,1.8809,1.9706,2.0527,2.1446,2.2285,2.3062,2.3101,2.3101,2.3101,2.3101,2.3101,2.3101,2.3101,2.3101,2.3101,2.3101,2.3101,2.3101,2.3101,2.3101,2.3101,2.3101,2.3101,2.3101,2.3101,2.3101,2.314,2.3613,2.3262,2.2539,2.2498,2.2498,2.2498,2.2498,2.2266,2.209,2.2908,2.3203,2.3303,2.3714,2.3474,2.3396,2.473,2.4769,2.4801,2.6537,2.7305,2.7761,2.821,2.8281,2.8301,2.8301,2.8301,2.8301,2.8301,2.8301,2.8301,2.8301,2.8301,2.8437,2.884,2.9277,2.9735,3.0137,3.0586,3.1035,3.1416,3.1455,3.1474,3.1494,3.1914,3.1631,3.0316,3.1865,3.1407,2.8328,2.9945,3.0042,2.8279,2.8229,2.7304,2.5584,2.5484,2.4554,2.2893,2.2893,2.2893,2.2893,2.2893,2.2893,2.2893,2.288,2.288,2.288,2.288,2.1743,2.0178,2.0178,1.9756,1.8708,0.0,0.0,0.0,0.0,0.0,1.7991,1.7991,1.7991,1.7991,1.7991,1.7991,0.0,0.0,0.0,0.0,0.0,1.8217,1.8768,1.9688,2.1094,2.2012,2.2305,2.283,2.3101,2.3101,2.3101,2.3101,2.3101,2.3101,2.3101,2.3101,2.3101,2.3101,2.3101,2.3101,2.3101,2.3101,2.3101,2.3101,2.3101,2.3101,2.2791,2.2363,2.2773,2.2598,2.2051,0.0,2.164,2.1698,2.2012,2.2012,2.2031,2.2849,2.2927,2.2812,2.322,2.3867,2.457,2.5289,2.5796,2.6348,2.7252,2.78,2.8151,2.8262,2.8301,2.8301,2.8301,2.7832,2.7441,2.7441,2.6947,2.6752,2.7344,2.7695,2.8249,2.9246,2.9735,3.0156,3.0605,3.1035,3.1367,3.1474,3.1494,3.1728,3.2324,3.25,3.2506,3.2327,3.1789,3.0998,2.9962,2.9376,2.8788,2.8213,2.7005,2.6105,2.5484,2.4317,2.3461,2.2893,2.2893,2.2893,2.2893,2.2893,2.2893,2.2893,2.2893,2.2893,2.2791,2.1527,2.0652,1.9773,1.7248,1.6203,1.5844,0.0,0.0,0.0,0.0,0.0,0.0,0.0,0.0,0.0,0.0,0.0,0.0,0.0,0.0,0.0,0.0,0.0,1.7661,1.823,1.9327,2.0073,2.0391,2.0894,2.1174,2.1174,2.1174,2.1174,2.1174,2.1816,2.2141,2.2141,2.2793,2.3101,2.3101,2.3101,2.3101,2.3101,2.3101,2.2925,2.2674,2.283,2.2381,2.1719,2.2264,2.2148,0.0,2.1484,2.1249,2.1035,2.1348,2.1446,2.1583,2.2401,2.2693,2.2849,2.3591,2.4316,2.5039,2.5913,2.6576,2.7148,2.7761,2.8112,2.8301,2.8301,2.8301,2.8203,2.7891,2.7402,2.6889,2.6596,2.6089,2.605,2.709,2.7506,2.8191,2.9618,3.0019,3.0371,3.084,3.1269,3.1582,3.1738,3.1894,3.2207,3.2754,3.293,3.2572,3.1593,3.1079,2.9912,2.8048,2.7503,2.6939,2.6321,2.5147,2.4554,2.4554,2.3427,2.2893,2.2893,2.2893,2.2893,2.2893,2.2893,2.2893,2.2893,2.2893,2.2893,2.2722,2.0825,1.9669,1.8683,1.5557,1.3978,1.3416,0.0,0.0,0.0,0.0,0.0,0.0,0.0,0.0,0.0,0.0,0.0,0.0,0.0,0.0,0.0,0.0,0.0,0.0,1.6469,1.6422,1.6793,1.7674,1.7701,1.7698,1.7698,1.7698,1.7698,1.7698,1.9428,2.0288,2.0369,2.2105,2.2943,2.2964,2.2964,2.2964,2.2964,2.2964,2.2518,2.1876,2.2285,2.1913,2.123,2.2088,2.1893,2.119,2.166,2.1329,2.0664,2.0625,2.0625,2.082,2.172,2.2539,2.3435,2.4769,2.4863,2.4898,2.6621,2.709,2.7285,2.8086,2.8301,2.8301,2.8301,2.8262,2.7988,2.7162,2.6928,2.6615,2.5796,2.5615,2.6069,2.7389,2.7663,2.8308,2.9941,3.0195,3.0391,3.084,3.1289,3.1719,3.2159,3.2497,3.2688,3.2688,3.3058,3.1803,2.8492,2.9735,2.8246,2.3188,2.4554,2.4554,2.2928,2.2893,2.2893,2.2893,2.2893,2.2893,2.2893,2.2893,2.2893,2.2893,2.2893,2.2893,2.2893,2.2893,2.2825,2.2585,2.0686,1.8764,1.6826,1.4964,1.3131,1.1584,0.0,0.0,0.0,0.0,0.0,0.0,0.0,0.0,0.0,0.0,0.0,0.0,0.0,0.0,0.0,0.0,0.0,0.0,1.7499,1.6838,1.6824,1.7807,1.7748,1.7698,1.7698,1.7698,1.7698,1.7698,1.8148,1.878,1.9525,1.9988,2.0587,2.125,2.125,2.125,2.125,2.125,2.1114,2.0957,2.1366,2.1015,2.0332,2.121,2.0996,2.0293,2.0762,2.1192,2.1466,2.082,2.1016,2.1778,2.2951,2.3672,2.4332,2.5688,2.6191,2.6582,2.7676,2.7969,2.8027,2.8242,2.8301,2.8301,2.8301,2.7793,2.7285,2.707,2.5952,2.4996,2.4762,2.4723,2.5054,2.605,2.7305,2.8516,2.9598,3.0293,3.0762,3.0879,3.1543,3.2081,3.2179,3.1653,3.1317,3.1317,3.1409,3.1079,3.0189,2.8048,2.6239,2.4892,2.4026,2.3359,2.2893,2.2893,2.2893,2.2893,2.2893,2.2893,2.2893,2.2893,2.2893,2.2893,2.2893,2.2893,2.2893,2.2893,2.2091,2.0617,1.8694,1.6791,1.4893,1.2996,1.2008,1.1584,0.0,0.0,0.0,0.0,0.0,0.0,0.0,0.0,0.0,0.0,0.0,0.0,0.0,0.0,0.0,0.0,0.0,0.0,0.0,1.517,1.4841,1.5414,1.5364,1.5335,1.5335,1.5335,1.5335,1.5335,1.6138,1.6796,1.7366,1.8164,1.8818,1.9353,1.9805,1.9981,2.0021,2.043,2.039,0.0,0.0,2.041,1.9727,2.0605,2.0625,2.0234,2.0507,2.1153,2.1896,2.1779,2.2306,2.3144,2.4085,2.4648,2.523,2.6562,2.6973,2.7207,2.8066,2.8301,2.8301,2.8301,2.8301,2.8203,2.7812,2.7363,2.6771,2.601,2.5074,2.4391,2.4391,2.4391,2.4883,2.6348,2.7383,2.8464,2.9696,3.0273,3.0413,2.9884,3.1028,3.1389,3.0081,3.0302,3.0302,2.9685,2.967,2.9294,2.8509,2.6573,2.5147,2.4385,2.3427,2.2893,2.2893,2.2893,2.2893,2.2893,2.2893,2.2893,2.2893,2.2893,2.2893,2.2893,2.2893,2.2893,2.2825,2.2022,2.1032,1.9808,1.7037,1.5309,1.4183,1.2287,1.1584,1.1584,0.0,0.0,0.0,0.0,0.0,0.0,0.0,0.0,0.0,0.0,0.0,1.7872,1.7991,1.7889,0.0,0.0,0.0,0.0,0.0,0.0,1.2677,1.2677,1.2677,1.2622,1.2489,1.2489,1.2489,1.2489,1.4061,1.4958,1.5259,1.6818,1.763,1.7788,1.8652,1.904,1.9079,1.9908,1.9823,1.9198,1.9999,1.9921,1.9393,0.0,2.0546,2.0625,2.0742,2.1329,2.2187,2.3069,2.3809,2.4489,2.5024,2.5508,2.6108,2.7272,2.7383,2.7344,2.8086,2.8301,2.8301,2.8301,2.8301,2.8066,2.7207,2.6908,2.6362,2.4723,2.4293,2.4254,2.4371,2.4391,2.5117,2.7252,2.7663,2.8269,2.9883,3.0156,2.9757,2.855,3.0035,3.0116,2.7373,2.8553,2.906,2.7949,2.7635,2.6906,2.5584,2.5282,2.4452,2.2962,2.2893,2.2893,2.2893,2.2893,2.2893,2.2893,2.2893,2.2893,2.2893,2.2893,2.2893,2.2893,2.2893,2.2756,2.24,2.0756,1.9808,1.8997,1.5698,1.4255,1.3836,1.218,1.1584,1.1584,0.0,0.0,0.0,0.0,0.0,0.0,0.0,0.0,0.0,0.0,1.732,1.7148,0.0,0.0,0.0,0.0,0.0,0.0,0.0,0.0,0.0,1.4708,1.4708,1.4314,1.3481,1.3448,1.3448,1.3448,1.3766,1.4758,1.6333,1.6635,1.7204,1.7965,1.8123,1.8211,1.8211,1.8387,1.8359,1.8281,1.8752,1.9102,1.9354,1.9844,2.0254,0.0,2.1407,2.2207,2.3025,2.3906,2.4274,2.4528,2.5347,2.6128,2.6811,2.707,2.7578,2.8105,2.8262,2.8301,2.8301,2.8301,2.8301,2.8066,2.7207,2.644,2.564,2.4606,2.3825,2.3552,2.4274,2.4391,2.4996,2.6836,2.7448,2.8171,2.952,2.998,2.9757,2.855,2.9058,2.886,2.7247,2.6422,2.5984,2.599,2.4622,2.4317,2.545,2.4128,2.3201,2.2893,2.2893,2.2893,2.2893,2.2893,2.2893,2.2893,2.2893,2.2893,2.2893,2.2893,2.2893,2.2893,2.2893,2.2022,2.0548,2.0236,1.8229,1.5309,1.4681,1.3452,1.2043,1.1727,1.1584,1.1584,0.0,0.0,0.0,0.0,0.0,0.0,0.0,1.7991,1.7991,1.7991,1.7182,1.6957,1.7906,1.7596,1.751,0.0,0.0,0.0,0.0,0.0,0.0,1.5189,1.4708,1.444,1.4476,1.3973,1.3954,1.4476,0.0,1.4442,1.586,1.586,1.6123,1.6559,1.7062,1.7268,1.7303,1.7784,1.7991,1.8047,1.8422,1.8888,1.9336,1.9746,2.0195,0.0,2.1075,2.1758,2.2539,2.2969,2.3398,2.4004,2.5289,2.6147,2.6641,2.6401,2.7109,2.7936,2.7695,2.7949,2.8301,2.8301,2.8301,2.7949,2.6615,2.601,2.5304,2.4001,2.3374,2.3376,2.4235,2.4391,2.482,2.6108,2.6894,2.7617,2.8484,2.9344,2.9431,2.8213,2.8462,2.7926,2.5881,2.5102,2.4551,2.4187,2.3359,2.3256,2.4094,2.3359,2.2893,2.2893,2.2893,2.2893,2.2893,2.2893,2.2893,2.2893,2.2893,2.2893,2.2893,2.2893,2.2893,2.2859,2.1885,2.0928,1.9947,1.7949,1.6051,1.429,1.3309,1.2395,1.1584,1.1584,1.1584,1.1584,0.0,0.0,0.0,0.0,0.0,0.0,0.0,1.7991,1.7991,1.7991,1.7354,1.7182,1.7923,1.782,1.7767,0.0,0.0,0.0,0.0,0.0,0.0,0.0,1.4924,1.4905,1.5491,0.0,0.0,1.5491,1.471,0.0,0.0,0.0,0.0,0.0,1.6576,1.6905,1.694,1.7681,1.7991,0.0,0.0,1.8752,1.9199,0.0,0.0,0.0,0.0,2.1153,2.1915,2.1915,2.2482,2.342,2.4742,2.5488,2.584,2.5854,2.6602,2.7409,2.7305,2.7773,2.8301,2.8301,2.8301,2.7851,2.6108,2.5693,2.521,2.3452,2.3101,2.3376,2.4235,2.4235,2.4469,2.5542,2.6128,2.6738,2.7585,2.864,2.8952,2.7922,2.7849,2.6953,2.4541,2.4048,2.3586,2.2862,2.2853,2.2893,2.2893,2.2893,2.2893,2.2893,2.2893,2.2893,2.2893,2.2893,2.2893,2.2893,2.2893,2.2893,2.2893,2.2893,2.2688,2.2229,2.0721,1.9634,1.8648,1.5628,1.4148,1.3658,1.2187,1.1584,1.1584,1.1584,1.1584,1.1548,0.0,0.0,0.0,0.0,0.0,0.0,0.0,1.7991,1.7991,1.7991,1.7923,1.7906,1.7991,1.7234,1.706,0.0,0.0,0.0,0.0,0.0,0.0,0.0,0.0,0.0,0.0,0.0,0.0,1.6471,1.6384,0.0,0.0,0.0,0.0,0.0,0.0,1.7872,1.7889,1.7957,0.0,0.0,0.0,0.0,0.0,0.0,0.0,0.0,0.0,2.1153,2.1915,2.1915,2.2441,2.3142,2.3362,2.3714,2.4336,2.5879,2.6406,2.6758,2.7871,2.8242,2.8301,2.8301,2.8301,2.7851,2.6108,2.5693,2.521,2.3452,2.3101,2.3376,2.4235,2.3767,2.3764,2.5421,2.5113,2.5371,2.7409,2.8132,2.8254,2.785,2.688,2.5659,2.4194,2.2943,2.2277,2.2432,2.2746,2.2893,2.2893,2.2893,2.2893,2.2893,2.2893,2.2893,2.2893,2.2893,2.2893,2.2893,2.2893,2.2893,2.2893,2.2893,2.1988,2.034,2.0167,1.8124,1.4885,1.4539,1.3416,1.1828,1.1655,1.1584,1.1584,1.1584,1.1584,1.1361,0.0,0.0,0.0,0.0,0.0,0.0,1.7991,1.7991,1.7991,1.7991,1.7991,1.7991,1.7991,1.7664,1.7596,1.7974,0.0,0.0,0.0,0.0,0.0,0.0,0.0,0.0,0.0,0.0,1.6888,1.744,1.6888,0.0,0.0,0.0,0.0,0.0,0.0,1.7991,1.7991,1.7991,0.0,0.0,0.0,0.0,0.0,0.0,0.0,0.0,0.0,0.0,2.1114,2.1114,2.1329,2.1641,2.1914,2.1934,2.215,2.3613,2.5156,2.6412,2.6392,2.733,2.8301,2.8301,2.8301,2.7851,2.6108,2.5693,2.521,2.3452,2.3101,2.3198,2.3549,2.3335,2.3315,2.4017,2.4293,2.4879,2.6309,2.7539,2.8455,2.8823,2.7186,2.5841,2.55,2.3354,2.2178,2.2693,2.2827,2.2893,2.2893,2.2893,2.2893,2.2893,2.2893,2.2893,2.2893,2.2893,2.2893,2.2893,2.2893,2.2893,2.2893,2.2893,2.1872,2.0016,1.8868,1.6861,1.4326,1.3167,1.2252,1.1584,1.1584,1.1584,1.1584,1.1584,1.0851,0.9759,0.0,0.0,0.0,0.0,0.0,1.7991,1.7991,1.7991,1.7991,1.7991,1.7991,1.7991,1.7991,1.7991,1.7991,1.7991,1.7991,0.0,0.0,0.0,0.0,0.0,0.0,0.0,0.0,0.0,1.7337,1.7991,1.7337,1.7354,0.0,0.0,1.7991,1.7991,0.0,0.0,0.0,0.0,0.0,0.0,0.0,0.0,0.0,0.0,0.0,0.0,0.0,0.0,0.0,0.0,0.0,2.0644,2.0937,2.0918,2.1035,2.2303,2.3906,2.5234,2.5254,2.6465,2.7793,2.8073,2.8008,2.7539,2.605,2.5503,2.4898,2.3393,2.3101,2.3101,2.3101,2.3101,2.3101,2.3101,2.363,2.4313,2.5191,2.6836,2.8144,2.8777,2.7348,2.6204,2.5926,2.3534,2.2265,2.2853,2.2893,2.2893,2.2893,2.2893,2.2893,2.2893,2.2893,2.2893,2.2893,2.2893,2.2893,2.2893,2.2893,2.2893,2.2859,2.2332,2.1032,1.9147,1.7213,1.5318,1.3488,1.2144,1.1584,1.1584,1.1584,1.1584,1.1548,1.0959,0.9867,0.8518,0.0,0.0,0.0,0.0,0.0,0.0,1.7991,1.7991,1.7991,1.7991,1.7991,1.7991,1.7991,1.7991,1.7991,1.7991,1.7991,0.0,0.0,0.0,0.0,0.0,0.0,0.0,0.0,0.0,1.7991,1.7991,1.7991,1.7991,1.7991,1.7991,1.7991,1.7991,0.0,0.0,0.0,0.0,0.0,0.0,0.0,0.0,1.8656,0.0,0.0,0.0,0.0,0.0,0.0,0.0,0.0,0.0,0.0,2.0879,2.1444,2.2711,2.283,2.3006,2.5132,2.603,2.6627,2.7487,2.7344,2.6771,2.5913,2.5035,2.4157,2.3276,2.3101,2.3101,2.3101,2.3101,2.3101,2.3101,2.3101,2.3435,2.4293,2.5913,2.7006,2.7031,2.7058,2.6462,2.4853,2.3061,2.2265,2.2853,2.2893,2.2893,2.2893,2.2893,2.2893,2.2893,2.2893,2.2893,2.2893,2.2893,2.2893,2.2893,2.2893,2.2893,2.2825,2.0963,1.9077,1.7142,1.5239,1.3345,1.1619,1.1619,1.1584,1.1584,1.1584,1.1584,1.1361,0.943,0.8703,0.8158,0.0,0.0,0.0,0.0,0.0,0.0,0.0,1.7991,1.7991,1.7991,1.7991,1.7991,1.7991,1.7991,1.7991,1.7991,1.7991,0.0,0.0,0.0,0.0,0.0,0.0,0.0,0.0,1.7991,1.7991,1.7991,1.7991,1.7991,1.7991,1.7991,1.7991,1.7991,1.7991,1.7991,0.0,0.0,0.0,0.0,1.7991,1.8069,1.8244,0.0,0.0,0.0,0.0,0.0,0.0,0.0,0.0,0.0,0.0,0.0,0.0,2.1269,2.2108,2.3006,2.3396,2.4254,2.5098,2.5371,2.5332,2.4996,2.4114,2.3705,2.3279,2.2461,2.2285,2.2285,2.2285,2.2498,2.2693,2.2693,2.2927,2.3393,2.4274,2.4773,2.5327,2.6156,2.5357,2.4162,2.2702,2.2212,2.2151,2.2525,2.2786,2.2893,2.2893,2.2893,2.2893,2.2893,2.2893,2.2893,2.2893,2.2893,2.2893,2.2893,2.2893,2.2229,2.0963,2.0375,1.8334,1.5239,1.4645,1.3345,1.1584,1.1584,1.1584,1.1584,1.1584,1.0779,0.9538,0.892,0.7034,0.4573,0.0,0.0,0.0,0.0,0.0,0.0,0.0,1.7991,1.7991,1.7991,1.7991,1.7991,1.7991,1.7991,1.7991,1.7991,1.7991,0.0,0.0,0.0,0.0,0.0,0.0,0.0,1.7991,1.7991,1.7991,1.7991,1.7991,1.7991,1.7991,1.7991,1.7991,1.7991,1.7991,1.7991,0.0,0.0,0.0,0.0,1.7991,1.7991,1.803,0.0,0.0,0.0,0.0,0.0,0.0,0.0,0.0,0.0,0.0,0.0,0.0,0.0,2.1348,2.2166,2.2246,2.2969,2.3747,2.4102,2.404,2.3767,2.3262,2.2869,2.2519,2.1992,2.1915,2.1915,2.1915,2.2109,2.2266,2.2266,2.2596,2.3064,2.361,2.3741,2.4102,2.4866,2.3864,2.2811,2.2093,2.2008,2.2111,2.2392,2.2699,2.2893,2.2893,2.2893,2.2893,2.2893,2.2893,2.2893,2.2893,2.2893,2.2893,2.2893,2.2893,2.1919,2.0097,1.9356,1.7318,1.4361,1.3658,1.2674,0.0,1.1584,1.1584,1.1584,1.1584,1.0413,0.8595,0.7869,0.5624,0.28,0.0,0.0,0.0,0.0,0.0,0.0,0.0,1.7991,1.7991,1.7991,1.7991,1.7991,1.7991,1.7991,1.7991,1.7991,0.0,0.0,0.0,0.0,0.0,0.0,0.0,0.0,1.7991,1.7991,1.7991,1.7991,1.7991,1.7991,1.7991,1.7991,1.7991,1.7991,1.7991,1.7991,0.0,0.0,0.0,0.0,1.7991,1.7991,0.0,0.0,0.0,0.0,0.0,0.0,0.0,0.0,0.0,0.0,0.0,0.0,0.0,0.0,0.0,0.0,0.0,2.207,2.2559,2.3359,2.324,2.2947,2.299,2.2384,0.0,2.1817,2.1817,2.1817,2.1817,2.1837,2.1857,2.1857,2.2227,2.2498,2.2498,2.2922,2.3241,2.327,2.2655,2.2346,2.273,2.2276,2.2071,2.2365,2.2659,2.288,2.2893,2.2893,2.2893,2.2893,2.2893,2.2893,2.2893,2.2893,2.2893,2.2893,2.2756,2.17,1.9843,1.7879,1.5981,1.4112,1.2359,1.1584,1.1584,1.1584,1.1584,1.1584,1.144,1.0197,0.8271,0.6315,0.4358,0.2436,0.0,0.0,0.0,0.0,0.0,0.0,0.0,0.0,0.0,0.0,1.7991,1.7991,1.7991,1.7991,1.7991,0.0,0.0,0.0,0.0,0.0,0.0,0.0,0.0,0.0,1.7991,1.7991,1.7991,1.7991,1.7991,1.7991,1.7991,1.7991,1.7991,1.7991,1.7991,1.7991,0.0,0.0,0.0,0.0,1.7991,1.7991,0.0,0.0,0.0,0.0,1.8831,1.9337,0.0,0.0,0.0,0.0,0.0,0.0,0.0,0.0,2.0605,2.0644,2.086,0.0,2.1094,2.129,2.127,2.1192,0.0,2.1055,2.0918,2.0918,2.0918,2.0918,2.0918,2.1152,2.1366,2.1366,2.1991,2.2498,2.2498,2.2414,2.2327,2.2202,2.1722,2.1908,2.3269,2.2366,2.181,2.2071,2.2365,2.2619,2.288,2.2893,2.2893,2.2893,2.2893,2.2893,2.2893,2.2893,2.2893,2.2893,2.1424,1.9739,1.7809,1.591,1.4014,1.2216,1.1799,1.1584,1.1584,1.1584,1.1584,1.144,0.9975,0.8198,0.6242,0.4286,0.2365,0.062,0.0,0.0,0.0,0.0,0.0,0.0,0.0,0.0,0.0,0.0,0.0,0.0,0.0,0.0,0.0,0.0,0.0,0.0,0.0,0.0,0.0,0.0,0.0,1.7991,1.7991,1.7991,1.7991,1.7991,1.7991,1.7991,1.7991,1.7991,1.7991,1.7991,1.7991,1.7991,0.0,0.0,1.7991,1.7991,1.7991,0.0,0.0,0.0,0.0,0.0,1.8539,1.889,0.0,1.9766,2.0078,2.0312,0.0,0.0,0.0,0.0,2.0605,2.0605,2.0605,2.0605,2.0605,2.0605,2.0605,2.0605,2.0605,2.0605,2.0605,2.0605,2.0605,2.0605,2.0605,2.0781,2.0918,2.0918,2.1391,2.1865,2.2102,2.3131,2.3294,2.1881,2.2015,2.231,2.2435,2.1938,2.1649,2.181,2.2178,2.2485,2.2645,2.2827,2.2893,2.2893,2.2893,2.2893,2.2893,2.2893,2.2469,2.1596,2.0583,1.8613,1.5875,1.4849,1.3381,1.1584,1.1584,1.1584,1.1584,1.1584,1.1074,1.0161,0.91,0.6966,0.4358,0.327,0.1675,0.0,0.0,0.0,0.0,0.0,0.0,0.0,0.0,0.0,0.0,0.0,0.0,0.0,0.0,0.0,0.0,0.0,0.0,0.0,0.0,0.0,0.0,0.0,1.7991,1.7991,1.7991,1.7991,1.7991,1.7991,1.7991,1.7991,1.7991,1.7991,1.7991,1.7991,1.7991,1.7991,1.7991,1.7991,1.7991,1.7991,1.7991,0.0,0.0,0.0,0.0,0.0,0.0,0.0,0.0,1.9454,1.9747,1.9902,2.0351,0.0,0.0,0.0,0.0,0.0,2.0644,2.0605,2.0605,2.0605,2.0605,2.0605,2.0605,2.0605,2.0605,2.0605,2.0605,2.0644,2.0762,2.0801,2.084,2.0957,2.1059,2.1154,2.1335,2.3565,2.4294,2.1911,2.2587,2.2779,2.1601,2.1528,2.1542,2.1614,2.2004,2.2325,2.2418,2.2659,2.2853,2.2893,2.2893,2.2893,2.2893,2.2619,2.1665,2.0086,1.9495,1.7529,1.4397,1.4112,1.3095,1.1584,1.1584,1.1584,1.1584,1.1289,1.0197,0.8631,0.8049,0.5805,0.2872,0.2581,0.142,0.0,0.0,0.0,0.0,0.0,0.0,0.0,0.0,0.0,0.0,0.0,0.0,0.0,0.0,0.0,0.0,0.0,0.0,0.0,0.0,0.0,0.0,1.7991,1.7991,1.7991,1.7991,1.7991,1.7991,1.7991,1.7991,1.7991,1.7991,1.7991,1.7991,1.7991,1.7991,1.7991,1.7991,1.7991,1.7991,1.7991,1.7991,0.0,0.0,0.0,0.0,0.0,0.0,0.0,0.0,1.8754,1.9064,1.9453,1.9883,0.0,0.0,0.0,0.0,0.0,2.0818,2.0605,2.0605,2.0605,2.0605,2.0605,2.0605,2.0605,2.0605,2.0605,2.0605,2.084,2.1563,2.17,2.1914,2.2615,2.2302,2.1473,1.9985,2.0994,2.187,2.1769,2.1607,2.1947,2.3107,2.1989,2.1283,2.1569,2.1662,2.193,2.2392,2.2458,2.2605,2.2893,2.2893,2.2893,2.2893,2.1321,2.0375,2.0051,1.6816,1.4955,1.4361,1.2745,1.1864,1.1584,1.1584,1.1584,1.1476,0.9831,0.8956,0.8374,0.5081,0.3415,0.2691,0.1056,0.0255,0.0,0.0,0.0,0.0,0.0,0.0,0.0,0.0,0.0,0.0,0.0,0.0,0.0,0.0,0.0,0.0,0.0,0.0,0.0,0.0,0.0,1.7991,1.7991,1.7991,1.7991,1.7991,1.7991,1.7991,1.7991,1.7991,1.7991,1.7991,1.7991,1.7991,1.7991,1.7991,1.7991,1.7991,1.7991,1.7991,1.7991,0.0,0.0,0.0,0.0,0.0,0.0,0.0,0.0,0.0,0.0,1.905,1.9626,1.9599,0.0,0.0,0.0,0.0,0.0,2.1388,2.0992,2.0723,2.1172,2.0938,2.0605,2.0605,2.0605,2.0605,2.0605,2.0605,2.0879,2.1739,2.1915,2.1952,2.2101,2.273,2.2612,2.084,2.2089,2.295,2.2269,2.2354,2.2404,2.2247,2.1538,2.1162,2.1328,2.1489,2.1703,2.1937,2.2245,2.2485,2.2619,2.2813,2.2893,2.2893,1.9982,1.8508,1.8519,1.6756,1.4858,1.2853,1.2008,1.1584,1.1584,1.1584,1.1584,1.144,0.9502,0.8085,0.6857,0.3996,0.2256,0.1239,0.0328,0.0,0.0,0.0,0.0,0.0,0.0,0.0,0.0,0.0,0.0,0.0,0.0,0.0,0.0,0.0,0.0,0.0,0.0,0.0,0.0,0.0,1.7991,1.7991,1.7991,1.7991,1.7991,1.7991,1.7991,1.7991,1.7991,1.7991,1.7991,1.7991,1.7991,1.7991,1.7991,1.7991,1.811,1.8276,1.8093,1.8127,1.8276,0.0,0.0,0.0,0.0,0.0,0.0,0.0,0.0,0.0,0.0,0.0,0.0,0.0,0.0,0.0,2.0946,2.1144,2.1409,2.1483,2.0985,2.0625,2.1407,2.125,2.0938,2.1153,2.1192,2.1192,2.1212,2.1212,2.1466,2.2345,2.2457,2.2175,2.142,2.2449,2.2818,2.1311,2.2649,2.3327,2.2125,2.2573,2.2497,2.1235,2.1109,2.1109,2.1109,2.1355,2.1515,2.1614,2.1977,2.2271,2.2418,2.2645,2.2827,2.2893,1.9565,1.7634,1.7178,1.6308,1.4369,1.1584,1.1584,1.1584,1.1584,1.1584,1.1325,1.0779,0.8812,0.6894,0.4939,0.2981,0.1311,0.0,0.0,0.0,0.0,0.0,0.0,0.0,0.0,0.0,0.0,0.0,0.0,0.0,0.0,0.0,0.0,0.0,0.0,0.0,0.0,0.0,0.0,0.0,1.7991,1.7991,1.7991,1.7991,1.7991,1.7991,1.7991,1.7991,1.7991,1.7991,1.7991,1.7991,1.7991,1.7991,1.7991,1.7991,1.8445,1.916,1.8344,1.8462,1.9144,1.8327,0.0,0.0,0.0,0.0,0.0,0.0,0.0,0.0,0.0,0.0,0.0,0.0,0.0,2.2151,2.0061,2.0627,2.1682,2.0402,1.9999,2.0078,2.0566,2.125,2.1992,2.2752,2.2906,2.2947,2.299,2.299,2.3264,2.4082,2.4074,2.3372,2.1574,2.1192,2.0776,1.971,2.0121,2.05,2.0379,2.0904,2.1235,2.1109,2.1109,2.1109,2.1109,2.1122,2.1256,2.1569,2.1622,2.189,2.2371,2.2411,2.2579,2.2893,2.0894,1.9008,1.7142,1.3666,1.1864,1.1584,1.1584,1.1584,1.1584,1.1584,1.0593,0.8776,0.6821,0.4866,0.2909,0.0984,0.0109,0.0,0.0,0.0,0.0,0.0,0.0,0.0,0.0,0.0,0.0,0.0,0.0,0.0,0.0,0.0,0.0,0.0,0.0,0.0,0.0,0.0,0.0,0.0,1.7991,1.7991,1.7991,1.7991,1.7991,1.7991,1.7991,1.7991,1.7991,1.7991,1.7991,1.7991,1.7991,1.8276,1.8794,1.8794,1.8994,1.9293,1.8944,1.8697,1.8462,1.8127,1.7991,0.0,0.0,0.0,0.0,0.0,0.0,0.0,0.0,1.9502,2.1051,1.8897,1.9695,2.1183,2.0107,2.0215,2.0646,2.0498,2.057,2.0879,2.1602,2.2227,2.2596,2.2402,2.2773,2.3186,2.3186,2.3186,2.3418,2.4235,2.5221,2.504,2.2457,2.2413,2.1915,1.9722,1.9706,1.9997,2.0184,2.0588,2.0909,2.1096,2.1109,2.1109,2.1109,2.1109,2.1162,2.1269,2.1489,2.1689,2.1903,2.2231,2.1885,2.0854,1.9138,1.7353,1.5451,1.4014,1.2745,1.1584,1.1584,1.1584,1.1584,1.1584,1.0485,0.8559,0.6604,0.4649,0.2691,0.0766,0.0,0.0,0.0,0.0,0.0,0.0,0.0,0.0,0.0,0.0,0.0,0.0,0.0,0.0,0.0,0.0,0.0,0.0,0.0,0.0,0.0,0.0,0.0,1.7991,1.7991,1.7991,1.7991,1.8243,1.8296,1.8008,1.8259,1.8296,1.7991,1.7991,1.8144,1.8411,1.8411,1.8731,1.9309,1.9309,1.9437,1.9666,1.9127,1.8694,1.8378,1.811,1.8161,0.0,0.0,0.0,0.0,0.0,0.0,0.0,0.0,1.9911,2.1784,1.8894,1.9392,2.0802,1.9754,1.9567,1.9774,2.0023,2.0446,2.0996,2.1874,2.2713,2.3201,2.2793,2.293,2.3264,2.3518,2.3747,2.404,2.4332,2.5429,2.5371,2.2566,2.265,2.2238,1.9764,1.9613,1.9907,2.017,2.0494,2.082,2.1082,2.1109,2.1109,2.1109,2.1109,2.1109,2.1109,2.1328,2.1489,2.1614,2.2031,2.1393,1.9629,1.8007,1.6263,1.4397,1.38,1.2853,1.1584,1.1584,1.1584,1.1584,1.0959,0.9579,0.7616,0.5699,0.3742,0.1856,0.051,0.0,0.0,0.0,0.0,0.0,0.0,0.0,0.0,0.0,0.0,0.0,0.0,0.0,0.0,0.0,0.0,0.0,0.0,0.0,0.0,0.0,0.0,0.0,1.7991,1.8008,1.8008,1.8008,1.8827,1.8894,1.8042,1.8861,1.8861,1.7991,1.7991,1.8445,1.9309,1.9309,1.9309,1.9326,1.9326,1.9797,2.0478,1.8744,1.8512,1.921,1.8361,1.8529,1.9293,0.0,0.0,0.0,0.0,0.0,0.0,0.0,2.0279,2.2494,1.9094,1.9781,2.1369,1.8744,1.8613,1.9198,1.8725,1.9259,2.0137,2.1015,2.2539,2.3906,2.4293,2.3728,2.3335,2.4215,2.5093,2.5421,2.4567,2.4603,2.4034,2.1689,2.148,2.1088,1.962,1.9613,1.9907,2.0157,2.0494,2.0788,2.1082,2.1109,2.1109,2.1109,2.1109,2.1109,2.1109,2.1109,2.1243,2.1569,2.1863,2.1201,1.9595,1.8007,1.6263,1.4361,1.2502,1.1584,1.1584,1.1584,1.1584,1.1476,0.9574,0.7616,0.5663,0.3669,0.1748,0.0,0.0,0.0,0.0,0.0,0.0,0.0,0.0,0.0,0.0,0.0,0.0,0.0,0.0,0.0,0.0,0.0,0.0,0.0,0.0,0.0,0.0,0.0,0.0,0.0,1.7991,1.858,1.8911,1.8911,1.916,1.9474,1.9814,1.9469,1.8861,1.7991,1.7991,1.8445,1.9309,1.9309,1.9617,2.0236,2.0862,2.059,1.9683,1.9781,1.9276,1.8411,1.8781,1.8694,1.8529,0.0,0.0,0.0,0.0,0.0,0.0,0.0,0.0,0.0,1.9094,1.9375,2.059,1.8596,1.8629,1.9282,1.9134,2.0391,2.1796,2.2049,2.2969,2.3828,2.3945,2.4004,2.3923,2.3571,2.4684,2.5208,2.3568,2.4115,2.3983,2.143,2.1349,2.1088,1.962,1.9468,1.9629,1.9893,2.0157,2.0481,2.0775,2.0989,2.1109,2.1109,2.1109,2.1109,2.1109,2.1109,2.1149,2.1243,2.1555,2.0302,1.7383,1.7066,1.542,1.2431,1.1864,1.1584,1.1584,1.1584,1.1584,1.1584,1.0995,0.8853,0.5555,0.2219,0.051,0.0,0.0,0.0,0.0,0.0,0.0,0.0,0.0,0.0,0.0,0.0,0.0,0.0,0.0,0.0,0.0,0.0,1.7991,1.7991,0.0,0.0,0.0,0.0,0.0,0.0,1.8529,1.9342,1.9814,1.9814,2.0155,2.0414,2.0606,2.009,1.9392,1.8529,1.8529,1.8961,1.9814,1.9814,2.0285,2.1101,2.0942,2.0478,1.983,2.0009,1.9276,1.8076,1.8944,1.8977,1.868,0.0,0.0,0.0,0.0,0.0,0.0,0.0,0.0,0.0,1.8977,1.921,2.0252,1.8512,1.8613,1.9315,1.9315,2.0742,2.2305,2.2459,2.3164,2.3789,2.3789,2.4121,2.4254,2.3728,2.4742,2.5411,2.4398,2.4532,2.414,2.2135,2.167,2.1088,1.962,1.9401,1.9508,1.976,2.0024,2.0317,2.0672,2.0935,2.1109,2.1109,2.1109,2.1109,2.1109,2.1109,2.1109,2.1109,2.0734,1.92,1.6315,1.5933,1.4344,1.1531,1.1556,1.1584,1.1584,1.1584,1.1584,1.1512,0.9981,0.7512,0.4395,0.1275,0.0,0.0,0.0,0.0,0.0,0.0,0.0,-0.0109,0.0,0.0,0.0,0.0,0.0,0.0,0.0,0.0,0.0,0.0,1.7991,1.7991,0.0,0.0,0.0,0.0,0.0,0.0,0.0,2.0236,2.0719,2.0719,2.1565,2.1581,2.0623,2.0671,2.0285,1.9425,1.9425,1.9863,2.0719,2.0719,2.1101,2.1721,2.0204,1.9895,2.043,1.9634,1.8827,1.8195,1.8977,1.926,1.9276,2.0155,0.0,0.0,0.0,0.0,0.0,0.0,0.0,0.0,1.8794,1.9144,2.0155,1.8496,1.8613,1.9315,1.9393,2.0644,2.2013,2.2461,2.3223,2.3867,2.3906,2.4238,2.4469,2.4313,2.5035,2.5786,2.6076,2.5296,2.4263,2.3223,2.2122,2.0916,1.9591,1.9401,1.9495,1.9733,1.9983,2.0277,2.0601,2.0895,2.1082,2.1109,2.1109,2.1109,2.1109,2.1109,2.1046,2.0874,1.9621,1.7949,1.5893,1.4712,1.3223,1.1396,1.1531,1.1606,1.1584,1.1584,1.1512,1.1145,0.7404,0.4685,0.2763,0.0802,0.0,0.0,0.0,0.0,0.0,0.0,0.0,-0.0292,0.0,0.0,0.0,0.0,0.0,0.0,0.0,0.0,0.0,0.0,0.0,0.0,0.0,0.0,0.0,0.0,0.0,0.0,0.0,2.1132,2.1628,2.1628,2.2387,2.2141,2.0623,2.1259,2.118,2.0317,2.0317,2.0767,2.1628,2.1628,2.1376,2.0894,2.1195,2.0687,1.9568,1.9371,1.9193,1.9044,1.9226,1.8894,1.8361,1.926,1.9474,0.0,0.0,0.0,0.0,0.0,0.0,0.0,1.8613,1.8731,1.9375,1.831,1.8613,1.9452,2.0117,2.1094,2.207,2.2791,2.363,2.4375,2.473,2.5137,2.5035,2.3647,2.4625,2.5376,2.4325,2.3513,2.2775,2.205,2.0773,1.9764,1.9459,1.9401,1.9415,1.9481,1.972,2.0,2.0264,2.0601,2.0869,2.1096,2.1109,2.1109,2.1109,2.1109,2.0462,1.9088,1.8764,1.7152,1.4096,1.3781,1.289,1.1389,1.1423,1.1504,1.1584,1.1584,1.0779,0.9177,0.6821,0.4685,0.2763,0.0802,0.0,0.0,0.0,0.0,0.0,0.0,0.0,-0.0292,0.0,0.0,0.0,0.0,0.0,0.0,0.0,0.0,0.0,0.0,0.0,0.0,0.0,0.0,0.0,0.0,0.0,0.0,0.0,0.0,2.2463,2.2463,2.2884,2.2509,2.1243,2.2048,2.2063,2.1211,2.1604,2.1831,2.1893,2.1487,2.1259,2.1195,2.0814,2.0155,1.9342,1.9748,1.9437,1.8714,1.9127,1.8777,1.811,1.8961,1.9044,1.8727,1.916,0.0,0.0,0.0,0.0,0.0,0.0,0.0,1.9127,1.8243,1.8613,1.9491,2.0351,2.1231,2.209,2.2908,2.3767,2.4449,2.4707,2.5249,2.5421,2.4524,2.507,2.5375,2.4314,2.3218,2.2306,2.1707,2.0371,1.9401,1.9401,1.9401,1.9401,1.9401,1.9655,1.9853,1.9983,2.0414,2.0766,2.0895,2.1029,2.1109,2.1109,2.0291,1.9451,1.8544,1.6883,1.516,1.3402,1.2633,1.1901,1.1144,1.1321,1.147,1.1584,1.1584,1.0521,0.8595,0.664,0.4685,0.2763,0.0802,0.0,0.0,0.0,0.0,0.0,0.0,-0.0583,-0.1675,0.0,0.0,0.0,0.0,0.0,0.0,0.0,0.0,0.0,0.0,0.0,0.0,0.0,0.0,0.0,0.0,0.0,0.0,0.0,0.0,0.0,2.3095,2.3095,2.2793,2.211,2.2763,2.2778,2.211,2.2778,2.2702,2.1877,2.1148,2.1195,2.1831,2.0236,1.9519,1.9552,2.0139,1.9535,1.8259,1.8844,1.8647,1.8076,1.8794,1.863,1.8093,1.8811,1.8613,1.7991,1.7991,0.0,0.0,0.0,0.0,1.8927,1.8192,1.8516,1.9276,2.0136,2.1114,2.209,2.2908,2.3767,2.4391,2.4391,2.5074,2.5693,2.5693,2.5693,2.5514,2.4845,2.3493,2.229,2.1632,2.0329,1.9401,1.9401,1.9401,1.9401,1.9401,1.9615,1.9746,1.98,2.0241,2.0592,2.0699,2.0645,2.06,2.0652,1.8992,1.7923,1.7602,1.4819,1.3161,1.2832,1.1536,1.0887,1.0887,1.1246,1.1457,1.1543,1.124,1.0047,0.8121,0.6496,0.4504,0.2291,0.0656,0.0,0.0,0.0,0.0,-0.0036,-0.0365,-0.1529,-0.3234,0.0,0.0,0.0,0.0,0.0,0.0,0.0,0.0,0.0,0.0,1.9683,1.9535,0.0,0.0,0.0,0.0,0.0,0.0,2.2899,0.0,0.0,2.3095,2.3095,2.3035,2.2944,2.3035,2.3035,2.2944,2.3035,2.2702,2.1893,2.1784,2.1784,2.1862,2.0862,2.043,2.0381,1.9732,1.9342,1.9077,1.8428,1.811,1.8008,1.8127,1.811,1.8025,1.8127,1.811,1.7991,1.7991,1.8076,0.0,0.0,0.0,1.8161,1.8025,1.8069,1.8359,1.9237,2.0664,2.209,2.2908,2.3767,2.4391,2.4391,2.5074,2.5693,2.5693,2.5693,2.5418,2.4532,2.3348,2.221,2.1314,2.016,1.9401,1.9401,1.9401,1.9401,1.9401,1.9428,1.9548,1.9773,1.9867,2.0134,2.0672,1.9343,1.8593,1.882,1.7173,1.5557,1.4036,1.3545,1.2578,1.1049,1.0837,1.0786,1.0887,1.1246,1.1402,1.1352,0.9815,0.8018,0.617,0.5917,0.3744,0.0365,0.0109,0.0,0.0,0.0,0.0,-0.0219,-0.1892,-0.2691,-0.3415,0.0,0.0,0.0,0.0,0.0,0.0,0.0,0.0,0.0,0.0,0.0,2.0171,0.0,0.0,0.0,2.1831,2.2295,2.2732,2.3065,2.3095,2.3095,2.3095,2.3095,2.3095,2.3095,2.3095,2.3095,2.3095,2.3095,2.2702,2.1893,2.1893,2.1643,2.1132,2.0252,1.9863,1.9846,1.9474,1.9011,1.8546,1.8161,1.7991,1.7991,1.7991,1.7991,1.7991,1.7991,1.7991,1.7991,1.7991,1.7991,1.7991,1.7991,0.0,0.0,0.0,1.7991,1.8203,1.9062,2.0586,2.1973,2.2344,2.3262,2.4121,2.4332,2.4902,2.543,2.5659,2.5094,2.4275,2.3245,2.2764,2.1924,2.0144,1.9617,1.9401,1.9401,1.9401,1.9401,1.9401,1.9401,1.9441,1.9575,1.9706,1.9535,1.891,1.8324,1.7676,1.6966,1.5283,1.4017,1.3316,1.2347,1.1472,1.0717,1.0684,1.0765,1.0914,1.1049,1.1233,1.136,0.9445,0.7563,0.5736,0.4649,0.2583,0.0,0.0,0.0,0.0,0.0,0.0,-0.0219,-0.2183,-0.3597,-0.4939,0.0,0.0,0.0,0.0,0.0,0.0,0.0,0.0,0.0,0.0,0.0,0.0,0.0,0.0,0.0,0.0,2.2763,2.3095,2.3095,2.3095,2.3095,2.3095,2.3095,2.3095,2.3095,2.3095,2.3095,2.3095,2.3095,2.2702,2.1893,2.1675,2.1211,2.0574,1.9911,1.9524,1.9309,1.9309,1.8794,1.7991,1.7991,1.7991,1.7991,1.7991,1.7991,1.7991,1.7991,1.7991,1.7991,1.7991,1.7991,1.7991,1.7991,1.7991,0.0,0.0,0.0,1.8203,1.9062,2.0253,2.1348,2.1798,2.2676,2.3633,2.4254,2.4746,2.5124,2.5188,2.4412,2.3248,2.1739,2.1687,2.1206,1.9151,1.9065,1.9308,1.9388,1.9401,1.9401,1.9401,1.9401,1.9401,1.9401,1.9194,1.8614,1.7499,1.6857,1.6073,1.5047,1.3364,1.25,1.2604,1.1351,1.0684,1.0684,1.0684,1.0745,1.086,1.0894,1.1029,1.1176,0.8827,0.701,0.5637,0.3737,0.1783,0.0,0.0,0.0,0.0,0.0,-0.0292,-0.0984,-0.2909,-0.4866,-0.6821,0.0,0.0,0.0,0.0,0.0,0.0,0.0,0.0,0.0,0.0,0.0,0.0,2.2884,2.2326,2.2202,2.2959,2.3065,2.3095,2.3095,2.3095,2.3095,2.3095,2.3095,0.0,2.3095,2.3095,2.3095,2.3095,2.3095,2.2702,2.1877,2.1037,2.0639,2.0606,2.0558,2.0074,1.9309,1.9309,1.8794,1.7991,1.7991,1.7991,1.7991,1.7991,1.7991,1.7991,1.7991,1.7991,1.7991,1.7991,1.7991,1.7991,1.7991,1.7991,1.7991,0.0,0.0,0.0,1.9062,1.9374,1.9843,2.1505,2.2227,2.2891,2.4118,2.4746,2.4842,2.3981,2.3732,2.2885,2.021,2.0005,1.9842,1.8712,1.8758,1.9052,1.9361,1.9401,1.9401,1.9401,1.9401,1.9401,1.9401,1.8023,1.7209,1.7386,1.4476,1.2775,1.3026,1.1498,1.0656,1.0663,1.0676,1.0684,1.0684,1.0684,1.0691,1.0698,1.0846,1.0921,1.0805,0.7314,0.5696,0.5528,0.3686,0.1783,0.0,0.0,0.0,0.0,0.0,-0.1129,-0.2981,-0.4939,-0.6894,-0.8812,0.0,0.0,0.0,0.0,0.0,0.0,0.0,0.0,0.0,0.0,0.0,0.0,0.0,2.2838,2.2793,2.3065,2.3095,2.3095,2.3095,2.3095,2.3095,2.3095,2.3095,2.3095,2.3095,2.3095,2.3095,2.3095,2.3095,2.2702,2.1893,2.1581,2.083,1.9732,1.9193,1.9077,1.926,1.8694,1.8276,1.7991,1.7991,1.7991,1.7991,1.7991,1.7991,1.8069,1.8633,1.8828,1.8906,1.9471,1.9296,1.8828,1.8828,1.8457,1.7991,1.7991,1.7991,1.8069,1.8379,1.8867,1.9452,2.0077,2.0762,2.1485,2.2186,2.3103,2.356,2.2662,2.2435,2.1836,1.9963,1.987,1.9675,1.8401,1.8583,1.893,1.9065,1.9267,1.9401,1.9401,1.9401,1.8997,1.7952,1.7325,1.6172,1.4221,1.2945,1.1914,1.1082,1.0489,1.0297,1.0487,1.0548,1.0622,1.0684,1.0684,1.0684,1.0684,1.0745,1.0819,1.0779,0.7117,0.5537,0.5447,0.2366,0.0651,0.0,0.0,0.0,0.0,0.0,-0.1202,-0.3125,-0.5084,-0.7038,-0.8992,0.0,0.0,0.0,2.1037,0.0,2.1432,2.1432,2.1432,2.1635,2.2218,0.0,0.0,0.0,0.0,2.3095,2.3095,2.3095,2.3095,2.3095,2.3095,2.3095,2.3095,2.3095,2.3095,2.3095,2.3095,2.3095,2.3095,2.3095,2.2702,2.1893,2.1612,2.0687,1.926,1.8378,1.831,1.8827,1.8262,1.7991,1.7991,1.7991,1.7991,1.803,1.832,1.8437,1.8555,1.9432,1.9745,1.9823,2.039,2.0019,1.9315,1.9315,1.8691,1.7991,1.7991,1.7991,1.7991,1.7991,1.8418,1.8926,1.9237,1.9745,2.0351,2.1054,2.1849,2.2184,2.1274,2.1046,2.0564,1.9187,1.9115,1.8984,1.8131,1.8343,1.8636,1.8743,1.9038,1.9225,1.9225,1.8858,1.8169,1.7108,1.6009,1.45,1.2367,1.1705,1.0982,0.9995,0.9988,1.013,1.0412,1.0466,1.0541,1.0643,1.0697,1.0684,1.0684,1.0684,1.0438,0.9817,0.6791,0.5128,0.4461,0.1355,0.0,0.0,0.0,-0.0401,-0.0984,-0.0984,-0.2545,-0.5008,-0.6315,-0.8018,-0.9867,0.0,2.1337,2.1939,2.1939,2.2595,2.3095,2.3095,2.3095,2.3095,2.3095,0.0,0.0,0.0,0.0,0.0,2.3095,2.3095,2.3095,2.3095,2.3095,2.3095,2.3095,2.3095,2.3095,2.3095,2.3095,2.3095,2.3095,2.3065,2.2671,2.1877,2.0974,2.0107,1.926,1.8378,1.7991,1.7991,1.7991,1.7991,1.7991,1.803,1.8047,1.8127,1.9022,1.9335,1.9452,2.0331,2.0644,2.0644,2.0664,2.0077,1.9335,1.9276,1.8672,1.7991,1.7991,1.7991,1.7991,0.0,0.0,0.0,1.9043,1.9258,1.959,2.0859,2.1102,2.0782,1.9879,1.9639,1.9184,1.7858,1.7608,1.7689,1.7956,1.7982,1.8116,1.8437,1.8731,1.8876,1.882,1.7749,1.695,1.6862,1.4024,1.2187,1.2127,1.0687,0.9792,0.9792,0.9934,1.0089,1.027,1.0412,1.0487,1.0493,1.0636,1.0717,1.0684,1.0684,0.9742,0.7936,0.6212,0.4409,0.2591,0.0782,0.0,0.0,0.0,-0.1129,-0.2909,-0.2909,-0.5262,-0.8703,-0.8703,-0.9939,-1.1584,2.2402,2.2586,2.2778,2.2778,2.2944,2.3095,2.3095,2.3095,2.3095,0.0,0.0,0.0,2.3095,2.3095,2.3095,2.3095,2.3095,2.3095,2.3095,2.3095,2.3095,2.3095,2.3095,2.3095,2.3095,2.3095,2.3095,2.3095,2.2534,2.211,2.1862,2.0365,1.9519,1.926,1.8378,1.7991,1.7991,1.7991,1.7991,1.8066,1.8691,1.8926,1.9041,1.9902,2.0253,2.0351,2.1231,2.1544,2.1641,2.2206,2.1445,2.0019,1.875,1.8186,1.7991,1.7991,1.7991,1.7991,1.7991,0.0,0.0,0.0,0.0,0.0,1.9609,2.0024,2.0036,1.9393,1.9478,1.9269,1.7866,1.7608,1.7609,1.7702,1.7876,1.8022,1.8129,1.8424,1.8207,1.716,1.6784,1.5783,1.3586,1.2669,1.1705,1.0536,1.0058,0.9792,0.9792,0.9934,1.0035,1.0082,1.0263,1.0385,1.0487,1.0534,1.0609,1.0684,1.0684,0.9742,0.7931,0.6187,0.4408,0.259,0.0774,0.0,0.0,0.0,-0.1129,-0.2909,-0.2909,-0.5262,-0.8703,-0.8703,-0.9939,-1.1584,2.3095,2.3095,2.3095,2.3095,2.3095,2.3095,2.3095,2.3095,2.3095,0.0,0.0,0.0,2.3095,2.3095,2.3095,2.3095,2.3095,2.3095,2.3095,2.3095,2.3095,2.3095,2.3095,2.3095,2.3095,2.3095,2.3095,2.3095,2.2279,2.1721,2.1345,1.9944,1.911,1.8747,1.8245,1.7991,1.801,1.8186,1.8459,1.8791,1.8769,1.9082,1.9629,2.0332,2.0605,2.0762,2.1973,2.2519,2.2734,2.3006,2.2246,2.0762,1.8672,1.8262,1.8477,1.8125,1.7991,1.7991,1.7991,1.7991,1.7991,1.7991,0.0,0.0,1.8633,1.86,1.8463,1.8387,1.8123,1.7728,1.7165,1.6927,1.6927,1.7181,1.7368,1.7542,1.7796,1.8116,1.7961,1.7109,1.606,1.4727,1.2971,1.1782,1.0741,0.9794,0.9758,0.9792,0.9792,0.9873,0.9927,0.9927,1.0069,1.0256,1.0399,1.046,1.0568,1.0684,1.0684,0.9377,0.6898,0.5863,0.3983,0.1506,0.0456,0.0,-0.0073,-0.0874,-0.2365,-0.4177,-0.5008,-0.7219,-0.9903,-0.9903,-1.0635,-1.1584,0.0,2.3095,2.3095,2.3095,2.3095,2.3095,2.3095,2.3095,2.3095,0.0,2.3095,2.3095,2.3095,2.3095,2.3095,2.3095,2.3095,2.3095,2.3095,2.3095,2.3095,2.3095,2.3095,2.3095,2.3095,2.3095,2.305,2.2959,2.2156,2.1306,2.0446,1.9552,1.8747,1.7991,1.7991,1.801,1.8088,1.8442,1.9143,1.9942,1.8887,1.9162,2.0313,2.082,2.1016,2.1211,2.2713,2.3513,2.3769,2.3123,2.2479,2.1524,1.8945,1.8672,1.9159,1.8379,1.8086,1.7991,1.7991,1.7991,1.7991,1.7991,1.7991,0.0,1.8108,1.7387,1.6839,1.7465,1.6564,1.5815,1.6221,1.6092,1.6034,1.6498,1.6647,1.6914,1.7528,1.7822,1.7888,1.7726,1.5444,1.3778,1.3637,1.1187,0.9612,0.9612,0.971,0.9792,0.9792,0.9792,0.9792,0.9792,0.992,1.0076,1.0308,1.0405,1.0555,1.0684,1.0485,0.864,0.5396,0.5205,0.3241,0.0,0.0,0.0,-0.0182,-0.2328,-0.425,-0.5989,-0.7941,-0.9903,-1.1584,-1.1584,-1.1584,-1.1584,2.3095,2.3095,2.3095,2.3095,2.3095,2.3095,2.3095,2.3095,2.3095,2.3095,2.3095,2.3095,2.3095,2.3095,2.3095,2.3095,2.3095,2.3095,2.3095,2.3095,2.3095,2.3095,2.3095,2.3095,2.3095,2.3095,2.2778,2.2125,2.1259,2.0414,1.9519,1.8664,1.8161,1.7991,1.7991,1.8186,1.8481,1.8559,1.9514,2.0976,2.1094,2.168,2.2555,2.3357,2.3672,2.3711,2.402,2.4196,2.4023,2.2165,2.1932,2.1992,1.9746,1.916,1.9276,1.91,1.8555,1.7991,1.7991,1.7991,1.7991,1.7991,1.7991,0.0,1.8887,1.8355,1.7933,1.869,1.8084,1.7203,1.6514,1.6512,1.6409,1.5772,1.6246,1.6914,1.7528,1.7662,1.7238,1.6041,1.4516,1.3112,1.1927,1.0477,0.9612,0.9612,0.971,0.9792,0.9792,0.9792,0.9792,0.9792,0.9819,0.9998,1.0308,1.0342,1.046,1.0684,0.9238,0.7431,0.5366,0.3903,0.2033,0.0,0.0,0.0,-0.0255,-0.378,-0.5446,-0.5989,-0.7941,-0.9903,-1.1584,-1.1584,-1.1584,-1.1584,2.1838,2.2202,2.2356,2.1939,2.254,2.2959,2.2564,2.2838,2.3095,2.3095,2.3095,2.3095,2.3095,2.3095,2.3095,2.3095,2.3095,2.3095,2.3095,2.3095,2.3095,2.3095,2.2717,2.2702,2.308,2.2279,2.1877,2.1893,2.059,1.9732,1.9293,1.8411,1.7991,1.801,1.8205,1.8403,1.8656,1.9533,2.0644,2.1815,2.1406,2.1875,2.2869,2.3513,2.3747,2.3806,2.4235,2.4391,2.4196,2.2949,2.2656,2.2539,2.0801,1.9961,1.9551,1.9374,1.8691,1.7991,1.7991,1.7991,1.7991,1.7991,1.7991,0.0,0.0,1.7954,1.7505,1.8225,1.7511,1.6544,1.5884,1.5851,1.5727,1.5066,1.5458,1.6046,1.662,1.7208,1.7331,1.6578,1.5287,1.4163,1.3426,1.1603,1.0222,0.9657,0.971,0.9792,0.9792,0.9792,0.9792,0.9792,0.9792,0.9971,1.0308,1.0315,1.0426,1.0684,0.8867,0.7098,0.5332,0.3539,0.1728,0.0,0.0,0.0,-0.0292,-0.418,-0.5808,-0.6098,-0.8997,-1.0743,-1.1584,-1.1584,-1.1584,-1.1584,2.0751,2.1526,2.1908,2.1195,2.2202,2.2884,2.2218,2.2686,2.3095,2.3095,2.2959,2.2928,2.308,2.2825,2.2699,2.2849,2.2708,2.2702,2.2854,2.2717,2.2677,2.2854,2.2233,2.2125,2.2601,2.1447,2.1021,2.1408,1.9993,1.921,1.9027,1.8327,1.803,1.8127,1.8459,1.8792,1.9202,2.0605,2.1613,2.2176,2.1578,2.1954,2.2908,2.3393,2.3357,2.3054,2.3666,2.4064,2.4198,2.3621,2.3493,2.3303,2.1796,2.0859,2.0176,1.959,1.8809,1.8088,1.801,1.7991,1.7991,1.7991,1.7991,1.7991,0.0,0.0,0.0,1.7497,1.6789,1.593,1.5471,1.5274,1.5022,1.4517,1.4693,1.5044,1.5488,1.654,1.7248,1.7248,1.5964,1.5112,1.5232,1.3173,1.1204,0.9703,1.0005,1.0119,0.9822,0.9792,0.9792,0.9792,0.9819,0.9998,1.0308,1.0342,1.0453,1.0684,0.8535,0.6765,0.5332,0.3175,0.1386,0.0,0.0,-0.0217,-0.0838,-0.4361,-0.6025,-0.6713,-1.0233,-1.1584,-1.1584,-1.1584,-1.1584,-1.1584,2.129,2.2427,2.2929,2.2838,2.2975,2.3065,2.2975,2.3035,2.3095,2.3095,2.2488,2.2313,2.3015,2.1774,2.1209,2.197,2.1329,2.1211,2.1986,2.1306,2.1227,2.2002,2.1955,2.1581,2.0894,2.1455,2.1037,1.9606,1.9408,1.8894,1.8161,1.8042,1.8186,1.8539,1.8578,1.9455,2.0917,2.1132,2.1227,2.1417,2.3239,2.4062,2.4274,2.507,2.4207,2.2427,2.2105,2.277,2.3614,2.241,2.3293,2.4515,2.2482,2.1738,2.1426,2.0195,1.922,1.8442,1.8088,1.7991,1.7991,1.7991,1.7991,1.7991,1.7991,0.0,1.7857,1.7936,0.0,1.7467,1.6598,0.0,0.0,1.4379,1.4434,1.4567,1.4634,1.5435,1.6008,1.6008,1.4752,1.4089,1.4644,1.4043,1.2486,0.9799,1.1048,1.1284,0.9883,0.9792,0.9792,0.9792,0.992,1.0076,1.0308,1.0405,1.0555,1.0651,0.7303,0.5596,0.5268,0.1864,0.021,0.0,0.0,-0.0982,-0.2727,-0.4902,-0.6821,-0.8595,-1.0743,-1.1584,-1.1584,-1.1584,-1.1584,-1.1584,2.0285,2.1069,2.1651,2.1651,2.2079,2.2233,2.1729,2.2079,2.2218,2.1713,2.1799,2.202,2.2377,2.1779,2.1694,2.2511,2.2253,2.2492,2.3519,2.2177,2.2332,2.4468,2.1883,2.0989,2.2269,2.0539,1.9519,1.9309,1.8777,1.8361,1.7991,1.7991,1.8205,1.8637,1.9414,1.9851,2.0175,2.2197,2.23,2.1244,2.2834,2.3074,2.2638,2.4031,2.3484,2.1964,2.177,2.2064,2.2473,2.1919,2.2541,2.3288,2.1833,2.1425,2.1283,2.0171,1.9449,1.9082,1.9413,1.8918,1.8415,1.898,1.8521,1.7952,1.7975,1.7991,1.7991,1.7991,0.0,0.0,0.0,0.0,0.0,0.0,1.4342,1.4269,1.4269,1.4589,1.507,1.5728,1.5272,1.4825,1.4626,1.4316,1.3115,1.0658,1.1215,1.1053,0.9653,0.9727,0.9792,0.9792,0.994,1.0096,1.0308,1.0419,1.0038,0.9105,0.6598,0.4861,0.3761,0.1176,0.0,0.0,0.0,-0.1093,-0.3052,-0.5011,-0.693,-0.8884,-1.0851,-1.1584,-1.1584,-1.1584,-1.1584,-1.1584,1.9392,1.9993,2.0606,2.0606,2.1116,2.1322,2.0703,2.1132,2.1306,2.0687,2.0942,2.1469,2.2246,2.1643,2.1727,2.3095,2.2718,2.2865,2.3936,2.2253,2.2407,2.5122,2.1651,2.0491,2.2321,1.9954,1.8788,1.8944,1.8293,1.7991,1.7991,1.7991,1.8283,1.883,1.9823,2.0052,1.9879,2.2426,2.2419,2.0804,2.2013,2.1771,2.0808,2.1816,2.1753,2.1075,2.0717,2.0804,2.111,2.111,2.1611,2.2066,2.1145,2.0911,2.0768,1.9715,1.9237,1.9252,2.0151,1.9459,1.8802,2.012,1.9353,1.8357,1.8653,1.8535,1.832,1.8186,1.8166,0.0,0.0,0.0,1.5697,1.5138,0.0,1.3961,1.3961,1.4041,1.4402,1.5234,1.5475,1.5184,1.4201,1.462,1.3824,1.1066,1.1462,1.1131,0.949,0.9585,0.9741,0.9792,0.9981,1.0136,1.0308,1.046,0.9709,0.7964,0.6231,0.4459,0.2653,0.083,0.0,0.0,0.0,-0.1421,-0.3814,-0.5229,-0.7255,-0.9651,-1.1038,-1.1584,-1.1584,-1.1584,-1.1584,-1.1584,1.9144,1.9993,2.0606,2.0606,2.0623,2.0623,2.0606,2.0623,2.0623,2.0606,1.9895,2.0424,2.3148,2.1014,2.0502,2.3253,2.1784,2.1048,2.1924,2.0377,2.0184,2.1958,2.1099,2.0208,1.9441,2.0137,1.9707,1.8042,1.8008,1.7991,1.7991,1.7991,1.8457,1.9296,1.9335,1.9976,2.1047,2.1168,2.059,1.9774,2.1179,2.0899,1.9544,1.876,1.8974,1.9498,1.8199,1.8577,1.9679,1.9679,2.0574,2.1569,2.0679,2.0416,2.017,1.8827,1.8437,1.8633,1.9571,1.9168,1.9039,2.1274,2.0527,1.9475,2.0312,1.9862,1.9121,1.8676,1.8578,1.856,1.8543,1.6919,1.5739,0.0,1.4711,0.0,0.0,1.3908,1.4095,1.4156,1.4665,1.445,1.3008,1.5152,1.4837,1.0542,1.2111,1.21,0.9534,0.9417,0.9523,0.9785,1.0114,1.0276,1.0315,1.0568,0.9775,0.7964,0.6231,0.4459,0.2653,0.083,0.0,0.0,0.0,-0.2184,-0.5699,-0.5772,-0.8054,-1.1512,-1.1584,-1.1584,-1.1584,-1.1584,-1.1584,-1.1584,1.8378,1.868,1.9243,2.0398,2.0123,1.9535,1.8961,1.9375,1.9736,1.975,1.9986,2.0746,2.2264,2.1591,2.1621,2.3091,2.2615,2.2694,2.374,2.2311,2.2595,2.5231,2.2543,2.1222,2.168,2.041,1.9167,1.7991,1.7991,1.7991,1.8008,1.8283,1.8713,1.9354,2.0176,2.0276,1.9872,2.1332,2.0702,1.8784,1.9259,1.8962,1.8183,1.7938,1.8019,1.8225,1.7766,1.7884,1.8277,1.8277,1.9187,2.0097,1.8913,1.9409,2.0119,1.8756,1.8582,1.9057,1.9952,1.9293,1.8932,2.1253,2.025,1.9035,2.0311,1.9921,1.9238,1.9102,1.9062,1.9062,1.9062,1.7561,0.0,0.0,0.0,1.3935,0.0,1.4028,1.4103,1.4103,1.429,1.4383,1.426,1.4249,1.3433,1.1483,1.137,1.071,0.9153,0.9273,0.9517,0.9785,1.012,1.0315,1.0315,1.0575,0.9211,0.6264,0.5696,0.3823,0.0908,0.0277,0.0,0.0,0.0,-0.2221,-0.5808,-0.5808,-0.809,-1.1584,-1.1584,-1.1584,-1.1584,-1.1584,-1.1584,-1.1584,1.8205,1.8359,1.8722,1.9533,1.921,1.8664,1.8093,1.874,1.9176,1.8878,1.9863,2.1029,2.213,2.217,2.2676,2.4055,2.3803,2.3874,2.4617,2.3459,2.3759,2.604,2.3423,2.2245,2.3002,2.1173,1.9804,1.8906,1.844,1.8303,1.8477,1.8557,1.8927,1.9551,2.0371,1.9994,1.8897,2.0519,1.9861,1.7733,1.7733,1.7501,1.7231,1.7247,1.752,1.7831,1.7659,1.7608,1.7608,1.7608,1.8173,1.8734,1.7871,1.8423,1.9234,1.8311,1.8306,1.8786,1.9829,1.9216,1.8852,2.1172,2.0178,1.9101,2.0837,2.0584,1.9902,1.975,1.9563,1.9259,1.8781,1.7295,1.617,0.0,0.0,0.0,0.0,1.4103,1.4103,1.4103,1.4103,1.4097,1.4138,1.3885,1.2963,1.1173,1.097,1.0342,0.8968,0.9088,0.9408,0.9778,1.012,1.0315,1.0315,0.994,0.8268,0.5396,0.476,0.2887,0.0,0.0,0.0,-0.0035,-0.0721,-0.2838,-0.5844,-0.6532,-0.8709,-1.1584,-1.1584,-1.1584,-1.1584,-1.1584,-1.1584,-1.1584,1.8637,1.8986,1.9023,1.8223,1.8049,1.8049,1.8049,1.8769,1.9022,1.8242,1.9608,2.1231,2.2754,2.2714,2.3521,2.582,2.5014,2.4391,2.4391,2.3714,2.3636,2.4391,2.3714,2.3264,2.3225,2.2365,2.1466,2.0605,1.9279,1.8869,1.9296,1.8869,1.9122,1.9903,1.9923,1.9288,1.824,1.8813,1.8132,1.6714,1.674,1.6752,1.6789,1.6765,1.7388,1.8226,1.7784,1.7608,1.7608,1.7608,1.7608,1.7608,1.7608,1.7608,1.7608,1.7608,1.7608,1.7884,1.9135,1.8901,1.88,2.1024,2.0321,1.9612,2.1814,2.1626,2.0904,2.0509,1.9978,1.9174,1.787,1.6288,1.5281,0.0,0.0,0.0,1.4103,1.4103,1.4103,1.4103,1.4039,1.3664,1.2752,1.3973,1.3364,0.9832,1.0902,1.0872,0.8996,0.8899,0.9176,0.9751,1.0114,1.0315,1.0315,0.8782,0.7131,0.5362,0.3557,0.1747,0.0,0.0,0.0,-0.0105,-0.2051,-0.3996,-0.5953,-0.7905,-0.9831,-1.1584,-1.1584,-1.1584,-1.1584,-1.1584,-1.1584,-1.1584,1.9121,1.9219,1.9237,1.9022,1.8965,1.8965,1.8965,1.9159,1.9452,1.9882,2.0879,2.194,2.2941,2.3553,2.4176,2.4788,2.4575,2.4391,2.4391,2.4535,2.4691,2.4906,2.4711,2.43,2.3655,2.2502,2.1466,2.0605,1.9608,1.918,1.9297,1.9474,1.9688,1.9922,2.0254,1.9602,1.8224,1.8382,1.7756,1.674,1.7181,1.7573,1.785,1.749,1.7763,1.8226,1.7784,1.7608,1.7608,1.7608,1.7608,1.7608,1.7608,1.7608,1.7608,1.7608,1.7608,1.7687,1.8015,1.7958,1.8161,1.9737,1.9324,1.8931,2.0561,2.0242,1.9577,1.9494,1.9351,1.8985,1.8197,1.7038,1.611,1.5771,0.0,0.0,1.4103,1.4103,1.4103,1.4103,1.3315,1.3009,1.3643,1.2739,1.1706,1.0752,0.9638,0.8877,0.8607,0.8791,0.9082,0.9483,1.0005,1.0315,1.0315,0.8782,0.7131,0.5362,0.3557,0.1747,0.0,0.0,0.0,-0.0105,-0.2051,-0.3996,-0.5953,-0.7905,-0.9831,-1.1584,-1.1584,-1.1584,-1.1584,-1.1584,-1.1584,-1.1584,1.9551,1.9726,1.9862,1.9862,1.9862,1.9862,1.9862,2.0195,2.0625,2.1094,2.2227,2.3105,2.3376,2.418,2.4785,2.4957,2.4976,2.4976,2.4976,2.5215,2.5352,2.5352,2.5352,2.5137,2.4648,2.3555,2.2559,2.1699,2.0644,2.0039,1.9862,1.9902,2.0019,2.0234,2.0468,1.9831,1.8519,1.8075,1.7558,1.7061,1.7157,1.735,0.0,1.7304,1.7526,1.7958,1.7697,1.7608,1.7608,1.7608,1.7608,1.7608,1.7608,1.7608,1.7608,1.7608,1.7608,1.7608,1.7608,1.7608,1.7793,1.8525,1.8374,1.8358,1.975,1.9662,1.9323,1.9323,1.9097,1.8644,1.7702,1.6635,1.5704,1.5098,1.4489,1.4103,1.4103,1.4103,1.4103,1.4103,1.3485,1.3358,1.4039,1.2338,1.0967,1.0436,0.9445,0.8805,0.8682,0.8716,0.8933,0.9396,0.9836,0.9702,0.8897,0.7535,0.5959,0.4213,0.237,0.0975,0.0,0.0,0.0,-0.014,-0.2948,-0.4794,-0.6025,-0.8817,-1.0599,-1.1584,-1.1584,-1.1584,-1.1584,-1.1584,-1.1584,-1.1584,2.0,2.0332,2.0644,2.0762,2.0683,2.0723,2.1055,2.1563,2.1954,2.2031,2.3437,2.4277,2.3906,2.4672,2.5312,2.5679,2.5693,2.5693,2.5693,2.5693,2.5693,2.5693,2.5693,2.5693,2.5693,2.484,2.3981,2.3101,2.1893,2.1055,2.0605,2.0176,2.0195,2.0605,2.0605,1.9979,1.8846,1.7895,1.7457,1.7354,1.6963,1.682,1.682,1.682,1.7141,1.7608,1.7608,1.7608,1.7608,1.7608,1.7608,1.7608,1.7608,1.7608,1.7608,1.7608,1.7608,1.7608,1.7608,1.7608,1.7608,1.7608,1.7608,1.791,1.9072,1.9343,1.9343,1.9343,1.8926,1.8191,1.6939,1.5775,1.4834,1.4303,1.4156,1.4039,1.3891,1.3894,1.3907,1.387,1.3774,0.0,1.4127,1.256,1.1016,0.9815,0.9875,0.9656,0.8818,0.8608,0.875,0.9274,0.9625,0.9056,0.7458,0.6078,0.4604,0.3039,0.0963,0.0,0.0,0.0,0.0,-0.0211,-0.4097,-0.5808,-0.6098,-0.9981,-1.1584,-1.1584,-1.1584,-1.1584,-1.1584,-1.1584,-1.1584,-1.1584,2.0468,2.0527,2.084,2.1544,2.1075,2.1309,2.3418,2.2695,2.2129,2.281,2.3767,2.4371,2.4293,2.5074,2.562,2.5674,2.5693,2.5693,2.5693,2.5693,2.5693,2.5693,2.5693,2.5693,2.5693,2.484,2.3981,2.3101,2.2227,2.1368,2.0605,2.0527,2.0508,2.0605,2.0605,1.9762,1.8296,1.7743,1.7237,1.6866,1.7298,1.7435,1.7435,1.7435,1.7515,1.7608,1.7608,1.7608,1.7608,1.7608,1.7608,1.7608,1.7608,1.7608,1.7608,1.7608,1.7608,1.7608,1.7608,1.7608,1.7608,1.7608,1.7608,1.7661,1.7898,1.7937,1.7937,1.7937,1.7855,1.7559,1.6844,1.5775,1.4981,1.4852,1.4424,1.3752,1.276,1.2841,1.2938,1.2637,1.2037,1.235,1.4239,1.3391,1.2187,1.0908,1.0305,0.9466,0.8213,0.8377,0.8553,0.8662,0.9408,0.9643,0.9318,0.6724,0.5248,0.4893,0.1575,0.0,0.0,0.0,0.0,-0.0211,-0.4097,-0.5808,-0.6098,-0.9981,-1.1584,-1.1584,-1.1584,-1.1584,-1.1584,-1.1584,-1.1584,-1.1584,2.0605,2.0605,2.0742,2.1153,2.125,2.1837,2.3474,2.3415,2.3516,2.4329,2.482,2.5074,2.5074,2.5464,2.5693,2.5693,2.5693,2.5693,2.5693,2.5693,2.5693,2.5693,2.5693,2.5693,2.5693,2.5289,2.443,2.3101,2.2734,2.1916,2.0605,2.0605,2.0605,2.0586,2.0298,1.9748,1.8985,1.8225,1.778,1.754,1.7575,1.7608,1.7608,1.7608,1.7608,1.7608,1.7608,1.7608,1.7608,1.7608,1.7608,1.7608,1.7608,1.7608,1.7608,1.7608,1.7608,1.7608,1.7608,1.7608,1.7608,1.7608,1.7608,1.7608,1.7608,1.7608,1.7608,1.7608,1.7608,1.7434,1.682,1.6246,1.5552,1.4492,1.3933,1.3175,1.186,1.182,1.1871,1.1787,1.1451,1.1654,1.2836,1.3101,1.2674,1.1388,1.0509,0.949,0.8313,0.8262,0.8397,0.871,0.8382,0.7818,0.705,0.5038,0.3538,0.2571,0.0829,0.0,0.0,0.0,0.0,-0.0211,-0.4097,-0.5808,-0.6098,-0.9981,-1.1584,-1.1584,-1.1584,-1.1584,-1.1584,-1.1584,-1.1584,-1.1584,2.1114,2.1016,2.0918,2.1134,2.1563,2.2227,2.324,2.3962,2.4703,2.5601,2.5693,2.5693,2.5693,2.5693,2.5693,2.5693,2.5693,2.5693,2.5693,2.5693,2.5693,2.5693,2.5693,2.5693,2.5693,2.5693,2.4933,2.3396,2.3242,2.2345,2.0723,2.0644,2.0527,2.0405,1.9986,1.9673,1.9421,1.8638,1.8251,1.8125,1.7746,1.7608,1.7608,1.7608,1.7608,1.7608,1.7608,1.7608,1.7608,1.7608,1.7608,1.7608,1.7608,1.7608,1.7608,1.7608,1.7608,1.7608,1.7608,1.7608,1.7608,1.7608,1.7608,1.7608,1.7608,1.7608,1.7608,1.7608,1.7608,1.7435,1.6981,1.6794,1.6128,1.4413,1.3601,1.2689,1.1209,1.1155,1.1185,1.0958,1.1497,1.1819,1.1609,1.27,1.2782,1.1287,1.0712,0.9837,0.857,0.8175,0.8263,0.8798,0.7443,0.615,0.4968,0.3473,0.1991,0.0566,0.0198,0.0,0.0,0.0,-0.021,-0.0807,-0.4277,-0.6279,-0.7259,-1.0341,-1.1584,-1.1584,-1.1584,-1.1584,-1.1584,-1.1584,-1.1584,-1.1584,2.2795,2.2306,2.2032,2.2836,2.2365,2.2441,2.402,2.4332,2.4703,2.5601,2.5693,2.5693,2.5693,2.5693,2.5693,2.5693,2.5693,2.5693,2.5693,2.5693,2.5693,2.5693,2.5693,2.5693,2.5693,2.5693,2.5249,2.4274,2.3493,2.2418,2.1152,2.0781,2.034,1.9856,1.9822,1.929,1.8428,1.8341,1.8059,1.7659,1.7608,1.7608,1.7608,1.7608,1.7608,1.7608,1.7608,1.7608,1.7608,1.7608,1.7608,1.7608,1.7608,1.7608,1.7608,1.7608,1.7608,1.7608,1.7608,1.7608,1.7608,1.7608,1.7608,1.7608,1.7608,1.7608,1.7608,1.7608,1.7608,1.7595,1.7541,1.7061,1.6464,1.5734,1.4263,1.2597,1.088,1.1328,1.1289,0.9827,1.2131,1.3314,1.1994,1.2798,1.2494,1.0294,1.1127,1.0778,0.8622,0.8175,0.8162,0.8513,0.733,0.6647,0.6498,0.3966,0.261,0.2432,0.0771,0.0,0.0,0.0,-0.0946,-0.2733,-0.4887,-0.7801,-1.1074,-1.144,-1.1584,-1.1584,-1.1584,-1.1584,-1.1584,-1.1584,-1.1584,-1.1584,2.2988,2.2849,2.2732,2.3086,2.3281,2.3633,2.4293,2.484,2.5308,2.5635,2.5693,2.5693,2.5693,2.5693,2.5693,2.5693,2.5693,2.5693,2.5693,2.5693,2.5693,2.5693,2.5693,2.5693,2.5693,2.5693,2.5269,2.4391,2.3574,2.2891,2.2383,2.0838,1.9865,1.9374,1.9032,1.8672,1.8291,1.8003,1.777,1.7608,1.7608,1.7608,1.7608,1.7608,1.7608,1.7608,1.7608,1.7608,1.7608,1.7608,1.7608,1.7608,1.7608,1.7608,1.7608,1.7608,1.7608,1.7608,1.7608,1.7608,1.7608,1.7608,1.7608,1.7608,1.7608,1.7608,1.7608,1.7608,1.7608,1.7608,1.7608,1.7395,1.6535,1.435,1.3404,1.1997,0.9194,0.9469,0.9634,0.8716,0.9934,1.0644,1.0161,1.0858,1.0739,0.9221,1.012,1.0012,0.8284,0.8275,0.8445,0.8723,0.6556,0.5461,0.5606,0.2616,0.107,0.1083,0.0334,0.0,0.0,0.0,-0.1695,-0.4759,-0.6681,-0.9069,-1.1584,-1.1584,-1.1584,-1.1584,-1.1584,-1.1584,-1.1584,-1.1584,-1.1584,-1.1584,2.3686,2.3647,2.3471,2.3471,2.4001,2.4391,2.4391,2.5152,2.5693,2.5693,2.5693,2.5693,2.5693,2.5693,2.5693,2.5693,2.5693,2.5693,2.5693,2.5693,2.5693,2.5693,2.5693,2.5693,2.5693,2.5693,2.5406,2.4781,2.356,2.2901,2.2745,2.0454,1.9218,1.884,1.8471,1.823,1.8056,1.7733,1.7608,1.7608,1.7608,1.7608,1.7608,1.7608,1.7608,1.7608,1.7608,1.7608,1.7608,1.7608,1.7608,1.7608,1.7608,1.7608,1.7608,1.7608,1.7608,1.7608,1.7608,1.7608,1.7608,1.7608,1.7608,1.7608,1.7608,1.7608,1.7608,1.7608,1.7608,1.7608,1.7608,1.7608,1.6664,1.3784,1.307,1.1763,0.8592,0.8885,0.9212,0.87,0.9748,1.0235,0.9546,1.0223,1.0095,0.8622,0.9144,0.9143,0.8192,0.7898,0.7908,0.8192,0.5318,0.3867,0.4032,0.1347,0.0,0.0,0.0,0.0,-0.0034,-0.1176,-0.3191,-0.5953,-0.8451,-1.0341,-1.1584,-1.1584,-1.1584,-1.1584,-1.1584,-1.1584,-1.1584,-1.1584,-1.1584,-1.1584,2.5503,2.4976,2.4371,2.4371,2.4391,2.4391,2.4391,2.5152,2.5693,2.5693,2.5693,2.5693,2.5693,2.5693,2.5693,2.5693,2.5693,2.5693,2.5693,2.5693,2.5693,2.5693,2.5693,2.5693,2.5693,2.5693,2.5674,2.5674,2.3481,2.22,2.1777,1.9479,1.838,1.8311,1.8287,1.8048,1.7621,1.7608,1.7608,1.7608,1.7608,1.7608,1.7608,1.7608,1.7608,1.7608,1.7608,1.7608,1.7608,1.7608,1.7608,1.7608,1.7608,1.7608,1.7608,1.7608,1.7608,1.7608,1.7608,1.7608,1.7608,1.7608,1.7608,1.7608,1.7608,1.7608,1.7608,1.7608,1.7608,1.7608,1.7608,1.7608,1.6938,1.492,1.3687,1.217,0.9824,1.0388,1.0844,1.0247,1.2864,1.371,1.113,1.1784,1.1285,0.8689,0.8505,0.8505,0.8505,0.6918,0.6185,0.6516,0.3613,0.2035,0.2025,0.0668,0.0,0.0,0.0,0.0,-0.0135,-0.3967,-0.5771,-0.6025,-0.9873,-1.1584,-1.1584,-1.1584,-1.1584,-1.1584,-1.1584,-1.1584,-1.1584,-1.1584,-1.1584,-1.1584,2.5542,2.5484,2.5289,2.5289,2.5289,2.5289,2.5289,2.5523,2.5693,2.5693,2.5693,2.5693,2.5693,2.5693,2.5693,2.5693,2.5693,2.5693,2.5693,2.5693,2.5693,2.5693,2.5693,2.5693,2.5693,2.5693,2.5693,2.5693,2.3476,2.1397,1.9413,1.9272,1.8714,1.7805,1.7805,1.7733,1.7608,1.7608,1.7608,1.7608,1.7608,1.7608,1.7608,1.7608,1.7608,1.7608,1.7608,1.7608,1.7608,1.7608,1.7608,1.7608,1.7608,1.7608,1.7608,1.7608,1.7608,1.7608,1.7608,1.7608,1.7608,1.7608,1.7608,1.7608,1.7608,1.7608,1.7608,1.7608,1.7608,1.7608,1.7608,1.6764,1.5517,1.3785,1.2571,1.1136,0.9101,0.9377,0.9638,0.9239,1.0122,1.0547,0.9944,0.9949,0.9679,0.8845,0.8764,0.8184,0.6869,0.652,0.5982,0.5164,0.3316,0.2342,0.2343,0.0791,0.0,0.0,0.0,0.0,-0.0138,-0.4036,-0.5806,-0.6025,-0.9909,-1.1584,-1.1584,-1.1584,-1.1584,-1.1584,-1.1584,-1.1584,-1.1584,-1.1584,-1.1584,-1.1584,2.5577,2.5693,2.5693,2.5693,2.5693,2.5693,2.5693,2.5693,2.5693,2.5693,2.5693,2.5693,2.5693,2.5693,2.5693,2.5693,2.5693,2.5693,2.5693,2.5693,2.5693,2.5693,2.5693,2.5693,2.5693,2.5693,2.5693,2.5693,2.3317,2.0737,1.8037,1.8574,1.8408,1.7608,1.7608,1.7608,1.7608,1.7608,1.7608,1.7608,1.7608,1.7608,1.7608,1.7608,1.7608,1.7608,1.7608,1.7608,1.7608,1.7608,1.7608,1.7608,1.7608,1.7608,1.7608,1.7608,1.7608,1.7608,1.7608,1.7608,1.7608,1.7608,1.7608,1.7608,1.7608,1.7608,1.7608,1.7608,1.7608,1.7608,1.7608,1.6453,1.4995,1.3446,1.2228,1.086,0.9029,0.9152,0.9452,0.9514,0.9688,0.9879,1.0076,0.9916,0.9602,0.9131,0.8973,0.8149,0.6416,0.5973,0.5073,0.3598,0.2261,0.1567,0.1551,0.0513,0.0,0.0,0.0,0.0,-0.014,-0.4016,-0.5806,-0.6025,-0.9909,-1.1584,-1.1584,-1.1584,-1.1584,-1.1584,-1.1584,-1.1584,-1.1584,-1.1584,-1.1584,-1.1584,2.5693,2.5693,2.5693,2.5693,2.5693,2.5693,2.5693,2.5693,2.5693,2.5732,2.5757,2.5776,2.5796,2.5796,2.5796,2.5796,2.5752,2.5713,2.5693,2.5713,2.5713,2.5693,2.5693,2.5693,2.5693,2.5693,2.5601,2.543,2.2918,2.0282,1.7608,1.7608,1.7608,1.7608,1.7608,1.7608,1.7608,1.7608,1.7608,1.7608,1.7608,1.7608,1.7608,1.7608,1.7608,1.7608,1.7608,1.7608,1.7608,1.7608,1.7608,1.7608,1.7608,1.7608,1.7608,1.7608,1.7608,1.7608,1.7608,1.7608,1.7608,1.7608,1.7608,1.7608,1.7608,1.7608,1.7608,1.7608,1.7595,1.7635,1.7635,1.6493,1.5132,1.376,1.2486,1.1092,0.9432,0.953,1.0022,1.0694,1.1033,1.1187,1.1183,1.1191,1.0692,0.9497,0.9115,0.8357,0.6937,0.5504,0.3939,0.2254,0.0874,0.018,0.0186,0.0064,0.0,0.0,0.0,0.0,-0.014,-0.4016,-0.5806,-0.6025,-0.9909,-1.1584,-1.1584,-1.1584,-1.1584,-1.1584,-1.1584,-1.1584,-1.1584,-1.1584,-1.1584,-1.1584,2.5693,2.5693,2.5693,2.5693,2.5693,2.5693,2.5693,2.5693,2.5835,2.6191,2.623,2.6348,2.6654,2.6693,2.6693,2.6693,2.6426,2.6094,2.5713,2.6055,2.6069,2.5718,2.5693,2.5693,2.5693,2.5693,2.4707,2.2642,2.1996,2.0282,1.7608,1.7608,1.7608,1.7608,1.7608,1.7608,1.7608,1.7608,1.7608,1.7608,1.7608,1.7608,1.7608,1.7608,1.7608,1.7608,1.7608,1.7608,1.7608,1.7608,1.7608,1.7608,1.7608,1.7608,1.7608,1.7608,1.7608,1.7608,1.7608,1.7608,1.7608,1.7608,1.7608,1.7608,1.7608,1.7608,1.7608,1.7608,1.7769,1.7916,1.7916,1.594,1.4251,1.4073,1.182,0.995,0.9412,0.9444,0.9545,0.9745,0.9824,0.993,1.0135,1.0164,0.9946,0.9424,0.9523,0.8705,0.6707,0.6667,0.5945,0.4271,0.2729,0.1897,0.1911,0.0624,0.0,0.0,0.0,0.0,-0.014,-0.4016,-0.5806,-0.6025,-0.9909,-1.1584,-1.1584,-1.1584,-1.1584,-1.1584,-1.1584,-1.1584,-1.1584,-1.1584,-1.1584,-1.1584,2.5693,2.5693,2.5693,2.5693,2.5874,2.601,2.601,2.6167,2.6381,2.6641,2.668,2.6758,2.6992,2.6986,2.6986,2.6986,2.6797,2.6582,2.6303,2.6543,2.6562,2.6303,2.6303,2.6206,2.601,2.601,2.4597,2.1693,2.1075,1.9664,1.7608,1.7608,1.7608,1.7608,1.7608,1.7608,1.7608,1.7608,1.7608,1.7608,1.7608,1.7608,1.7608,1.7608,1.7608,1.7608,1.7608,1.7608,1.7608,1.7608,1.7608,1.7608,1.7608,1.7608,1.7608,1.7608,1.7608,1.7608,1.7608,1.7608,1.7608,1.7608,1.7608,1.7608,1.7608,1.7608,1.7622,1.7769,1.7902,1.7805,1.7239,1.544,1.3826,1.3189,1.1088,0.9476,0.9424,0.941,0.941,0.941,0.9503,0.9646,0.9771,0.9792,0.9754,0.9591,0.9605,0.9147,0.8061,0.8207,0.721,0.4781,0.3266,0.2507,0.2507,0.0829,0.0,0.0,0.0,0.0,-0.0139,-0.4041,-0.5789,-0.6012,-0.9916,-1.1584,-1.1584,-1.1584,-1.1584,-1.1584,-1.1584,-1.1584,-1.1584,-1.1584,-1.1584,-1.1584,2.5815,2.583,2.5913,2.5913,2.623,2.6484,2.6484,2.6777,2.7031,2.7109,2.7109,2.7129,2.7207,2.7207,2.7207,2.7207,2.7207,2.7123,2.7031,2.707,2.7064,2.6986,2.6986,2.6855,2.6484,2.6206,2.4626,2.1693,2.0282,1.8916,1.7608,1.7608,1.7608,1.7608,1.7608,1.7608,1.7608,1.7608,1.7608,1.7608,1.7608,1.7608,1.7608,1.7608,1.7608,1.7608,1.7608,1.7608,1.7608,1.7608,1.7608,1.7608,1.7608,1.7608,1.7608,1.7608,1.7608,1.7608,1.7608,1.7608,1.7608,1.7608,1.7608,1.7608,1.7608,1.7608,1.7675,1.7929,1.8035,1.7664,1.6406,1.5113,1.3791,1.2314,1.0587,0.9448,0.9601,0.9492,0.941,0.941,0.9639,0.9792,0.9792,0.9792,0.9792,0.9792,0.9591,0.9537,0.9741,0.9557,0.8154,0.5331,0.3707,0.2608,0.2137,0.0697,0.0,0.0,0.0,0.0,-0.0137,-0.4026,-0.58,-0.6019,-0.9923,-1.1584,-1.1584,-1.1584,-1.1584,-1.1584,-1.1584,-1.1584,-1.1584,-1.1584,-1.1584,-1.1584,2.6289,2.6582,2.6791,2.6791,2.6875,2.6914,2.6914,2.6947,2.7148,2.7545,2.7585,2.7721,2.8047,2.8086,2.8086,2.8086,2.8086,2.7793,2.707,2.7363,2.7402,2.7006,2.6986,2.6967,2.6914,2.542,2.3657,2.1693,2.0282,1.8916,1.7608,1.7608,1.7608,1.7608,1.7608,1.7608,1.7608,1.7608,1.7608,1.7608,1.7608,1.7608,1.7608,1.7608,1.7608,1.7608,1.7608,1.7608,1.7608,1.7608,1.7608,1.7608,1.7608,1.7608,1.7608,1.7608,1.7608,1.7608,1.7608,1.7608,1.7608,1.7608,1.7608,1.7608,1.7608,1.7608,1.7675,1.7929,1.8223,1.8019,1.6679,1.5391,1.428,1.3518,1.1158,0.9688,1.0544,0.9951,0.941,0.941,0.9639,0.9792,0.9792,0.9792,0.9792,0.9792,0.9751,0.9666,0.9462,0.9639,0.9394,0.8655,0.5974,0.3187,0.0401,0.0134,0.0,0.0,0.0,0.0,-0.0137,-0.4026,-0.58,-0.6019,-0.9923,-1.1584,-1.1584,-1.1584,-1.1584,-1.1584,-1.1584,-1.1584,-1.1584,-1.1584,-1.1584,-1.1584,2.6719,2.685,2.6986,2.6986,2.7207,2.7389,2.7389,2.7559,2.7773,2.7969,2.8034,2.8093,2.8262,2.8301,2.8301,2.8301,2.8301,2.8125,2.7734,2.7891,2.7936,2.7715,2.7695,2.7598,2.7363,2.4801,2.297,2.2033,1.9818,1.8339,1.7608,1.7608,1.7608,1.7608,1.7608,1.7608,1.7608,1.7608,1.7608,1.7608,1.7608,1.7608,1.7608,1.7608,1.7608,1.7608,1.7608,1.7608,1.7608,1.7608,1.7608,1.7608,1.7608,1.7608,1.7608,1.7608,1.7608,1.7608,1.7608,1.7608,1.7608,1.7608,1.7608,1.7608,1.7608,1.7716,1.7889,1.8223,1.8517,1.8051,1.5868,1.5001,1.3898,1.1718,1.0264,0.9502,0.9798,0.9582,0.941,0.941,0.9639,0.9792,0.9792,0.9792,0.9792,0.9792,0.9792,0.9761,0.9625,0.9747,0.9362,0.8355,0.6085,0.3323,0.0034,0.0,0.0,0.0,0.0,0.0,-0.0136,-0.4013,-0.5813,-0.6028,-0.9929,-1.1584,-1.1584,-1.1584,-1.1584,-1.1584,-1.1584,-1.1584,-1.1584,-1.1584,-1.1584,-1.1584,2.7168,2.7246,2.7305,2.7305,2.7598,2.7839,2.7839,2.8086,2.8301,2.8301,2.8014,2.7933,2.8274,2.7987,2.7933,2.8254,2.8301,2.8301,2.8301,2.8301,2.8301,2.8301,2.8301,2.7953,2.7165,2.4341,2.254,2.1891,1.9288,1.7902,1.7689,1.7635,1.7608,1.7608,1.7608,1.7608,1.7608,1.7608,1.7608,1.7608,1.7608,1.7608,1.7608,1.7608,1.7608,1.7608,1.7608,1.7608,1.7608,1.7608,1.7608,1.7608,1.7608,1.7608,1.7608,1.7608,1.7608,1.7608,1.7608,1.7608,1.7608,1.7608,1.7608,1.7608,1.7608,1.7822,1.8103,1.8424,1.8718,1.8014,1.5121,1.4599,1.3573,1.0353,0.9584,0.9415,0.9461,0.9432,0.9437,0.9476,0.9686,0.9792,0.9792,0.9792,0.9792,0.9792,0.9792,0.9792,0.9792,0.9792,0.8897,0.6879,0.5199,0.2933,0.0034,0.0,0.0,0.0,0.0,0.0,-0.0135,-0.4035,-0.5792,-0.6012,-0.9906,-1.1584,-1.1584,-1.1584,-1.1584,-1.1584,-1.1584,-1.1584,-1.1584,-1.1584,-1.1584,-1.1584,2.7643,2.7956,2.8203,2.8203,2.8223,2.8242,2.8242,2.8281,2.8301,2.8301,2.7114,2.6771,2.8147,2.7087,2.6798,2.8174,2.8301,2.8301,2.8301,2.8301,2.8301,2.8301,2.8301,2.7454,2.5628,2.41,2.2456,2.0623,1.8862,1.7982,1.7982,1.7716,1.7608,1.7608,1.7608,1.7608,1.7608,1.7608,1.7608,1.7608,1.7608,1.7608,1.7608,1.7608,1.7608,1.7608,1.7608,1.7608,1.7608,1.7608,1.7608,1.7608,1.7608,1.7608,1.7608,1.7608,1.7608,1.7608,1.7608,1.7608,1.7608,1.7608,1.7608,1.7608,1.7608,1.7822,1.8103,1.8424,1.8718,1.8014,1.5121,1.4599,1.3839,1.1525,1.0185,0.9802,1.0974,1.0141,0.9483,0.9754,0.9778,0.9792,0.9792,0.9792,0.9792,0.9792,0.9792,0.9792,0.9792,0.9792,0.836,0.5177,0.353,0.1826,0.0034,0.0,0.0,0.0,0.0,0.0,-0.0135,-0.4035,-0.5792,-0.6012,-0.9906,-1.1584,-1.1584,-1.1584,-1.1584,-1.1584,-1.1584,-1.1584,-1.1584,-1.1584,-1.1584,-1.1584,2.8073,2.821,2.8301,2.8301,2.8301,2.8301,2.8301,2.8301,2.8301,2.8301,2.7014,2.6662,2.8147,2.696,2.6689,2.8174,2.8301,2.8301,2.8301,2.8301,2.8301,2.8301,2.8301,2.7542,2.5865,2.4395,2.2754,2.0871,1.9153,1.8196,1.7982,1.7729,1.7608,1.7608,1.7608,1.7608,1.7608,1.7608,1.7608,1.7608,1.7608,1.7608,1.7608,1.7608,1.7608,1.7608,1.7608,1.7608,1.7608,1.7608,1.7608,1.7608,1.7608,1.7608,1.7608,1.7608,1.7608,1.7608,1.7608,1.7608,1.7608,1.7608,1.7608,1.7608,1.7608,1.7969,1.8068,1.7176,1.7379,1.6768,1.3687,1.3108,1.2447,1.0461,0.9854,0.9762,1.0091,0.9854,0.9693,0.9778,0.9792,0.9792,0.9792,0.9792,0.9792,0.9792,0.9792,0.9792,0.9792,0.9792,0.8304,0.5003,0.4301,0.2705,0.0034,0.0,0.0,0.0,0.0,0.0,-0.0135,-0.4035,-0.5792,-0.6012,-0.9906,-1.1584,-1.1584,-1.1584,-1.1584,-1.1584,-1.1584,-1.1584,-1.1584,-1.1584,-1.1584,-1.1584,2.8301,2.8301,2.8301,2.8301,2.7933,2.7618,2.7618,2.7195,2.6898,2.6898,2.559,2.5261,2.6717,2.558,2.548,2.7438,2.7618,2.7807,2.8254,2.8301,2.8301,2.8301,2.786,2.6906,2.5398,2.3905,2.2283,2.057,1.9249,1.8449,1.8156,1.7876,1.7675,1.7608,1.7608,1.7608,1.7608,1.7608,1.7608,1.7608,1.7608,1.7608,1.7608,1.7608,1.7608,1.7608,1.7608,1.7608,1.7608,1.7608,1.7608,1.7608,1.7608,1.7608,1.7608,1.7608,1.7608,1.7608,1.7608,1.7608,1.7608,1.7608,1.7608,1.7608,1.7608,1.7684,1.7424,1.6338,1.6178,1.5429,1.2689,1.2217,1.1603,0.9816,0.9686,0.9747,0.9551,0.9693,0.9792,0.9792,0.9792,0.9792,0.9792,0.9792,0.9792,0.9792,0.9792,0.9792,0.9792,0.9329,0.7774,0.5003,0.4397,0.2802,0.0034,0.0,0.0,0.0,0.0,0.0,-0.0135,-0.4035,-0.5792,-0.6012,-0.9906,-1.1584,-1.1584,-1.1584,-1.1584,-1.1584,-1.1584,-1.1584,-1.1584,-1.1584,-1.1584,-1.1584,2.8301,2.8281,2.8301,2.8301,2.706,2.6073,2.6073,2.4793,2.3794,2.3794,2.2505,2.2166,2.3627,2.2476,2.2814,2.5827,2.61,2.6717,2.8174,2.8301,2.8301,2.8274,2.6852,2.5371,2.3822,2.2335,2.0888,1.9401,1.9065,1.8743,1.8477,1.8156,1.7849,1.7608,1.7608,1.7608,1.7608,1.7608,1.7608,1.7608,1.7608,1.7608,1.7608,1.7608,1.7608,1.7608,1.7608,1.7608,1.7608,1.7608,1.7608,1.7608,1.7608,1.7582,1.7582,1.7608,1.7582,1.7582,1.7582,1.7582,1.7582,1.7582,1.7582,1.7582,1.7582,1.679,1.6086,1.6058,1.5272,1.4093,1.2487,1.2187,1.1645,1.0058,0.9792,0.9792,0.9792,0.9792,0.9792,0.9792,0.9792,0.9792,0.9792,0.9792,0.9792,0.9792,0.9792,0.9792,0.9792,0.8282,0.6624,0.4939,0.334,0.1696,0.0,0.0,0.0,0.0,0.0,0.0,-0.0135,-0.4035,-0.5792,-0.6012,-0.9906,-1.1584,-1.1584,-1.1584,-1.1584,-1.1584,-1.1584,-1.1584,-1.1584,-1.1584,-1.1584,-1.1584,2.8301,2.7484,2.6771,2.6771,2.5498,2.4488,2.4488,2.41,2.3794,2.3794,2.2505,2.2166,2.3627,2.2476,2.2392,2.4322,2.548,2.6291,2.6744,2.6771,2.6264,2.5196,2.5772,2.4903,2.2307,2.1841,2.0888,1.9401,1.9065,1.8743,1.8477,1.8156,1.7849,1.7608,1.7608,1.7608,1.7608,1.7608,1.7608,1.7608,1.7608,1.7608,1.7608,1.7608,1.7608,1.7608,1.7608,1.7608,1.7608,1.7608,1.7608,1.7608,1.7608,1.6896,1.626,1.7305,1.618,1.4797,1.5796,1.5343,1.4824,1.5823,1.6062,1.5796,1.4797,1.4575,1.4243,1.3098,1.2885,1.2419,1.0808,1.0513,1.0361,0.9883,0.9792,0.9792,0.9792,0.9792,0.9792,0.9792,0.9792,0.9792,0.9792,0.9792,0.9792,0.9792,0.9792,0.9792,0.9792,0.8282,0.6624,0.4939,0.334,0.1696,0.0,0.0,0.0,0.0,0.0,0.0,-0.0135,-0.4035,-0.5792,-0.6012,-0.9906,-1.1584,-1.1584,-1.1584,-1.1584,-1.1584,-1.1584,-1.1584,-1.1584,-1.1584,-1.1584,-1.1584,2.7538,2.6717,2.5909,2.5288,2.3933,2.2927,2.2927,2.2435,2.2068,2.2068,2.1287,2.1059,2.1955,2.1259,2.1316,2.2786,2.4875,2.61,2.61,2.61,2.5151,2.3011,2.3822,2.3487,2.1643,2.1031,2.0285,1.9401,1.9185,1.8945,1.8651,1.8329,1.8036,1.7756,1.7662,1.7608,1.7608,1.7608,1.7608,1.7608,1.7608,1.7608,1.7608,1.7608,1.7608,1.7608,1.7608,1.7608,1.7608,1.7608,1.7199,1.6631,1.6062,1.5289,1.4743,1.5636,1.4663,1.348,1.4341,1.3938,1.3372,1.3642,1.4153,1.4341,1.348,1.3068,1.2607,1.1691,1.1318,1.0883,0.996,0.9792,0.9792,0.9792,0.9792,0.9792,0.9792,0.9792,0.9792,0.9792,0.9792,0.9792,0.9792,0.9792,0.9792,0.9792,0.9792,0.9792,0.9792,0.8282,0.6624,0.4939,0.334,0.1696,0.0,0.0,0.0,0.0,0.0,-0.037,-0.1177,-0.4345,-0.6175,-0.7057,-1.0226,-1.1584,-1.1584,-1.1584,-1.1584,-1.1584,-1.1584,-1.1584,-1.1584,-1.1584,-1.1584,-1.1584,2.6372,2.5991,2.5398,2.3877,2.2363,2.1387,2.1387,2.0256,1.9401,1.9401,1.9401,1.9401,1.9401,1.9401,1.9953,2.1287,2.4044,2.5717,2.5717,2.5717,2.4405,2.1529,2.1387,2.1387,2.1387,2.0097,1.9401,1.9401,1.9401,1.9212,1.889,1.8624,1.833,1.7982,1.7716,1.7608,1.7608,1.7608,1.7608,1.7608,1.7608,1.7608,1.7608,1.7608,1.7608,1.7608,1.7608,1.7608,1.7582,1.745,1.6419,1.4984,1.3696,1.321,1.3129,1.3264,1.3102,1.294,1.3075,1.3021,1.2588,1.1237,1.1919,1.2913,1.2913,1.1981,1.1141,1.1273,1.0398,0.9652,0.9765,0.9792,0.9792,0.9792,0.9792,0.9792,0.9792,0.9792,0.9792,0.9792,0.9792,0.9792,0.9792,0.9792,0.9792,0.9792,0.9792,0.9792,0.9792,0.813,0.6469,0.4939,0.3181,0.1534,0.0,0.0,0.0,0.0,0.0,-0.0941,-0.2754,-0.4856,-0.6762,-0.863,-1.0683,-1.1606,-1.1584,-1.1584,-1.1584,-1.1584,-1.1584,-1.1584,-1.1584,-1.1584,-1.1584,-1.1584,2.6372,2.5123,2.3822,2.2335,2.0873,1.9866,1.9866,1.962,1.9401,1.9401,1.9401,1.9401,1.9401,1.9401,1.9533,1.9837,2.1529,2.2589,2.2589,2.2589,2.1756,1.9953,1.9866,1.9866,1.9866,1.9562,1.9401,1.9401,1.9401,1.9212,1.889,1.8624,1.833,1.7982,1.7716,1.7608,1.7608,1.7608,1.7608,1.7608,1.7608,1.7608,1.7608,1.7608,1.7608,1.7608,1.7608,1.7608,1.7424,1.6274,1.4931,1.3696,1.3399,1.2516,1.181,1.2967,1.1647,1.0104,1.1273,1.0726,0.9781,0.9458,0.9616,0.9864,0.9864,0.9768,0.9702,0.9831,0.9731,0.9652,0.9765,0.9792,0.9792,0.9792,0.9792,0.9792,0.9792,0.9792,0.9792,0.9792,0.9792,0.9792,0.9792,0.9792,0.9792,0.9792,0.9792,0.9792,0.9792,0.7027,0.526,0.4907,0.206,0.036,0.0,0.0,0.0,0.0,0.0,-0.0941,-0.2754,-0.474,-0.67,-0.8625,-1.0581,-1.1511,-1.1584,-1.1584,-1.1584,-1.1584,-1.1584,-1.1584,-1.1584,-1.1584,-1.1584,-1.1584,2.5426,2.435,2.3095,2.0931,1.9924,1.9401,1.9401,1.9401,1.9401,1.9401,1.9401,1.9401,1.9401,1.9401,1.9678,2.04,2.1145,2.1614,2.1614,2.1614,2.0945,1.9446,1.9401,1.9401,1.9401,1.9401,1.9401,1.9401,1.9401,1.9321,1.9132,1.8838,1.8544,1.8223,1.7916,1.7716,1.7608,1.7608,1.7608,1.7608,1.7608,1.7608,1.7608,1.7608,1.7608,1.7608,1.7608,1.7147,1.6234,1.4073,1.2859,1.2136,1.1428,1.0672,1.0213,1.0973,1.0104,0.9071,0.9836,0.9478,0.8912,0.8912,0.8912,0.8912,0.8912,0.8967,0.911,0.9362,0.9442,0.9564,0.9751,0.9792,0.9792,0.9792,0.9792,0.9792,0.9792,0.9792,0.9792,0.9792,0.9792,0.9792,0.9792,0.9792,0.9792,0.9792,0.9792,0.9792,0.9792,0.6691,0.4891,0.4907,0.1707,0.0,0.0,0.0,0.0,0.0,0.0,-0.1411,-0.4026,-0.5098,-0.7125,-0.9844,-1.0936,-1.1477,-1.1584,-1.1584,-1.1584,-1.1584,-1.1584,-1.1584,-1.1584,-1.1584,-1.1584,-1.1584,2.4017,2.3431,2.2576,1.9866,1.9401,1.9401,1.9401,1.9401,1.9401,1.9401,1.9401,1.9401,1.9401,1.9401,1.9895,2.1116,2.123,2.123,2.123,2.123,2.0673,1.9446,1.9401,1.9401,1.9401,1.9401,1.9401,1.9401,1.9401,1.9401,1.9388,1.9065,1.8798,1.8544,1.8169,1.7876,1.7662,1.7635,1.7608,1.7608,1.7608,1.7608,1.7608,1.7608,1.7608,1.7582,1.7305,1.6115,1.4314,1.1919,1.0918,1.0507,0.9292,0.8912,0.8912,0.8912,0.8912,0.8912,0.8912,0.8912,0.8912,0.8912,0.8912,0.8912,0.8912,0.8912,0.8994,0.932,0.941,0.9469,0.9737,0.9792,0.9792,0.9792,0.9792,0.9792,0.9792,0.9792,0.9792,0.9792,0.9792,0.9792,0.9792,0.9792,0.9792,0.9792,0.9792,0.9792,0.9792,0.6691,0.4891,0.4907,0.1707,0.0,0.0,0.0,0.0,0.0,0.0,-0.1881,-0.5399,-0.5525,-0.7625,-1.1206,-1.1329,-1.1457,-1.1584,-1.1584,-1.1584,-1.1584,-1.1584,-1.1584,-1.1584,-1.1584,-1.1584,-1.1584,2.2476,2.1883,2.1373,1.9678,1.9401,1.9401,1.9401,1.9401,1.9401,1.9401,1.9401,1.9401,1.9401,1.9401,1.9475,1.9678,1.9707,1.9707,1.9707,1.9707,1.962,1.9401,1.9401,1.9401,1.9401,1.9401,1.9401,1.9401,1.9401,1.9401,1.9388,1.9065,1.8876,1.881,1.8235,1.7969,1.7942,1.7702,1.7608,1.7608,1.7608,1.7608,1.7608,1.7608,1.7608,1.7424,1.6168,1.3965,1.1619,1.1237,1.0241,0.9154,0.8968,0.8912,0.8912,0.8912,0.8912,0.8912,0.8912,0.8912,0.8912,0.8912,0.8912,0.8912,0.8912,0.8912,0.8994,0.932,0.941,0.9469,0.9737,0.9792,0.9792,0.9792,0.9792,0.9792,0.9792,0.9792,0.9792,0.9792,0.9792,0.9792,0.9792,0.9792,0.9792,0.9792,0.9792,0.9792,0.9792,0.6691,0.4891,0.4907,0.1707,0.0,0.0,0.0,0.0,0.0,0.0,-0.1881,-0.5396,-0.5406,-0.7525,-1.12,-1.122,-1.1355,-1.1584,-1.1584,-1.1584,-1.1584,-1.1584,-1.1584,-1.1584,-1.1584,-1.1584,-1.1584,2.2194,2.1614,2.1145,1.9649,1.9401,1.9401,1.9401,1.9401,1.9401,1.9401,1.9401,1.9401,1.9401,1.9401,1.9401,1.9401,1.9401,1.9401,1.9401,1.9401,1.9401,1.9401,1.9401,1.9401,1.9401,1.9401,1.9401,1.9401,1.9401,1.9401,1.9388,1.9267,1.9078,1.8876,1.8449,1.8169,1.7969,1.7716,1.7608,1.7608,1.7608,1.7608,1.7608,1.7608,1.7608,1.7305,1.5037,1.2886,1.0973,1.0159,0.9423,0.8912,0.8912,0.8912,0.8912,0.8912,0.8912,0.8912,0.8912,0.8912,0.8912,0.8912,0.8912,0.8912,0.8912,0.8912,0.8994,0.932,0.941,0.9469,0.9737,0.9792,0.9792,0.9792,0.9792,0.9792,0.9792,0.9792,0.9792,0.9792,0.9792,0.9792,0.9792,0.9792,0.9792,0.9792,0.9792,0.942,0.8495,0.6202,0.4487,0.3594,0.1256,0.0,0.0,0.0,0.0,0.0,0.0,-0.1881,-0.5396,-0.5396,-0.7515,-1.12,-1.12,-1.1335,-1.1584,-1.1584,-1.1584,-1.1584,-1.1584,-1.1584,-1.1584,-1.1584,-1.1584,-1.1584]},{"header":{"parameterUnit":"m.s-1","parameterCategory":1,"la1":30.6,"la2":28.766,"lo1":-90.7593,"lo2":-88.6598,"dy":0.0162,"dx":0.0183,"nx":116,"ny":114,"refTime":"2023-11-10T06:00:00:Z","depth":0,"parameterNumber":3,"parameterNumberName":"V-component_of_WINDS"},"data":[0.0,0.0,0.0,0.0,0.0,0.0,0.0,0.0,0.0,0.0,0.0,0.0,0.0,0.0,0.0,0.0,0.0,0.0,0.0,0.0,0.0,0.0,0.0,0.0,0.0,0.0,0.0,0.0,0.0,0.0,0.0,0.0,0.0,0.0,0.0,0.0,0.0,0.0,0.0,0.0,0.0,0.0,0.0,0.0,0.0,0.0,0.0,0.0,0.0,0.0,0.0,0.0,0.0,0.0,0.0,0.0,0.0,0.0,0.0,0.0,0.0,0.0,0.0,0.0,0.0,0.0,0.0,0.0,0.0,0.0,0.0,0.0,0.0,0.0,0.0,0.0,0.0,0.0,0.0,0.0,0.0,0.0,0.0,0.0,0.0,0.0,0.0,0.0,0.0,0.0,0.0,0.0,0.0,0.0,0.0,0.0,0.0,0.0,0.0,0.0,0.0,0.0,0.0,0.0,0.0,0.0,0.0,0.0,0.0,0.0,0.0,0.0,0.0,0.0,0.0,0.0,0.0,0.0,0.0,0.0,0.0,0.0,0.0,0.0,0.0,0.0,0.0,0.0,0.0,0.0,0.0,0.0,0.0,0.0,0.0,0.0,0.0,0.0,0.0,0.0,0.0,0.0,0.0,0.0,0.0,0.0,0.0,0.0,0.0,0.0,0.0,0.0,0.0,0.0,0.0,0.0,0.0,0.0,0.0,0.0,0.0,0.0,0.0,0.0,0.0,0.0,0.0,0.0,0.0,0.0,0.0,0.0,0.0,0.0,0.0,0.0,0.0,0.0,0.0,0.0,0.0,0.0,0.0,0.0,0.0,0.0,0.0,0.0,0.0,0.0,0.0,0.0,0.0,0.0,0.0,0.0,0.0,0.0,0.0,0.0,0.0,0.0,0.0,0.0,0.0,0.0,0.0,0.0,0.0,0.0,0.0,0.0,0.0,0.0,0.0,0.0,0.0,0.0,0.0,0.0,0.0,0.0,0.0,0.0,0.0,0.0,0.0,0.0,0.0,0.0,0.0,0.0,0.0,0.0,0.0,0.0,0.0,0.0,0.0,0.0,0.0,0.0,0.0,0.0,0.0,0.0,0.0,0.0,0.0,0.0,0.0,0.0,0.0,0.0,0.0,0.0,0.0,0.0,0.0,0.0,0.0,0.0,0.0,0.0,0.0,0.0,0.0,0.0,0.0,0.0,0.0,0.0,0.0,0.0,0.0,0.0,0.0,0.0,0.0,0.0,0.0,0.0,0.0,0.0,0.0,0.0,0.0,0.0,0.0,0.0,0.0,0.0,0.0,0.0,0.0,0.0,0.0,0.0,0.0,0.0,0.0,0.0,0.0,0.0,0.0,0.0,0.0,0.0,0.0,0.0,0.0,0.0,0.0,0.0,0.0,0.0,0.0,0.0,0.0,0.0,0.0,0.0,0.0,0.0,0.0,0.0,0.0,0.0,0.0,0.0,0.0,0.0,0.0,0.0,0.0,0.0,0.0,0.0,0.0,0.0,0.0,0.0,0.0,0.0,0.0,0.0,0.0,0.0,0.0,0.0,0.0,0.0,0.0,0.0,0.0,0.0,0.0,0.0,0.0,0.0,0.0,0.0,0.0,0.0,0.0,0.0,0.0,0.0,0.0,0.0,0.0,0.0,0.0,0.0,0.0,0.0,0.0,0.0,0.0,0.0,0.0,0.0,0.0,0.0,0.0,0.0,0.0,0.0,0.0,0.0,0.0,0.0,0.0,0.0,0.0,0.0,0.0,0.0,0.0,0.0,0.0,0.0,0.0,0.0,0.0,0.0,0.0,0.0,0.0,0.0,0.0,0.0,0.0,0.0,0.0,0.0,0.0,0.0,0.0,0.0,0.0,0.0,0.0,0.0,0.0,0.0,0.0,0.0,0.0,0.0,0.0,0.0,0.0,0.0,0.0,0.0,0.0,0.0,0.0,0.0,0.0,0.0,0.0,0.0,0.0,0.0,0.0,0.0,0.0,0.0,0.0,0.0,0.0,0.0,0.0,0.0,0.0,0.0,0.0,0.0,0.0,0.0,0.0,0.0,0.0,0.0,0.0,0.0,0.0,0.0,0.0,0.0,0.0,0.0,0.0,0.0,0.0,0.0,0.0,0.0,0.0,0.0,0.0,0.0,0.0,0.0,0.0,0.0,0.0,0.0,0.0,0.0,0.0,0.0,0.0,0.0,0.0,0.0,0.0,0.0,0.0,0.0,0.0,0.0,0.0,0.0,0.0,0.0,0.0,0.0,0.0,0.0,0.0,0.0,0.0,0.0,0.0,0.0,0.0,0.0,0.0,0.0,0.0,0.0,0.0,0.0,0.0,0.0,0.0,0.0,0.0,0.0,0.0,0.0,0.0,0.0,0.0,0.0,0.0,0.0,0.0,0.0,0.0,0.0,0.0,0.0,0.0,0.0,0.0,0.0,0.0,0.0,0.0,0.0,0.0,0.0,0.0,0.0,0.0,0.0,0.0,0.0,0.0,0.0,0.0,0.0,0.0,0.0,0.0,0.0,0.0,0.0,0.0,0.0,0.0,0.0,0.0,0.0,0.0,0.0,0.0,0.0,0.0,0.0,0.0,0.0,0.0,0.0,0.0,0.0,0.0,0.0,0.0,0.0,0.0,0.0,0.0,0.0,0.0,0.0,0.0,0.0,0.0,0.0,0.0,0.0,0.0,0.0,0.0,0.0,0.0,0.0,0.0,0.0,0.0,0.0,0.0,0.0,0.0,0.0,0.0,0.0,0.0,0.0,0.0,0.0,0.0,0.0,0.0,0.0,0.0,0.0,0.0,0.0,0.0,0.0,0.0,0.0,0.0,0.0,0.0,0.0,0.0,0.0,0.0,0.0,0.0,0.0,0.0,0.0,0.0,0.0,0.0,0.0,0.0,0.0,0.0,0.0,0.0,0.0,0.0,0.0,0.0,0.0,0.0,0.0,0.0,0.0,0.0,0.0,0.0,0.0,0.0,0.0,0.0,0.0,0.0,0.0,0.0,0.0,0.0,0.0,0.0,0.0,0.0,0.0,0.0,0.0,0.0,0.0,0.0,0.0,0.0,0.0,0.0,0.0,0.0,0.0,0.0,0.0,0.0,0.0,0.0,0.0,0.0,0.0,0.0,0.0,0.0,0.0,0.0,0.0,0.0,0.0,0.0,0.0,0.0,0.0,0.0,0.0,0.0,0.0,0.0,0.0,0.0,0.0,0.0,0.0,0.0,0.0,0.0,0.0,0.0,0.0,0.0,0.0,0.0,0.0,0.0,0.0,0.0,0.0,0.0,0.0,0.0,0.0,0.0,0.0,0.0,0.0,0.0,0.0,0.0,0.0,0.0,0.0,0.0,0.0,0.0,0.0,0.0,0.0,0.0,0.0,0.0,0.0,0.0,0.0,0.0,0.0,0.0,0.0,0.0,0.0,0.0,0.0,0.0,0.0,0.0,0.0,0.0,0.0,0.0,0.0,0.0,0.0,0.0,0.0,0.0,0.0,0.0,0.0,0.0,0.0,0.0,0.0,0.0,0.0,0.0,0.0,0.0,0.0,0.0,0.0,0.0,0.0,0.0,0.0,0.0,0.0,0.0,0.0,0.0,0.0,0.0,0.0,0.0,0.0,0.0,0.0,0.0,0.0,0.0,0.0,0.0,0.0,0.0,0.0,0.0,0.0,0.0,0.0,0.0,0.0,0.0,0.0,0.0,0.0,0.0,0.0,0.0,0.0,0.0,0.0,0.0,0.0,0.0,0.0,0.0,0.0,0.0,0.0,0.0,0.0,0.0,0.0,0.0,0.0,0.0,0.0,0.0,0.0,0.0,0.0,0.0,0.0,0.0,0.0,0.0,0.0,0.0,0.0,0.0,0.0,0.0,0.0,0.0,0.0,0.0,0.0,0.0,0.0,0.0,0.0,0.0,0.0,0.0,0.0,0.0,0.0,0.0,0.0,0.0,0.0,0.0,0.0,0.0,0.0,0.0,0.0,0.0,0.0,0.0,0.0,0.0,0.0,0.0,0.0,0.0,0.0,0.0,0.0,0.0,0.0,0.0,0.0,0.0,0.0,0.0,0.0,0.0,0.0,0.0,0.0,0.0,0.0,0.0,0.0,0.0,0.0,0.0,0.0,0.0,0.0,0.0,0.0,0.0,0.0,0.0,0.0,0.0,0.0,0.0,0.0,0.0,0.0,0.0,0.0,0.0,0.0,0.0,0.0,0.0,0.0,0.0,0.0,0.0,0.0,0.0,0.0,0.0,0.0,0.0,0.0,0.0,0.0,0.0,0.0,0.0,0.0,0.0,0.0,0.0,0.0,0.0,0.0,0.0,0.0,0.0,0.0,0.0,0.0,0.0,0.0,0.0,0.0,0.0,0.0,0.0,0.0,0.0,0.0,0.0,0.0,0.0,0.0,0.0,0.0,0.0,0.0,0.0,0.0,0.0,0.0,0.0,0.0,0.0,0.0,0.0,0.0,0.0,0.0,0.0,0.0,0.0,0.0,0.0,0.0,0.0,0.0,0.0,0.0,0.0,0.0,0.0,0.0,0.0,0.0,0.0,0.0,0.0,0.0,0.0,0.0,0.0,0.0,0.0,0.0,0.0,0.0,0.0,0.0,0.0,0.0,0.0,0.0,0.0,0.0,0.0,0.0,0.0,0.0,0.0,0.0,0.0,0.0,0.0,0.0,0.0,0.0,0.0,0.0,0.0,0.0,0.0,0.0,0.0,0.0,0.0,0.0,0.0,0.0,0.0,0.0,0.0,0.0,0.0,0.0,0.0,0.0,0.0,0.0,0.0,0.0,0.0,0.0,0.0,0.0,0.0,0.0,0.0,0.0,0.0,0.0,0.0,0.0,0.0,0.0,0.0,0.0,0.0,0.0,0.0,0.0,0.0,0.0,0.0,0.0,0.0,0.0,0.0,0.0,0.0,0.0,0.0,0.0,0.0,0.0,0.0,0.0,0.0,0.0,0.0,0.0,0.0,0.0,0.0,0.0,0.0,0.0,0.0,0.0,0.0,0.0,0.0,0.0,0.0,0.0,0.0,0.0,0.0,0.0,0.0,0.0,0.0,0.0,0.0,0.0,0.0,0.0,0.0,0.0,0.0,0.0,0.0,0.0,0.0,0.0,0.0,0.0,0.0,0.0,0.0,0.0,0.0,0.0,0.0,0.0,0.0,0.0,0.0,0.0,0.0,0.0,0.0,0.0,0.0,0.0,0.0,0.0,0.0,0.0,0.0,0.0,0.0,0.0,0.0,0.0,0.0,0.0,0.0,0.0,0.0,0.0,0.0,0.0,0.0,0.0,0.0,0.0,0.0,0.0,0.0,0.0,0.0,0.0,0.0,0.0,0.0,0.0,0.0,0.0,0.0,0.0,0.0,0.0,0.0,0.0,0.0,0.0,0.0,0.0,0.0,0.0,0.0,0.0,0.0,0.0,0.0,0.0,0.0,0.0,0.0,0.0,0.0,0.0,0.0,0.0,0.0,0.0,0.0,0.0,0.0,0.0,0.0,0.0,0.0,0.0,0.0,0.0,0.0,0.0,0.0,0.0,0.0,0.0,0.0,0.0,0.0,0.0,0.0,0.0,0.0,0.0,0.0,0.0,0.0,0.0,0.0,0.0,0.0,0.0,0.0,0.0,0.0,0.0,0.0,0.0,0.0,0.0,0.0,0.0,0.0,0.0,0.0,0.0,0.0,0.0,0.0,0.0,0.0,0.0,0.0,0.0,0.0,0.0,0.0,0.0,0.0,0.0,0.0,0.0,0.0,0.0,0.0,0.0,0.0,0.0,0.0,0.0,0.0,0.0,0.0,0.0,0.0,0.0,0.0,0.0,0.0,0.0,0.0,0.0,0.0,0.0,0.0,0.0,0.0,0.0,0.0,0.0,0.0,0.0,0.0,0.0,0.0,0.0,0.0,0.0,0.0,0.0,0.0,0.0,0.0,0.0,0.0,0.0,0.0,0.0,0.0,0.0,0.0,0.0,0.0,0.0,0.0,0.0,0.0,0.0,0.0,0.0,0.0,0.0,0.0,0.0,0.0,0.0,0.0,0.0,0.0,0.0,0.0,0.0,0.0,0.0,0.0,0.0,0.0,0.0,0.0,0.0,4.3303,4.0796,0.0,0.0,0.0,0.0,0.0,0.0,0.0,0.0,0.0,0.0,0.0,0.0,0.0,0.0,0.0,0.0,0.0,0.0,0.0,0.0,0.0,0.0,0.0,2.67,2.67,2.67,2.774,2.8552,2.8976,3.0016,3.0784,3.12,3.12,3.12,3.12,3.12,3.12,3.12,3.1901,3.3017,3.4427,3.3683,3.2939,3.2239,0.0,0.0,0.0,0.0,0.0,0.0,0.0,0.0,0.0,0.0,0.0,0.0,0.0,0.0,0.0,0.0,0.0,0.0,0.0,0.0,0.0,0.0,0.0,0.0,0.0,0.0,0.0,0.0,0.0,0.0,0.0,0.0,0.0,0.0,0.0,0.0,0.0,0.0,0.0,0.0,0.0,0.0,0.0,0.0,0.0,0.0,0.0,0.0,0.0,0.0,0.0,0.0,0.0,0.0,0.0,0.0,0.0,0.0,0.0,0.0,0.0,0.0,0.0,0.0,0.0,0.0,0.0,0.0,0.0,0.0,4.4355,4.334,0.0,0.0,0.0,0.0,0.0,0.0,0.0,0.0,0.0,0.0,0.0,0.0,0.0,0.0,0.0,0.0,0.0,0.0,0.0,0.0,0.0,2.67,2.67,2.67,2.6767,2.686,2.8188,2.9044,2.917,3.0456,3.12,3.12,3.12,3.12,3.12,3.12,3.1336,3.1562,3.3322,3.4799,3.6005,3.6005,3.534,3.4123,3.2645,0.0,0.0,0.0,0.0,0.0,0.0,0.0,0.0,0.0,0.0,0.0,0.0,0.0,0.0,0.0,0.0,0.0,0.0,0.0,0.0,0.0,0.0,0.0,0.0,0.0,0.0,0.0,0.0,0.0,0.0,0.0,0.0,0.0,0.0,0.0,0.0,0.0,0.0,0.0,0.0,0.0,0.0,0.0,0.0,0.0,0.0,0.0,0.0,0.0,0.0,0.0,0.0,0.0,0.0,0.0,0.0,0.0,0.0,0.0,0.0,0.0,0.0,0.0,4.414,4.4534,4.457,4.5372,4.5965,4.637,4.5656,4.6498,4.8101,4.4741,0.0,0.0,0.0,0.0,0.0,0.0,0.0,0.0,0.0,0.0,0.0,0.0,0.0,0.0,0.0,0.0,0.0,0.0,0.0,2.67,2.67,2.67,2.6962,2.7587,2.8493,2.9271,2.9895,3.0751,3.12,3.12,3.12,3.12,3.12,3.12,3.1833,3.3108,3.5915,3.7403,3.7606,3.7606,3.7505,3.7234,3.5712,3.4326,3.3108,0.0,0.0,0.0,0.0,0.0,0.0,0.0,0.0,0.0,0.0,0.0,0.0,0.0,0.0,0.0,0.0,0.0,0.0,0.0,0.0,0.0,0.0,0.0,0.0,0.0,0.0,0.0,0.0,0.0,0.0,0.0,0.0,0.0,0.0,0.0,0.0,0.0,0.0,0.0,0.0,0.0,3.4923,3.6445,0.0,0.0,0.0,0.0,0.0,0.0,0.0,0.0,0.0,0.0,0.0,0.0,0.0,4.1847,4.4127,4.4683,4.5654,4.7097,4.8412,4.9061,4.9172,5.0498,5.1128,5.1137,5.032,0.0,4.8475,4.8753,0.0,0.0,0.0,0.0,0.0,0.0,0.0,0.0,0.0,0.0,0.0,0.0,0.0,0.0,0.0,0.0,0.0,0.0,0.0,0.0,0.0,2.7841,2.8746,2.9041,3.092,3.1877,3.1369,3.2036,3.207,3.1234,3.12,3.12,3.12,3.2002,3.3582,3.5915,3.7234,3.8328,3.9153,3.9153,3.9153,3.9119,3.843,3.684,3.463,3.463,0.0,0.0,0.0,0.0,0.0,0.0,0.0,0.0,0.0,0.0,0.0,0.0,0.0,0.0,0.0,0.0,0.0,0.0,0.0,0.0,0.0,0.0,0.0,0.0,0.0,0.0,0.0,0.0,0.0,0.0,0.0,0.0,0.0,0.0,0.0,0.0,0.0,0.0,0.0,3.4979,3.6987,3.8488,3.8577,3.8261,0.0,0.0,0.0,0.0,0.0,0.0,0.0,0.0,0.0,4.3044,4.3112,4.4181,4.6447,4.6732,4.7415,4.8504,4.9472,4.9969,5.0037,5.1475,5.2101,5.21,5.2126,5.1784,5.1111,5.0617,5.0352,5.0174,0.0,0.0,0.0,0.0,4.7241,4.7352,0.0,0.0,0.0,0.0,0.0,0.0,0.0,0.0,0.0,0.0,0.0,0.0,2.7571,2.96,3.1011,3.1224,3.322,3.3941,3.2655,3.3085,3.2747,3.1258,3.12,3.12,3.12,3.3017,3.5273,3.791,3.8294,3.9017,4.0113,4.0113,4.0113,4.0113,4.0113,3.8645,3.6186,3.6186,3.5206,3.3649,0.0,0.0,0.0,0.0,0.0,0.0,0.0,0.0,0.0,0.0,0.0,0.0,0.0,0.0,0.0,0.0,0.0,0.0,0.0,0.0,0.0,0.0,0.0,0.0,0.0,0.0,0.0,0.0,0.0,0.0,0.0,0.0,0.0,0.0,0.0,0.0,0.0,3.6738,3.8734,4.0202,4.0405,4.0269,0.0,0.0,0.0,0.0,0.0,0.0,4.2049,4.2604,4.3687,4.5379,4.5447,4.6312,4.8157,4.8191,4.8534,4.9256,4.961,4.9818,5.0047,5.1063,5.1667,5.1862,5.2599,5.3039,5.3104,5.1893,5.1416,5.1389,5.0949,5.0021,4.892,4.892,4.892,4.8994,0.0,0.0,0.0,0.0,0.0,0.0,0.0,0.0,0.0,0.0,0.0,2.9929,2.9929,3.1891,3.3525,3.4212,3.4415,3.4167,3.3389,3.3379,3.2747,3.1258,3.12,3.12,3.12,3.4021,3.6287,3.791,3.9288,4.0045,4.0113,4.0113,4.0113,4.0113,4.0113,3.9254,3.7775,3.7775,3.6496,3.4362,3.3671,0.0,0.0,0.0,0.0,0.0,0.0,0.0,0.0,0.0,0.0,0.0,0.0,0.0,0.0,0.0,0.0,0.0,0.0,0.0,0.0,0.0,0.0,0.0,0.0,0.0,0.0,0.0,0.0,0.0,0.0,0.0,0.0,0.0,0.0,0.0,0.0,0.0,0.0,4.0967,4.301,0.0,0.0,0.0,0.0,4.1123,4.1779,4.2875,4.433,4.4479,4.5481,4.7684,4.7718,4.8124,4.8951,4.8951,4.9297,4.9933,4.9346,4.9357,5.0004,5.009,5.0486,5.1189,5.185,5.2554,5.3177,5.3104,5.3067,5.292,5.1389,5.0765,5.0655,5.0655,5.0655,5.0902,0.0,0.0,0.0,0.0,0.0,2.67,2.67,2.67,2.67,2.67,2.8678,3.0098,3.0098,3.3389,3.5701,3.5949,3.7291,3.7596,3.6389,3.5374,3.4157,3.2679,3.1698,3.2104,3.3987,3.6017,3.7821,3.9322,3.9829,4.0113,4.0113,4.0113,4.0113,4.0113,4.0113,3.9808,3.9322,3.9322,3.8296,3.6666,3.6398,3.4608,0.0,0.0,0.0,0.0,0.0,0.0,0.0,0.0,0.0,0.0,0.0,0.0,0.0,0.0,0.0,0.0,0.0,0.0,0.0,0.0,0.0,0.0,0.0,0.0,0.0,0.0,0.0,0.0,0.0,0.0,0.0,0.0,0.0,0.0,0.0,0.0,0.0,4.1711,4.3031,0.0,4.3051,4.3707,4.3944,4.3416,4.4959,4.6128,4.6684,4.7158,4.78,4.8563,4.8597,4.8748,4.9018,4.9018,4.9123,4.9361,4.9123,4.963,5.0853,5.1297,5.2152,5.3394,5.4057,5.4506,5.473,5.473,5.4436,5.3959,5.3922,5.3896,5.3896,5.3896,5.3896,5.3969,0.0,0.0,0.0,0.0,2.67,2.67,2.67,2.67,2.697,2.774,2.9803,3.1529,3.2273,3.5667,3.7912,3.7912,3.9266,3.9254,3.7234,3.6186,3.4731,3.2747,3.2205,3.3322,3.6321,3.7369,3.8633,4.0113,4.0113,4.0113,4.0113,4.0113,4.0113,4.0113,4.0113,4.0113,4.0113,4.0113,3.9387,3.8233,3.7995,3.5866,3.2889,0.0,0.0,0.0,0.0,0.0,0.0,0.0,0.0,0.0,0.0,0.0,0.0,0.0,0.0,0.0,0.0,0.0,0.0,0.0,0.0,0.0,0.0,0.0,0.0,0.0,0.0,0.0,0.0,0.0,0.0,0.0,0.0,0.0,0.0,3.9592,4.1284,4.2523,4.3558,4.4268,4.4505,4.5263,4.5717,4.5717,4.7293,4.8259,4.8259,4.8732,4.9018,4.9018,4.9018,4.912,4.9357,4.9357,4.9492,4.9747,4.9747,5.0431,5.1694,5.2145,5.3176,5.4628,5.5083,5.5407,5.5622,5.5879,5.5684,5.5244,5.5511,5.5585,5.5585,5.5585,5.5585,5.5658,0.0,0.0,0.0,2.67,2.67,2.67,2.67,2.67,2.7503,2.9794,3.2026,3.4269,3.6558,3.8759,4.0113,4.0113,4.0113,3.8848,3.587,3.5633,3.4292,3.1393,3.2747,3.4901,3.7855,3.7956,3.8667,4.0113,4.0113,4.0113,4.0113,4.0113,4.0113,4.0113,4.0113,4.0113,4.0113,4.0113,3.9649,3.889,3.8228,3.6257,3.3629,0.0,0.0,0.0,0.0,0.0,0.0,0.0,0.0,0.0,0.0,0.0,0.0,0.0,0.0,0.0,0.0,0.0,0.0,0.0,0.0,0.0,0.0,0.0,0.0,0.0,0.0,0.0,0.0,0.0,0.0,0.0,0.0,0.0,3.9995,4.1441,4.2625,4.3423,4.4843,4.6041,4.6766,4.7496,4.7921,4.7921,4.8597,4.9018,4.9018,4.9018,4.9018,4.9052,4.9052,4.939,5.015,5.015,5.0473,5.1201,5.1201,5.1644,5.2428,5.2458,5.3287,5.4676,5.47,5.5049,5.5732,5.6528,5.6847,5.6737,5.5989,5.5658,5.5658,5.5658,5.5658,5.5805,0.0,0.0,0.0,2.67,2.67,2.67,2.67,2.67,2.7503,2.9794,3.2026,3.4269,3.6558,3.8759,4.0113,4.0113,4.0113,3.9288,3.7403,3.6219,3.4765,3.2882,3.5284,3.7031,3.7877,3.8949,3.9694,4.0113,4.0113,4.0113,4.0113,4.0113,4.0113,4.0113,4.0113,4.0113,4.0113,4.0113,3.9965,3.9732,3.9585,3.8112,3.609,0.0,0.0,0.0,0.0,0.0,0.0,0.0,0.0,0.0,0.0,0.0,0.0,0.0,0.0,0.0,0.0,0.0,0.0,0.0,0.0,0.0,0.0,0.0,0.0,0.0,0.0,0.0,0.0,0.0,0.0,0.0,4.1191,4.2036,4.2442,4.2848,4.3795,4.5635,4.6703,4.738,4.7582,4.8259,4.8698,4.8698,4.8883,4.9018,4.9018,4.9018,4.9255,4.9763,4.9796,5.0135,5.0897,5.0897,5.0998,5.1201,5.1201,5.1902,5.3211,5.373,5.4816,5.6301,5.683,5.7161,5.7373,5.7593,5.7666,5.7666,5.7409,5.7347,5.7347,5.7347,5.7347,5.7373,0.0,0.0,0.0,2.67,2.67,2.67,2.67,2.6962,2.8205,3.1113,3.2871,3.4945,3.7879,3.9334,4.0113,4.0113,3.9525,3.8531,3.7031,3.5509,3.4867,3.5273,3.6963,3.8193,3.8802,3.966,4.0113,4.0113,4.0113,4.0113,4.0113,4.0113,4.0113,4.0113,4.0113,4.0113,4.0113,4.0113,4.0113,4.0113,4.0113,3.9013,3.7409,3.7769,3.6742,3.5063,3.4981,3.4958,3.4825,3.3982,0.0,0.0,0.0,0.0,0.0,0.0,0.0,0.0,0.0,0.0,0.0,0.0,0.0,0.0,0.0,0.0,0.0,0.0,0.0,0.0,0.0,0.0,0.0,0.0,4.2929,4.4248,4.5148,4.5012,4.5432,4.7056,4.765,4.8022,4.8326,4.8748,4.9018,4.9018,4.9289,4.9458,4.9458,4.9763,5.0135,5.0541,5.0574,5.0913,5.1641,5.1641,5.181,5.2148,5.247,5.3256,5.4454,5.5204,5.6214,5.7388,5.7809,5.7997,5.7997,5.7997,5.7997,5.7997,0.0,0.0,0.0,0.0,5.7997,5.7997,0.0,0.0,2.6733,2.6793,2.6826,2.6869,2.6936,2.7494,2.9277,3.3041,3.41,3.5938,3.9706,4.0113,4.0113,4.0113,3.8734,3.7234,3.5701,3.4529,3.5103,3.7775,3.8046,3.8768,4.0079,4.0113,4.0113,4.0113,4.0113,4.0113,4.0113,4.0113,4.0113,4.0113,4.0113,4.0113,4.0113,4.0113,4.0113,4.0113,4.0113,3.9322,3.8147,3.8147,3.7302,3.6107,3.5993,3.5958,3.5958,3.579,0.0,0.0,0.0,0.0,0.0,0.0,0.0,0.0,0.0,0.0,0.0,0.0,0.0,0.0,0.0,0.0,0.0,0.0,0.0,0.0,0.0,0.0,0.0,0.0,4.3958,4.5684,4.7752,4.7462,4.7293,4.7954,4.8022,4.8293,4.8951,4.9086,4.912,4.912,4.9796,5.0202,5.0202,5.0845,0.0,0.0,0.0,5.1723,5.2549,5.2549,5.2972,5.375,5.4388,5.5054,5.5738,5.655,5.7277,5.7867,5.7973,5.7997,5.7997,5.7997,5.7997,5.7997,5.7997,5.7997,5.7997,5.7997,5.7997,5.7997,0.0,2.67,2.6894,2.7486,2.7587,2.7799,2.8468,2.8662,3.0083,3.3806,3.4415,3.5938,3.9706,4.0113,4.0113,4.0113,3.8734,3.7234,3.5701,3.649,3.7302,3.7877,3.9051,3.9808,4.0079,4.0113,4.0113,4.0113,4.0113,4.0113,4.0113,4.0113,4.0113,4.0113,4.0113,4.0113,4.0113,4.0113,4.0113,4.0113,4.0113,3.9943,3.966,3.966,3.9491,3.9146,3.8497,3.8255,3.809,3.6873,3.6476,3.651,3.6542,3.5532,0.0,0.0,0.0,0.0,0.0,0.0,0.0,0.0,0.0,0.0,0.0,0.0,0.0,0.0,0.0,0.0,0.0,0.0,0.0,4.4891,4.6312,4.7616,4.8646,4.868,4.8646,4.8781,4.8781,4.8849,4.8984,4.9526,4.988,4.988,5.0574,5.0998,5.0998,5.1133,5.1472,5.2063,5.2097,5.2744,5.4131,5.4165,5.4541,5.5276,5.5422,0.0,5.5738,5.655,5.6976,5.7128,5.7738,5.7997,5.7997,5.7997,5.7997,5.7997,5.7997,5.7997,5.7997,5.7997,5.7997,5.7997,0.0,0.0,2.7952,2.8349,2.8416,2.8552,2.8942,2.9305,3.049,3.3061,3.3738,3.4945,3.755,3.7855,3.7855,3.7855,3.7166,3.6422,3.5633,3.7031,3.8227,3.8983,3.9694,4.0113,4.0113,4.0113,4.0113,4.0113,4.0113,4.0113,4.0113,4.0113,4.0113,4.0113,4.0113,4.0113,4.0113,4.0113,4.0113,4.0113,4.0113,4.0113,4.0113,4.0113,4.0113,4.0028,3.9649,3.9519,3.9386,3.8638,3.8638,3.8956,3.9007,3.8227,3.7234,0.0,0.0,0.0,0.0,0.0,0.0,0.0,0.0,0.0,0.0,0.0,0.0,0.0,0.0,4.2408,4.2794,0.0,4.5819,4.6177,4.7496,4.8563,4.8951,4.9018,4.9018,4.9018,4.9323,4.956,4.956,5.0202,5.0642,5.0642,5.1352,5.1742,5.1742,5.2114,5.27,5.3425,5.3446,5.4019,5.5145,5.5558,5.5951,5.6315,5.7121,5.7498,5.7526,5.8288,5.8651,5.8676,5.9029,5.9208,5.9171,5.8756,5.8609,5.8547,5.8143,5.7997,5.7997,5.7997,5.7997,5.7997,0.0,0.0,0.0,2.9237,2.9204,2.9281,2.9416,2.9939,3.0852,3.2317,3.3017,3.3954,3.543,3.56,3.5464,3.5205,3.5701,3.5904,3.5633,3.7302,3.8882,4.0045,4.0113,4.0113,4.0113,4.0113,4.0113,4.0113,4.0113,4.0113,4.0113,4.0113,4.0113,4.0113,4.0113,4.0113,4.0113,4.0113,4.0113,4.0113,4.0113,4.0113,4.0113,4.0113,4.0113,4.0113,4.0113,4.0011,3.9943,4.0202,4.0608,4.1068,4.1495,4.1022,4.0109,3.906,3.8971,0.0,0.0,0.0,0.0,0.0,0.0,0.0,0.0,4.232,4.2875,4.3301,4.3862,4.4336,4.4471,4.6007,4.724,4.724,4.8206,4.9018,4.9018,4.912,4.9221,4.9221,4.9729,5.015,5.0304,5.098,5.1404,5.1404,5.2131,5.2604,5.2739,5.3348,5.4056,5.4789,5.4804,5.5161,5.591,5.6547,5.7051,5.7363,5.8651,5.9378,5.9522,6.0115,6.0419,6.0419,6.0419,6.0419,6.0346,5.971,5.9416,5.938,5.8731,5.8474,5.8437,5.8107,5.7997,5.802,0.0,0.0,0.0,3.0108,2.9963,3.0209,3.0862,3.1021,3.1596,3.3085,3.3345,3.3954,3.543,3.56,3.5059,3.3751,3.6084,3.7065,3.5701,3.8273,3.9943,4.0079,4.0113,4.0113,4.0113,4.0113,4.0113,4.0113,4.0113,4.0113,4.0113,4.0113,4.0113,4.0113,4.0113,4.0113,4.0113,4.0113,4.0113,4.0113,4.0113,4.0113,4.0113,4.0113,4.0113,4.0113,4.0113,3.966,3.9309,4.0629,4.0709,4.0574,4.2544,4.2205,4.117,4.1644,4.0933,3.9669,3.8181,3.7956,3.8451,3.977,4.0514,4.1542,0.0,4.4262,4.4905,4.6872,4.7346,4.7616,4.8259,4.8578,4.8748,4.8748,4.8883,4.9018,4.9018,4.956,4.9981,4.9981,5.0049,5.0338,5.0998,5.1758,5.2198,5.2198,5.2909,5.3653,5.4296,5.4448,5.4821,5.5534,5.5582,5.5928,5.6656,5.6776,5.7548,5.8929,5.9128,5.9574,6.0274,6.0346,6.0419,6.0419,6.0419,6.0419,6.037,6.0297,6.026,6.0272,6.0162,6.0126,5.9979,5.8547,5.7997,5.8077,0.0,0.0,0.0,3.0784,3.0751,3.0852,3.1166,3.12,3.1427,3.2036,3.2104,3.2341,3.2973,3.3041,3.278,3.2171,3.4833,3.6287,3.5633,3.843,4.0113,4.0113,4.0113,4.0113,4.0113,4.0113,4.0113,4.0113,4.0113,4.0113,4.0113,4.0113,4.0113,4.0113,4.0113,4.0113,4.0113,4.0113,4.0113,4.0113,4.0113,4.0113,4.0113,4.0113,4.0371,4.0641,3.9762,3.9254,0.0,4.0202,4.0641,4.1035,4.2848,4.2679,4.188,4.2198,4.1251,4.0155,4.0392,4.046,4.0933,4.2882,4.3592,4.4268,4.6109,4.6853,4.7428,4.8342,4.8529,4.8631,4.8951,4.9018,4.9018,4.9018,4.9018,4.9154,4.9593,4.9914,5.0421,5.1285,5.1386,5.1488,5.1826,5.2536,5.3179,5.3619,5.3957,5.4465,5.5209,5.5243,5.5569,5.6318,5.6352,5.6678,5.7419,5.8403,5.9223,5.9916,6.0846,6.1467,6.1802,6.1802,6.1802,6.1802,6.1802,6.1802,6.1765,6.13,6.108,6.1043,6.0566,6.0419,6.0309,5.9648,5.9598,5.9906,0.0,0.0,0.0,0.0,0.0,3.12,3.12,3.12,3.12,3.12,3.12,3.12,3.12,3.12,3.12,3.12,3.3525,3.5171,3.5566,3.8024,3.966,4.0079,4.0113,4.0113,4.0113,4.0113,4.0113,4.0113,4.0113,4.0113,4.0113,4.0113,4.0113,4.0113,4.0113,4.0113,4.0113,4.0113,4.0113,4.0113,4.0113,4.0113,4.0113,4.035,4.0472,4.046,3.9377,3.9017,3.9085,3.9626,4.0032,4.0561,4.2002,4.2117,4.1745,4.1948,4.1115,4.0485,4.2151,4.2455,4.2909,4.5365,4.6177,4.6636,4.7921,4.8597,4.9018,4.9018,4.9018,4.9018,4.9018,4.9018,4.9018,4.9018,4.9018,4.9255,5.0015,5.0286,5.0879,5.2164,5.2503,5.2706,5.2909,5.345,5.4025,5.4583,5.4769,5.5313,5.6286,5.611,5.6543,5.7773,5.7552,5.781,5.8593,5.9789,6.0504,6.0745,6.1915,6.2579,6.2793,6.2793,6.2793,6.2793,6.2793,6.2793,6.2756,6.2181,6.1924,6.1887,6.13,6.1152,6.1269,6.1269,6.127,6.1245,0.0,0.0,0.0,0.0,0.0,3.12,3.12,3.12,3.12,3.12,3.12,3.12,3.12,3.12,3.12,3.12,3.2577,3.4089,3.5509,3.7099,3.8599,4.0045,4.0113,4.0113,4.0113,4.0113,4.0113,4.0113,4.0113,4.0113,4.0113,4.0113,4.0113,4.0113,4.0113,4.0113,4.0113,4.0113,4.0113,4.0113,4.0113,4.0113,4.018,4.0899,4.029,3.9039,3.9017,3.9017,3.9017,3.9017,3.8565,3.8261,3.9728,4.0189,4.0312,4.1022,4.0709,4.0574,4.278,4.2848,4.301,4.6022,4.7293,4.8022,4.88,4.8984,4.9018,4.9018,4.9018,4.9018,4.9018,4.9018,4.9018,4.9018,4.9018,4.9255,5.0015,5.071,5.1438,5.2198,5.2976,5.3754,5.4482,5.455,5.4583,5.4617,5.5277,5.6337,5.785,5.7191,5.7844,6.0234,5.949,5.9441,6.03,6.0366,6.079,6.1576,6.1618,6.2036,6.2793,6.2793,6.2793,6.2793,6.2793,6.2793,6.2793,6.2756,6.2756,6.2756,6.2756,6.3035,6.3512,6.3512,6.254,6.1311,0.0,0.0,0.0,0.0,0.0,3.12,3.12,3.12,3.12,3.12,3.12,0.0,0.0,0.0,0.0,0.0,3.2822,3.3946,3.4144,3.649,3.8125,3.8633,3.9592,4.0113,4.0113,4.0113,4.0113,4.0113,4.0113,4.0113,4.0113,4.0113,4.0113,4.0113,4.0113,4.0113,4.0113,4.0113,4.0113,4.0113,4.0113,3.9525,3.8734,3.9445,3.914,3.8193,0.0,3.7528,3.763,3.8125,3.8125,3.8159,3.9626,3.9762,3.9512,4.0269,4.1339,4.2557,4.3856,4.4736,4.5635,4.7143,4.809,4.8698,4.8951,4.9018,4.9018,4.9018,4.8206,4.753,4.753,4.6733,4.6394,4.7361,4.797,4.8868,5.0592,5.1438,5.2232,5.301,5.3754,5.4329,5.4583,5.4617,5.5023,5.5987,5.6292,5.6874,5.7872,5.8169,5.8683,5.9525,5.9816,6.0102,6.0417,6.0923,6.1314,6.1618,6.2129,6.2541,6.2793,6.2793,6.2793,6.2793,6.2793,6.2793,6.2793,6.2793,6.2793,6.283,6.3191,6.3442,6.368,6.437,6.4238,6.3844,0.0,0.0,0.0,0.0,0.0,0.0,0.0,0.0,0.0,0.0,0.0,0.0,0.0,0.0,0.0,0.0,0.0,3.3435,3.3839,3.5689,3.7017,3.7556,3.8482,3.8997,3.8997,3.8997,3.8997,3.8997,3.9358,3.9535,3.9535,3.9929,4.0113,4.0113,4.0113,4.0113,4.0113,4.0113,3.9808,3.9322,3.9592,3.8814,3.7618,3.8611,3.8362,0.0,3.7257,3.6851,3.6434,3.693,3.7099,3.7335,3.8848,3.9356,3.9626,4.0912,4.2117,4.3369,4.4939,4.609,4.7022,4.8022,4.8631,4.9018,4.9018,4.9018,4.8849,4.8308,4.7462,4.6631,4.6123,4.5244,4.5176,4.6921,4.7582,4.8766,5.1235,5.1995,5.2604,5.3416,5.416,5.4702,5.4972,5.5243,5.5784,5.6731,5.7036,5.7645,5.872,5.8994,5.9506,6.0407,6.07,6.0953,6.1265,6.1756,6.2036,6.2036,6.2554,6.2793,6.2793,6.2793,6.2793,6.2793,6.2793,6.2793,6.2793,6.2793,6.2793,6.2855,6.3385,6.3713,6.3968,6.4799,6.5238,6.5396,0.0,0.0,0.0,0.0,0.0,0.0,0.0,0.0,0.0,0.0,0.0,0.0,0.0,0.0,0.0,0.0,0.0,0.0,3.4384,3.4623,3.5355,3.6796,3.6956,3.7001,3.7001,3.7001,3.7001,3.7001,3.7975,3.8408,3.841,3.9421,3.9888,3.9876,3.9876,3.9876,3.9876,3.9876,3.9051,3.7843,3.8599,3.8002,3.6818,3.8307,3.7968,3.6795,3.7516,3.6896,3.5701,3.5633,3.5633,3.5971,3.7572,3.9039,4.0641,4.2848,4.3064,4.3179,4.6109,4.6921,4.7259,4.8646,4.9018,4.9018,4.9018,4.8951,4.8477,4.7105,4.6699,4.6157,4.4736,4.4479,4.521,4.738,4.7853,4.8969,5.186,5.23,5.2638,5.3416,5.4194,5.4938,5.5631,5.6428,5.6904,5.6904,5.7548,5.8651,6.0242,5.9639,6.0315,6.2643,6.2036,6.2036,6.278,6.2793,6.2793,6.2793,6.2793,6.2793,6.2793,6.2793,6.2793,6.2793,6.2793,6.2793,6.2793,6.2793,6.2818,6.2904,6.3431,6.3985,6.4481,6.4979,6.5454,6.5904,0.0,0.0,0.0,0.0,0.0,0.0,0.0,0.0,0.0,0.0,0.0,0.0,0.0,0.0,0.0,0.0,0.0,0.0,3.2103,3.3726,3.4734,3.4855,3.6239,3.7001,3.7001,3.7001,3.7001,3.7001,3.7261,3.7209,3.6867,3.7152,3.7092,3.6761,3.6761,3.6761,3.6761,3.6761,3.6524,3.6253,3.7054,3.6445,3.5261,3.6784,3.6411,3.5193,3.5915,3.6659,3.7133,3.5971,3.6355,3.7674,3.9703,4.1001,4.2198,4.4437,4.5365,4.6041,4.7936,4.8443,4.8545,4.8917,4.9018,4.9018,4.9018,4.8139,4.7259,4.6887,4.5007,4.3349,4.2943,4.2875,4.345,4.5176,4.7293,4.939,5.1201,5.2469,5.3281,5.3484,5.4634,5.5496,5.5665,5.7398,5.8513,5.8513,5.8686,5.8994,5.941,6.0407,6.1257,6.1901,6.2284,6.2579,6.2793,6.2793,6.2793,6.2793,6.2793,6.2793,6.2793,6.2793,6.2793,6.2793,6.2793,6.2793,6.2793,6.2793,6.3038,6.3453,6.4005,6.449,6.4995,6.552,6.5788,6.5904,0.0,0.0,0.0,0.0,0.0,0.0,0.0,0.0,0.0,0.0,0.0,0.0,0.0,0.0,0.0,0.0,0.0,0.0,0.0,3.3481,3.4183,3.3971,3.502,3.5586,3.5586,3.5586,3.5586,3.5586,3.6087,3.6174,3.5903,3.6382,3.6488,3.6207,3.6006,3.5909,3.5887,3.57,3.5228,0.0,0.0,3.5351,3.4167,3.569,3.5723,3.5047,3.543,3.6591,3.7877,3.7628,3.8587,4.0087,4.1664,4.2692,4.3755,4.6007,4.6718,4.7124,4.8612,4.9018,4.9018,4.9018,4.9018,4.8849,4.8173,4.7394,4.6428,4.5108,4.3484,4.23,4.23,4.23,4.3098,4.5635,4.7428,4.924,5.137,5.2435,5.3211,5.3912,5.4703,5.5621,5.6649,5.7901,5.8914,5.962,5.9671,5.9813,6.0191,6.1113,6.1756,6.2103,6.2554,6.2793,6.2793,6.2793,6.2793,6.2793,6.2793,6.2793,6.2793,6.2793,6.2793,6.2793,6.2793,6.2793,6.2818,6.3062,6.3317,6.3669,6.4426,6.4858,6.5154,6.5697,6.5904,6.5904,0.0,0.0,0.0,0.0,0.0,0.0,0.0,0.0,0.0,0.0,0.0,3.1269,3.12,3.1259,0.0,0.0,0.0,0.0,0.0,0.0,3.3627,3.3627,3.3627,3.3648,3.3739,3.3739,3.3739,3.3739,3.4638,3.5026,3.4938,3.5862,3.6297,3.6219,3.5782,3.5621,3.56,3.5188,3.4292,3.321,3.4596,3.4461,3.3548,0.0,3.5498,3.5633,3.5836,3.6896,3.843,3.9906,4.1238,4.2469,4.3288,4.4181,4.5277,4.7177,4.7428,4.7361,4.8646,4.9018,4.9018,4.9018,4.9018,4.8612,4.7124,4.6665,4.5717,4.2875,4.213,4.2063,4.2266,4.23,4.3504,4.7143,4.7853,4.8901,5.1758,5.2232,5.2864,5.4409,5.4676,5.5611,5.7876,5.8219,5.8927,6.0453,6.064,6.0967,6.1576,6.1701,6.2076,6.2768,6.2793,6.2793,6.2793,6.2793,6.2793,6.2793,6.2793,6.2793,6.2793,6.2793,6.2793,6.2793,6.2793,6.2842,6.2929,6.3408,6.3669,6.3876,6.4765,6.5138,6.5268,6.5717,6.5904,6.5904,0.0,0.0,0.0,0.0,0.0,0.0,0.0,0.0,0.0,0.0,3.1488,3.1582,0.0,0.0,0.0,0.0,0.0,0.0,0.0,0.0,0.0,3.2747,3.2747,3.2921,3.3313,3.3284,3.3284,3.3284,3.3492,3.3195,3.2449,3.2603,3.2527,3.2203,3.2114,3.2065,3.2065,3.2009,3.1799,3.1664,3.252,3.3085,3.348,3.437,3.5081,0.0,3.7031,3.8464,3.9931,4.1407,4.2097,4.2536,4.3958,4.5311,4.6496,4.6887,4.7767,4.868,4.8951,4.9018,4.9018,4.9018,4.9018,4.8612,4.7124,4.5853,4.4465,4.2672,4.1318,4.0844,4.2097,4.23,4.3349,4.6481,4.7481,4.8732,5.1066,5.1928,5.2864,5.4409,5.5157,5.6185,5.7936,5.9259,6.0389,6.1321,6.2009,6.2129,6.1632,6.2245,6.2679,6.2793,6.2793,6.2793,6.2793,6.2793,6.2793,6.2793,6.2793,6.2793,6.2793,6.2793,6.2793,6.2793,6.2793,6.3062,6.3476,6.3576,6.4099,6.4858,6.5043,6.5388,6.5781,6.5878,6.5904,6.5904,0.0,0.0,0.0,0.0,0.0,0.0,0.0,3.12,3.12,3.12,3.1564,3.1641,3.1249,3.138,3.1428,0.0,0.0,0.0,0.0,0.0,0.0,3.2527,3.2747,3.2866,3.285,3.3068,3.3075,3.285,0.0,3.2822,3.2161,3.2161,3.2074,3.1851,3.1629,3.1517,3.1498,3.1274,3.12,3.1258,3.1989,3.2757,3.3491,3.4201,3.4979,0.0,3.6456,3.7686,3.9039,3.9783,4.0527,4.1576,4.3856,4.5345,4.6143,4.5785,4.6955,4.8326,4.797,4.8409,4.9018,4.9018,4.9018,4.8409,4.6157,4.5108,4.3938,4.1623,4.0587,4.054,4.2029,4.23,4.3044,4.5277,4.6583,4.7834,4.9273,5.0761,5.2286,5.3837,5.4676,5.6088,5.8473,5.9406,6.048,6.2096,6.2579,6.2618,6.2258,6.2579,6.2793,6.2793,6.2793,6.2793,6.2793,6.2793,6.2793,6.2793,6.2793,6.2793,6.2793,6.2793,6.2793,6.2805,6.311,6.3351,6.3626,6.4178,6.4679,6.513,6.5417,6.5676,6.5904,6.5904,6.5904,6.5904,0.0,0.0,0.0,0.0,0.0,0.0,0.0,3.12,3.12,3.12,3.147,3.1564,3.1239,3.1298,3.1283,0.0,0.0,0.0,0.0,0.0,0.0,0.0,3.2606,3.2658,3.2341,0.0,0.0,3.2341,3.2703,0.0,0.0,0.0,0.0,0.0,3.1842,3.1669,3.165,3.1332,3.12,0.0,0.0,3.252,3.3254,0.0,0.0,0.0,0.0,3.6591,3.791,3.791,3.8891,4.0514,4.2909,4.4147,4.4756,4.4838,4.6075,4.7413,4.7293,4.8105,4.9018,4.9018,4.9018,4.824,4.5277,4.4615,4.3721,4.0722,4.0113,4.054,4.2029,4.2029,4.2435,4.4296,4.5311,4.6312,4.7718,4.9544,5.1435,5.3283,5.4289,5.5956,5.8794,5.9335,6.036,6.2388,6.2683,6.2793,6.2793,6.2793,6.2793,6.2793,6.2793,6.2793,6.2793,6.2793,6.2793,6.2793,6.2793,6.2793,6.2793,6.2793,6.2867,6.299,6.3419,6.3723,6.3978,6.4782,6.5161,6.5306,6.5755,6.5904,6.5904,6.5904,6.5904,6.591,0.0,0.0,0.0,0.0,0.0,0.0,0.0,3.12,3.12,3.12,3.1239,3.1249,3.12,3.1536,3.1585,0.0,0.0,0.0,0.0,0.0,0.0,0.0,0.0,0.0,0.0,0.0,0.0,3.1853,3.1897,0.0,0.0,0.0,0.0,0.0,0.0,3.1269,3.1259,3.122,0.0,0.0,0.0,0.0,0.0,0.0,0.0,0.0,0.0,3.6591,3.791,3.791,3.887,4.0134,4.0413,4.1022,4.2151,4.4823,4.5737,4.6346,4.8274,4.8917,4.9018,4.9018,4.9018,4.824,4.5277,4.4615,4.3721,4.0722,4.0113,4.054,4.2029,4.1217,4.1264,4.4141,4.3552,4.3944,4.7413,4.8665,5.0259,5.3145,5.4732,5.6304,5.8051,5.9478,6.0689,6.163,6.2389,6.2793,6.2793,6.2793,6.2793,6.2793,6.2793,6.2793,6.2793,6.2793,6.2793,6.2793,6.2793,6.2793,6.2793,6.2793,6.3074,6.3543,6.3598,6.4129,6.4957,6.5075,6.5396,6.5821,6.5891,6.5904,6.5904,6.5904,6.5904,6.5903,0.0,0.0,0.0,0.0,0.0,0.0,3.12,3.12,3.12,3.12,3.12,3.12,3.12,3.1341,3.138,3.121,0.0,0.0,0.0,0.0,0.0,0.0,0.0,0.0,0.0,0.0,3.1678,3.1422,3.1678,0.0,0.0,0.0,0.0,0.0,0.0,3.12,3.12,3.12,0.0,0.0,0.0,0.0,0.0,0.0,0.0,0.0,0.0,0.0,3.6524,3.6524,3.6896,3.7483,3.7956,3.799,3.8316,4.0899,4.3572,4.5689,4.5655,4.7278,4.9018,4.9018,4.9018,4.824,4.5277,4.4615,4.3721,4.0722,4.0113,4.0282,4.0891,4.0519,4.0485,4.1704,4.213,4.3146,4.5568,4.7699,4.9786,5.1865,5.4231,5.6134,5.7275,5.9192,6.0933,6.2242,6.2609,6.2793,6.2793,6.2793,6.2793,6.2793,6.2793,6.2793,6.2793,6.2793,6.2793,6.2793,6.2793,6.2793,6.2793,6.2793,6.3073,6.3604,6.3954,6.4472,6.5122,6.5446,6.5703,6.5904,6.5904,6.5904,6.5904,6.5904,6.5949,6.604,0.0,0.0,0.0,0.0,0.0,3.12,3.12,3.12,3.12,3.12,3.12,3.12,3.12,3.12,3.12,3.12,3.12,0.0,0.0,0.0,0.0,0.0,0.0,0.0,0.0,0.0,3.1479,3.12,3.1479,3.147,0.0,0.0,3.12,3.12,0.0,0.0,0.0,0.0,0.0,0.0,0.0,0.0,0.0,0.0,0.0,0.0,0.0,0.0,0.0,0.0,0.0,3.5712,3.6265,3.6231,3.6389,3.8679,4.1407,4.3707,4.3741,4.5838,4.8139,4.8563,4.8511,4.7699,4.5176,4.4228,4.3179,4.062,4.0113,4.0113,4.0113,4.0113,4.0113,4.0113,4.098,4.2164,4.3687,4.6481,4.8748,4.9781,5.2746,5.5015,5.5837,5.8616,6.1068,6.2683,6.2793,6.2793,6.2793,6.2793,6.2793,6.2793,6.2793,6.2793,6.2793,6.2793,6.2793,6.2793,6.2793,6.2793,6.2805,6.2953,6.3317,6.3871,6.4379,6.4896,6.5381,6.5723,6.5904,6.5904,6.5904,6.5904,6.591,6.5931,6.6024,6.6094,0.0,0.0,0.0,0.0,0.0,0.0,3.12,3.12,3.12,3.12,3.12,3.12,3.12,3.12,3.12,3.12,3.12,0.0,0.0,0.0,0.0,0.0,0.0,0.0,0.0,0.0,3.12,3.12,3.12,3.12,3.12,3.12,3.12,3.12,0.0,0.0,0.0,0.0,0.0,0.0,0.0,0.0,3.2395,0.0,0.0,0.0,0.0,0.0,0.0,0.0,0.0,0.0,0.0,3.6163,3.7235,3.9436,3.9592,3.9897,4.3586,4.5142,4.6061,4.7549,4.7361,4.6428,4.4939,4.3416,4.1894,4.0417,4.0113,4.0113,4.0113,4.0113,4.0113,4.0113,4.0113,4.0641,4.213,4.4939,4.6834,4.6819,5.016,5.2715,5.345,5.7711,6.1068,6.2683,6.2793,6.2793,6.2793,6.2793,6.2793,6.2793,6.2793,6.2793,6.2793,6.2793,6.2793,6.2793,6.2793,6.2793,6.2818,6.334,6.3892,6.4398,6.4875,6.541,6.5897,6.5897,6.5904,6.5904,6.5904,6.5904,6.5903,6.6049,6.6109,6.6139,0.0,0.0,0.0,0.0,0.0,0.0,0.0,3.12,3.12,3.12,3.12,3.12,3.12,3.12,3.12,3.12,3.12,0.0,0.0,0.0,0.0,0.0,0.0,0.0,0.0,3.12,3.12,3.12,3.12,3.12,3.12,3.12,3.12,3.12,3.12,3.12,0.0,0.0,0.0,0.0,3.12,3.1336,3.164,0.0,0.0,0.0,0.0,0.0,0.0,0.0,0.0,0.0,0.0,0.0,0.0,3.684,3.834,3.9897,4.0574,4.2063,4.347,4.3944,4.3876,4.3349,4.1873,4.1162,4.0371,3.8903,3.8599,3.8599,3.8599,3.9017,3.9356,3.9356,3.9762,4.062,4.2097,4.4865,4.732,4.887,5.2866,5.5985,5.7266,5.9213,6.086,6.1887,6.2499,6.2793,6.2793,6.2793,6.2793,6.2793,6.2793,6.2793,6.2793,6.2793,6.2793,6.2793,6.2793,6.299,6.334,6.3531,6.4069,6.4875,6.5051,6.541,6.5904,6.5904,6.5904,6.5904,6.5904,6.5961,6.6033,6.608,6.6229,6.6444,0.0,0.0,0.0,0.0,0.0,0.0,0.0,3.12,3.12,3.12,3.12,3.12,3.12,3.12,3.12,3.12,3.12,0.0,0.0,0.0,0.0,0.0,0.0,0.0,3.12,3.12,3.12,3.12,3.12,3.12,3.12,3.12,3.12,3.12,3.12,3.12,0.0,0.0,0.0,0.0,3.12,3.12,3.1268,0.0,0.0,0.0,0.0,0.0,0.0,0.0,0.0,0.0,0.0,0.0,0.0,0.0,3.693,3.8442,3.8531,3.9783,4.1183,4.1745,4.169,4.1217,4.029,3.966,3.9005,3.8091,3.791,3.791,3.791,3.8294,3.8565,3.8565,3.9186,3.9999,4.0946,4.3782,4.686,4.967,5.3599,5.6549,5.7838,5.9456,6.075,6.152,6.2365,6.2793,6.2793,6.2793,6.2793,6.2793,6.2793,6.2793,6.2793,6.2793,6.2793,6.2793,6.2793,6.3098,6.362,6.3808,6.4351,6.5115,6.5306,6.5583,0.0,6.5904,6.5904,6.5904,6.5904,6.598,6.6123,6.6174,6.6364,6.6621,0.0,0.0,0.0,0.0,0.0,0.0,0.0,3.12,3.12,3.12,3.12,3.12,3.12,3.12,3.12,3.12,0.0,0.0,0.0,0.0,0.0,0.0,0.0,0.0,3.12,3.12,3.12,3.12,3.12,3.12,3.12,3.12,3.12,3.12,3.12,3.12,0.0,0.0,0.0,0.0,3.12,3.12,0.0,0.0,0.0,0.0,0.0,0.0,0.0,0.0,0.0,0.0,0.0,0.0,0.0,0.0,0.0,0.0,0.0,3.8227,3.9073,4.046,4.0303,3.9795,3.977,3.8722,0.0,3.7741,3.7741,3.7741,3.7741,3.7775,3.7809,3.7809,3.8497,3.9017,3.9017,4.2271,4.5984,4.9619,5.2891,5.5136,5.5907,5.8604,6.0639,6.1447,6.2254,6.2756,6.2793,6.2793,6.2793,6.2793,6.2793,6.2793,6.2793,6.2793,6.2793,6.2793,6.2842,6.3132,6.3659,6.4197,6.4696,6.5169,6.5683,6.5904,6.5904,6.5904,6.5904,6.5904,6.5929,6.6014,6.6165,6.6341,6.6498,6.6635,0.0,0.0,0.0,0.0,0.0,0.0,0.0,0.0,0.0,0.0,3.12,3.12,3.12,3.12,3.12,0.0,0.0,0.0,0.0,0.0,0.0,0.0,0.0,0.0,3.12,3.12,3.12,3.12,3.12,3.12,3.12,3.12,3.12,3.12,3.12,3.12,0.0,0.0,0.0,0.0,3.12,3.12,0.0,0.0,0.0,0.0,3.2699,3.3535,0.0,0.0,0.0,0.0,0.0,0.0,0.0,0.0,3.56,3.5667,3.6039,0.0,3.649,3.6828,3.6794,3.6659,0.0,3.6377,3.614,3.614,3.614,3.614,3.614,3.6637,3.7054,3.7054,3.8137,3.9017,3.9017,4.4169,4.885,5.1215,5.4881,5.7072,5.67,5.8361,5.982,6.0639,6.1447,6.2144,6.2756,6.2793,6.2793,6.2793,6.2793,6.2793,6.2793,6.2793,6.2793,6.2793,6.3227,6.3691,6.4217,6.4713,6.523,6.571,6.5865,6.5904,6.5904,6.5904,6.5904,6.5929,6.6008,6.6174,6.6347,6.6503,6.6677,6.6833,0.0,0.0,0.0,0.0,0.0,0.0,0.0,0.0,0.0,0.0,0.0,0.0,0.0,0.0,0.0,0.0,0.0,0.0,0.0,0.0,0.0,0.0,0.0,3.12,3.12,3.12,3.12,3.12,3.12,3.12,3.12,3.12,3.12,3.12,3.12,3.12,0.0,0.0,3.12,3.12,3.12,0.0,0.0,0.0,0.0,0.0,3.2192,3.2801,0.0,3.428,3.4776,3.5137,0.0,0.0,0.0,0.0,3.56,3.56,3.56,3.56,3.56,3.56,3.56,3.56,3.56,3.56,3.56,3.56,3.56,3.56,3.56,3.5949,3.6231,3.6231,3.8343,4.0533,4.2177,4.652,5.0168,5.1862,5.5269,5.7462,5.7413,5.8481,5.938,5.982,6.0933,6.1777,6.2218,6.2609,6.2793,6.2793,6.2793,6.2793,6.2793,6.2793,6.2904,6.3168,6.3464,6.3988,6.4722,6.4965,6.5403,6.5904,6.5904,6.5904,6.5904,6.5904,6.5952,6.6019,6.6056,6.6275,6.6498,6.656,6.6737,6.6914,0.0,0.0,0.0,0.0,0.0,0.0,0.0,0.0,0.0,0.0,0.0,0.0,0.0,0.0,0.0,0.0,0.0,0.0,0.0,0.0,0.0,0.0,3.12,3.12,3.12,3.12,3.12,3.12,3.12,3.12,3.12,3.12,3.12,3.12,3.12,3.12,3.12,3.12,3.12,3.12,3.12,0.0,0.0,0.0,0.0,0.0,0.0,0.0,0.0,3.3738,3.4246,3.4472,3.5205,0.0,0.0,0.0,0.0,0.0,3.5577,3.56,3.56,3.56,3.56,3.56,3.56,3.56,3.56,3.56,3.56,3.5667,3.5915,3.5938,3.6005,3.6253,3.9193,4.266,4.6082,4.8787,5.0863,5.1934,5.5038,5.7277,5.7774,5.855,5.9086,5.9184,6.0456,6.1337,6.1594,6.2254,6.2683,6.2793,6.2793,6.2793,6.2793,6.2892,6.3144,6.3582,6.3766,6.4294,6.5107,6.5169,6.5461,6.5904,6.5904,6.5904,6.5904,6.5915,6.6014,6.6119,6.6153,6.6348,6.6618,6.663,6.6743,6.6953,0.0,0.0,0.0,0.0,0.0,0.0,0.0,0.0,0.0,0.0,0.0,0.0,0.0,0.0,0.0,0.0,0.0,0.0,0.0,0.0,0.0,3.12,3.12,3.12,3.12,3.12,3.12,3.12,3.12,3.12,3.12,3.12,3.12,3.12,3.12,3.12,3.12,3.12,3.12,3.12,3.12,0.0,0.0,0.0,0.0,0.0,0.0,0.0,0.0,3.2564,3.3061,3.3694,3.4438,0.0,0.0,0.0,0.0,0.0,3.543,3.56,3.56,3.56,3.56,3.56,3.56,3.56,3.56,3.56,3.56,3.6005,3.7302,3.7538,3.7956,3.922,4.1452,4.4027,4.6938,4.9989,5.1994,5.1994,5.5472,5.7643,5.7103,5.7752,5.8474,5.9159,5.9416,6.015,6.152,6.1704,6.2108,6.2793,6.2793,6.2793,6.2793,6.3262,6.3531,6.3593,6.4443,6.4941,6.5115,6.5569,6.5814,6.5904,6.5904,6.5904,6.5923,6.603,6.6075,6.6112,6.6407,6.6553,6.6625,6.6788,6.6874,6.7109,0.0,0.0,0.0,0.0,0.0,0.0,0.0,0.0,0.0,0.0,0.0,0.0,0.0,0.0,0.0,0.0,0.0,0.0,0.0,0.0,3.12,3.12,3.12,3.12,3.12,3.12,3.12,3.12,3.12,3.12,3.12,3.12,3.12,3.12,3.12,3.12,3.12,3.12,3.12,3.12,0.0,0.0,0.0,0.0,0.0,0.0,0.0,0.0,0.0,0.0,3.2301,3.2503,3.3564,0.0,0.0,0.0,0.0,0.0,3.486,3.5328,3.5802,3.6625,3.6219,3.56,3.56,3.56,3.56,3.56,3.56,3.6073,3.7606,3.791,3.9148,4.297,4.4491,4.6297,4.9545,5.1646,5.3019,5.3351,5.5765,5.7425,5.7486,5.7797,5.8143,5.8499,5.8939,5.9526,6.0272,6.1117,6.1777,6.2144,6.2572,6.2793,6.2793,6.3615,6.4019,6.4056,6.45,6.5003,6.5549,6.5788,6.5904,6.5904,6.5904,6.5904,6.5929,6.6039,6.6148,6.6287,6.6521,6.668,6.6785,6.6874,6.6914,6.707,0.0,0.0,0.0,0.0,0.0,0.0,0.0,0.0,0.0,0.0,0.0,0.0,0.0,0.0,0.0,0.0,0.0,0.0,0.0,3.12,3.12,3.12,3.12,3.12,3.12,3.12,3.12,3.12,3.12,3.12,3.12,3.12,3.12,3.12,3.12,3.1131,3.0988,3.1141,3.1121,3.0988,0.0,0.0,0.0,0.0,0.0,0.0,0.0,0.0,0.0,0.0,0.0,0.0,0.0,0.0,0.0,3.3157,3.3309,3.3325,3.4296,3.4968,3.5678,3.7031,3.6761,3.6219,3.6591,3.6659,3.6659,3.6648,3.6648,3.7133,3.8654,3.9491,4.1431,4.587,4.7199,4.8795,5.193,5.3276,5.4133,5.4762,5.6224,5.7388,5.795,5.7997,5.7997,5.7997,5.8572,5.9013,5.9184,6.0382,6.119,6.1594,6.2218,6.2609,6.2793,6.3745,6.4265,6.4389,6.4655,6.5153,6.5904,6.5904,6.5904,6.5904,6.5904,6.5909,6.5961,6.6095,6.6283,6.6457,6.6613,6.6745,6.6914,6.6914,6.6914,6.7031,0.0,0.0,0.0,0.0,0.0,0.0,0.0,0.0,0.0,0.0,0.0,0.0,0.0,0.0,0.0,0.0,0.0,0.0,0.0,3.12,3.12,3.12,3.12,3.12,3.12,3.12,3.12,3.12,3.12,3.12,3.12,3.12,3.12,3.12,3.12,3.0888,3.0404,3.0948,3.0878,3.0414,3.0958,0.0,0.0,0.0,0.0,0.0,0.0,0.0,0.0,0.0,0.0,0.0,0.0,0.0,3.021,3.2696,3.2573,3.2069,3.3996,3.4551,3.4776,3.5577,3.6761,3.8091,3.9457,3.9774,3.9795,3.977,3.977,4.0244,4.1711,4.4223,4.618,4.6531,4.8885,5.1262,5.2892,5.4448,5.5474,5.5519,5.6949,5.795,5.7997,5.7997,5.7997,5.7997,5.8033,5.84,5.9159,5.9306,6.004,6.1569,6.1679,6.2034,6.2793,6.3363,6.3913,6.4398,6.5344,6.5814,6.5904,6.5904,6.5904,6.5904,6.5904,6.5951,6.61,6.629,6.6463,6.6616,6.6789,6.6875,6.6914,6.6914,6.6914,6.7031,0.0,0.0,0.0,0.0,0.0,0.0,0.0,0.0,0.0,0.0,0.0,0.0,0.0,0.0,0.0,0.0,0.0,0.0,0.0,3.12,3.12,3.12,3.12,3.12,3.12,3.12,3.12,3.12,3.12,3.12,3.12,3.12,3.0988,3.0631,3.0631,3.0508,3.032,3.0539,3.0736,3.0878,3.1121,3.12,0.0,0.0,0.0,0.0,0.0,0.0,0.0,0.0,3.0139,2.9175,3.1026,3.0619,2.9801,3.1561,3.177,3.1678,3.2884,3.4533,3.6208,3.7415,3.8497,3.9186,3.8802,3.9445,4.0109,4.0109,4.0109,4.0561,4.2029,4.4749,4.7031,4.7886,4.9755,5.1551,5.3013,5.4142,5.5034,5.5548,5.6565,5.7446,5.796,5.7997,5.7997,5.7997,5.7997,5.8143,5.8437,5.8939,5.949,6.0077,6.108,6.1909,6.2553,6.3589,6.4341,6.4825,6.523,6.5569,6.5904,6.5904,6.5904,6.5904,6.5904,6.5969,6.6128,6.6312,6.6478,6.6625,6.6831,6.6914,6.6914,6.6914,6.6914,6.6953,0.0,0.0,0.0,0.0,0.0,0.0,0.0,0.0,0.0,0.0,0.0,0.0,0.0,0.0,0.0,0.0,0.0,0.0,3.12,3.12,3.12,3.12,3.1008,3.1022,3.119,3.0998,3.1022,3.12,3.12,3.1112,3.0908,3.0908,3.0716,3.0309,3.0309,3.0181,3.0032,3.0425,3.0693,3.0928,3.1131,3.1102,0.0,0.0,0.0,0.0,0.0,0.0,0.0,0.0,2.987,2.8583,3.057,3.0257,2.94,3.0859,3.1163,3.1264,3.2122,3.4197,3.6411,3.7934,3.9389,4.0235,3.9478,3.9715,4.0244,4.0684,4.1183,4.169,4.2198,4.4946,4.7341,4.8051,4.9991,5.1838,5.3039,5.3885,5.4693,5.5511,5.6308,5.7104,5.7923,5.7997,5.7997,5.7997,5.7997,5.7997,5.7997,5.8499,5.8939,5.9184,6.0529,6.1585,6.2375,6.3715,6.4626,6.5107,6.5276,6.5549,6.5904,6.5904,6.5904,6.5904,6.5931,6.6067,6.6204,6.6396,6.6535,6.6693,6.6834,6.6914,6.6914,6.6914,6.6914,6.6914,0.0,0.0,0.0,0.0,0.0,0.0,0.0,0.0,0.0,0.0,0.0,0.0,0.0,0.0,0.0,0.0,0.0,0.0,3.12,3.119,3.119,3.119,3.0611,3.057,3.1171,3.059,3.059,3.12,3.12,3.0888,3.0309,3.0309,3.0309,3.0299,3.0299,2.9946,2.9485,3.0662,3.0848,3.0372,3.0938,3.0838,3.032,0.0,0.0,0.0,0.0,0.0,0.0,0.0,2.9575,2.8027,3.0445,2.9957,2.8845,3.0662,3.0787,3.0611,3.1948,3.34,3.4923,3.6445,3.9039,4.1407,4.213,4.1149,4.0519,4.1995,4.3518,4.4141,4.2604,4.5314,4.7553,4.6779,4.9697,5.2358,5.3092,5.3885,5.4693,5.5475,5.6308,5.7116,5.7923,5.7997,5.7997,5.7997,5.7997,5.7997,5.7997,5.7997,5.8364,5.9159,5.9967,6.1032,6.2385,6.3715,6.4626,6.5115,6.5656,6.5904,6.5904,6.5904,6.5904,6.5923,6.6028,6.6204,6.6399,6.6539,6.6735,6.6914,6.6914,6.6914,6.6914,6.6914,6.6914,6.6914,0.0,0.0,0.0,0.0,0.0,0.0,0.0,0.0,0.0,0.0,0.0,0.0,0.0,0.0,0.0,0.0,0.0,0.0,3.12,3.0808,3.0559,3.0559,3.0404,3.0204,2.9935,3.016,3.059,3.12,3.12,3.0888,3.0309,3.0309,3.0064,2.9651,2.9214,2.9406,3.0021,2.9957,3.033,3.0908,3.0685,3.0693,3.0838,0.0,0.0,0.0,0.0,0.0,0.0,0.0,0.0,0.0,3.0445,3.0267,2.9406,3.0797,3.1823,3.2572,3.2975,3.5318,3.7799,3.8239,3.9783,4.1271,4.1474,4.1576,4.1487,4.0878,4.2807,4.4442,4.392,4.6017,4.8234,4.9506,5.1068,5.2358,5.3092,5.3398,5.3838,5.4656,5.5475,5.6271,5.7079,5.7666,5.7997,5.7997,5.7997,5.7997,5.7997,5.7997,5.8107,5.8364,5.9123,6.0348,6.2024,6.3003,6.4229,6.567,6.5814,6.5904,6.5904,6.5904,6.5904,6.5904,6.5925,6.6129,6.6409,6.6682,6.6834,6.6914,6.6914,6.6914,6.6914,6.6914,6.6914,6.6914,0.0,0.0,0.0,0.0,0.0,0.0,0.0,0.0,0.0,0.0,3.12,3.12,0.0,0.0,0.0,0.0,0.0,0.0,3.0838,3.0288,2.9935,2.9935,2.9706,2.9529,2.9395,2.975,3.0257,3.0838,3.0838,3.0528,2.9935,2.9935,2.9618,2.9042,2.9157,2.9485,2.9924,2.9805,3.033,3.1151,3.0539,3.0518,3.0747,0.0,0.0,0.0,0.0,0.0,0.0,0.0,0.0,0.0,3.0518,3.0372,2.964,3.0848,3.2239,3.3413,3.3413,3.5926,3.8633,3.8949,4.0121,4.1204,4.1204,4.1779,4.2063,4.1149,4.2909,4.4686,4.4936,4.6504,4.8417,5.0306,5.1442,5.2358,5.3092,5.3214,5.3508,5.4289,5.5108,5.5915,5.6701,5.7519,5.7997,5.7997,5.7997,5.7997,5.7997,5.7997,5.7997,5.7997,5.896,6.0093,6.1425,6.2735,6.4038,6.5397,6.575,6.5904,6.5904,6.5904,6.5904,6.5916,6.6047,6.6255,6.6495,6.6785,6.6914,6.6914,6.6914,6.6914,6.6914,6.6914,6.6914,6.6875,0.0,0.0,0.0,0.0,0.0,0.0,0.0,0.0,0.0,0.0,3.12,3.12,0.0,0.0,0.0,0.0,0.0,0.0,0.0,2.9651,2.9316,2.9316,2.8748,2.8736,2.9384,2.935,2.9618,3.0235,3.0235,2.9903,2.9316,2.9316,2.9042,2.863,2.9673,2.9881,2.9518,3.0053,3.0611,3.1082,3.0518,3.0341,3.033,2.9706,0.0,0.0,0.0,0.0,0.0,0.0,0.0,0.0,3.0631,3.0414,2.9706,3.0858,3.2239,3.3413,3.3548,3.5712,3.8079,3.8903,4.0223,4.1339,4.1407,4.1982,4.2435,4.2164,4.3416,4.4832,4.5566,4.6894,4.8399,4.9943,5.1335,5.2427,5.3103,5.3214,5.3471,5.4216,5.4997,5.5805,5.6602,5.7409,5.7923,5.7997,5.7997,5.7997,5.7997,5.7997,5.802,5.804,5.9176,6.0112,6.0769,6.2631,6.392,6.4628,6.5397,6.582,6.5904,6.5904,6.5916,6.594,6.6267,6.6476,6.6622,6.6831,6.6914,6.6914,6.6914,6.6914,6.6914,6.6914,6.6914,6.6874,0.0,0.0,0.0,0.0,0.0,0.0,0.0,0.0,0.0,0.0,0.0,0.0,0.0,0.0,0.0,0.0,0.0,0.0,0.0,2.9019,2.8701,2.8701,2.8113,2.8307,2.9384,2.8927,2.8985,2.9596,2.9596,2.9282,2.8701,2.8701,2.8889,2.9191,2.8973,2.9339,3.0096,3.0224,3.0383,3.0477,3.0362,3.057,3.0938,3.0341,3.0204,0.0,0.0,0.0,0.0,0.0,0.0,0.0,3.0787,3.0716,3.0267,3.0968,3.2239,3.3649,3.4799,3.649,3.8227,3.9525,4.098,4.2219,4.278,4.3538,4.3416,4.106,4.2706,4.4796,4.5508,4.7289,4.9332,5.1323,5.24,5.3039,5.3193,5.3214,5.3251,5.3434,5.4179,5.495,5.5768,5.6602,5.7336,5.796,5.7997,5.7997,5.7997,5.7997,5.8186,5.8528,5.8838,5.9694,6.121,6.1682,6.2832,6.4589,6.4782,6.5243,6.5904,6.5904,6.5961,6.6084,6.629,6.6476,6.6622,6.6831,6.6914,6.6914,6.6914,6.6914,6.6914,6.6914,6.6914,6.6874,0.0,0.0,0.0,0.0,0.0,0.0,0.0,0.0,0.0,0.0,0.0,0.0,0.0,0.0,0.0,0.0,0.0,0.0,0.0,0.0,2.8052,2.8052,2.776,2.8015,2.8938,2.8379,2.8367,2.8962,2.867,2.8547,2.8499,2.8807,2.8927,2.8973,2.9248,2.9706,3.0288,2.9978,3.0181,3.0726,3.0425,3.0642,3.1131,3.0528,3.0477,3.0672,3.0404,0.0,0.0,0.0,0.0,0.0,0.0,0.0,3.0425,3.1008,3.2239,3.3717,3.5205,3.6727,3.8261,3.9728,4.1217,4.2401,4.2794,4.3789,4.4141,4.2584,4.3532,4.5021,4.6398,4.7869,4.9589,5.1766,5.2725,5.3214,5.3214,5.3214,5.3214,5.3214,5.3911,5.4546,5.4997,5.6088,5.6957,5.7409,5.7776,5.7997,5.7997,5.8205,5.845,5.8703,5.9121,5.9828,6.0766,6.1409,6.2311,6.3403,6.4205,6.5051,6.5904,6.5904,6.5963,6.6123,6.6309,6.6476,6.6622,6.6831,6.6914,6.6914,6.6914,6.6914,6.6914,6.6914,6.6833,6.6737,0.0,0.0,0.0,0.0,0.0,0.0,0.0,0.0,0.0,0.0,0.0,0.0,0.0,0.0,0.0,0.0,0.0,0.0,0.0,0.0,0.0,2.7585,2.7585,2.7835,2.8331,2.786,2.7848,2.8331,2.7848,2.791,2.8511,2.9008,2.8973,2.8547,2.9651,3.0128,3.0107,2.9717,3.0118,3.0998,3.0601,3.0767,3.1151,3.0631,3.0777,3.1141,3.0621,3.0787,3.12,3.12,0.0,0.0,0.0,0.0,3.0549,3.1038,3.207,3.3345,3.4833,3.6524,3.8261,3.9728,4.1217,4.23,4.23,4.3484,4.4615,4.4615,4.4615,4.5211,4.7222,4.8301,4.9553,5.1585,5.2615,5.3214,5.3214,5.3214,5.3214,5.3214,5.3801,5.4252,5.4399,5.5611,5.648,5.6774,5.75,5.7972,5.8119,5.856,5.8855,5.8951,5.9712,6.0139,6.021,6.1307,6.1941,6.2139,6.3782,6.4974,6.5673,6.5844,6.5997,6.6144,6.6323,6.6488,6.664,6.6833,6.6914,6.6914,6.6914,6.6914,6.6914,6.6874,6.674,6.6562,0.0,0.0,0.0,0.0,0.0,0.0,0.0,0.0,0.0,0.0,3.0021,3.0118,0.0,0.0,0.0,0.0,0.0,0.0,2.7748,0.0,0.0,2.7585,2.7585,2.7635,2.771,2.7635,2.7635,2.771,2.7635,2.791,2.8499,2.8583,2.8583,2.8523,2.9214,2.9518,2.9551,2.9989,3.0288,3.0456,3.0898,3.1131,3.119,3.1121,3.1131,3.1181,3.1121,3.1131,3.12,3.12,3.1151,0.0,0.0,0.0,3.1102,3.1181,3.1336,3.1799,3.3277,3.5746,3.8261,3.9728,4.1217,4.23,4.23,4.3484,4.4615,4.4615,4.4615,4.5041,4.6504,4.7937,4.9375,5.0829,5.2262,5.3214,5.3214,5.3214,5.3214,5.3214,5.3287,5.3618,5.4326,5.4583,5.5317,5.6701,5.7291,5.7867,5.8574,5.9037,5.9484,5.9901,6.0014,6.0304,6.0722,6.0879,6.1364,6.2139,6.3782,6.4666,6.4794,6.5677,6.6196,6.6354,6.6377,6.6574,6.6874,6.6875,6.6914,6.6914,6.6914,6.6914,6.6874,6.6692,6.6625,6.6553,0.0,0.0,0.0,0.0,0.0,0.0,0.0,0.0,0.0,0.0,0.0,2.9695,0.0,0.0,0.0,2.8547,2.8186,2.7885,2.761,2.7585,2.7585,2.7585,2.7585,2.7585,2.7585,2.7585,2.7585,2.7585,2.7585,2.791,2.8499,2.8499,2.8689,2.9019,2.964,2.9903,2.9913,3.0204,3.0497,3.0828,3.1102,3.12,3.12,3.12,3.12,3.12,3.12,3.12,3.12,3.12,3.12,3.12,3.12,0.0,0.0,0.0,3.12,3.1529,3.3017,3.5611,3.8058,3.87,4.029,4.1779,4.2198,4.3132,4.4045,4.4499,4.4865,4.5535,4.6943,4.813,4.946,5.122,5.2468,5.3214,5.3214,5.3214,5.3214,5.3214,5.3214,5.3324,5.3691,5.4142,5.4785,5.5706,5.6395,5.7255,5.8325,5.8828,5.9384,6.0065,6.0351,6.0603,6.0781,6.0787,6.1248,6.2095,6.2864,6.3705,6.4634,6.5139,6.5738,6.6393,6.6478,6.6669,6.6914,6.6914,6.6914,6.6914,6.6914,6.6914,6.6874,6.6683,6.6543,6.6457,0.0,0.0,0.0,0.0,0.0,0.0,0.0,0.0,0.0,0.0,0.0,0.0,0.0,0.0,0.0,0.0,2.786,2.7585,2.7585,2.7585,2.7585,2.7585,2.7585,2.7585,2.7585,2.7585,2.7585,2.7585,2.7585,2.791,2.8499,2.8665,2.8962,2.9417,2.987,3.0172,3.0309,3.0309,3.0631,3.12,3.12,3.12,3.12,3.12,3.12,3.12,3.12,3.12,3.12,3.12,3.12,3.12,3.12,3.12,0.0,0.0,0.0,3.1529,3.3017,3.5036,3.693,3.7707,3.9276,4.0933,4.2063,4.2861,4.3681,4.4633,4.5196,4.5936,4.7358,4.8283,4.9432,5.1391,5.238,5.2957,5.3177,5.3214,5.3214,5.3214,5.3214,5.3214,5.3214,5.3829,5.4445,5.4977,5.579,5.6752,5.7921,5.8613,5.9282,5.9939,6.0507,6.0787,6.0787,6.0787,6.1133,6.1787,6.1979,6.2749,6.3992,6.4595,6.5328,6.6088,6.6457,6.6695,6.6914,6.6914,6.6914,6.6914,6.6914,6.6874,6.6789,6.6616,6.6463,6.629,0.0,0.0,0.0,0.0,0.0,0.0,0.0,0.0,0.0,0.0,0.0,0.0,2.776,2.8161,2.8259,2.7698,2.761,2.7585,2.7585,2.7585,2.7585,2.7585,2.7585,0.0,2.7585,2.7585,2.7585,2.7585,2.7585,2.791,2.8511,2.9088,2.9372,2.9395,2.9429,2.9761,3.0309,3.0309,3.0631,3.12,3.12,3.12,3.12,3.12,3.12,3.12,3.12,3.12,3.12,3.12,3.12,3.12,3.12,3.12,3.12,0.0,0.0,0.0,3.3017,3.3514,3.4326,3.72,3.8497,3.9648,4.1826,4.2861,4.3797,4.5161,4.5468,4.59,4.7182,4.8074,4.9112,5.0637,5.1536,5.2344,5.3104,5.3214,5.3214,5.3214,5.3214,5.3214,5.3214,5.3573,5.4168,5.4931,5.585,5.6744,5.7568,5.8808,5.9483,5.9521,6.0352,6.0787,6.0787,6.0787,6.0825,6.0864,6.171,6.2133,6.2272,6.4194,6.5103,6.5235,6.6186,6.6695,6.6914,6.6914,6.6914,6.6914,6.6914,6.6787,6.6613,6.6457,6.6283,6.6095,0.0,0.0,0.0,0.0,0.0,0.0,0.0,0.0,0.0,0.0,0.0,0.0,0.0,2.7798,2.7835,2.761,2.7585,2.7585,2.7585,2.7585,2.7585,2.7585,2.7585,2.7585,2.7585,2.7585,2.7585,2.7585,2.7585,2.791,2.8499,2.8736,2.9237,2.9989,3.0383,3.0456,3.0341,3.0693,3.0988,3.12,3.12,3.12,3.12,3.12,3.12,3.1336,3.2273,3.2611,3.2747,3.3683,3.3379,3.2611,3.2611,3.1968,3.12,3.12,3.12,3.1336,3.1833,3.2679,3.3649,3.4731,3.5915,3.7166,3.8476,4.0066,4.1695,4.3074,4.4815,4.6365,4.7244,4.8045,4.8927,4.9878,5.1143,5.2097,5.238,5.2847,5.3214,5.3214,5.3214,5.3277,5.3556,5.372,5.4161,5.4988,5.5382,5.6052,5.7178,5.7647,5.8396,5.9473,5.9819,6.0242,6.0787,6.0787,6.0787,6.0787,6.1133,6.1556,6.2119,6.3076,6.4097,6.5124,6.5699,6.6325,6.6914,6.6914,6.6914,6.6914,6.6914,6.6786,6.6567,6.6446,6.6268,6.607,0.0,0.0,0.0,2.9088,0.0,2.8799,2.8799,2.8799,2.8646,2.8247,0.0,0.0,0.0,0.0,2.7585,2.7585,2.7585,2.7585,2.7585,2.7585,2.7585,2.7585,2.7585,2.7585,2.7585,2.7585,2.7585,2.7585,2.7585,2.791,2.8499,2.8713,2.9339,3.0341,3.0928,3.0968,3.0611,3.1042,3.12,3.12,3.12,3.12,3.1268,3.1732,3.1935,3.2138,3.3615,3.4157,3.4292,3.5273,3.463,3.3413,3.3413,3.2374,3.12,3.12,3.12,3.12,3.12,3.1901,3.278,3.3277,3.4157,3.5205,3.6513,3.8668,4.0805,4.2207,4.4751,4.6943,4.7565,4.8141,4.8738,4.9478,5.0482,5.1289,5.1583,5.2307,5.2821,5.2821,5.316,5.3524,5.3749,5.4046,5.447,5.5074,5.5218,5.5685,5.6505,5.6824,5.7632,5.905,5.9358,5.9781,6.0358,6.0666,6.0787,6.0787,6.0787,6.1147,6.1764,6.2326,6.3387,6.4807,6.5376,6.6094,6.6914,6.6914,6.6874,6.6789,6.6789,6.6631,6.6413,6.6341,6.6196,6.6024,0.0,2.8869,2.8463,2.8463,2.7996,2.7585,2.7585,2.7585,2.7585,2.7585,0.0,0.0,0.0,0.0,0.0,2.7585,2.7585,2.7585,2.7585,2.7585,2.7585,2.7585,2.7585,2.7585,2.7585,2.7585,2.7585,2.7585,2.761,2.7934,2.8511,2.9134,2.9739,3.0341,3.0928,3.12,3.12,3.12,3.12,3.12,3.1268,3.1258,3.1437,3.2905,3.3446,3.3649,3.5126,3.5667,3.5667,3.5701,3.4731,3.3446,3.3345,3.2341,3.12,3.12,3.12,3.12,0.0,0.0,0.0,3.2983,3.3355,3.3931,3.6175,3.8814,4.123,4.2753,4.5301,4.7482,4.8163,4.8296,4.86,4.9417,4.9574,4.9858,5.0655,5.1463,5.195,5.1971,5.3047,5.3758,5.3786,5.4595,5.5114,5.5127,5.5464,5.5708,5.5708,5.6516,5.7401,5.8242,5.905,5.9473,5.9511,6.0319,6.0781,6.0787,6.0787,6.0866,6.1049,6.2033,6.3049,6.4166,6.5151,6.6055,6.6914,6.6914,6.6787,6.6616,6.6616,6.6393,6.6109,6.6109,6.6014,6.5904,2.81,2.7953,2.7848,2.7848,2.771,2.7585,2.7585,2.7585,2.7585,0.0,0.0,0.0,2.7585,2.7585,2.7585,2.7585,2.7585,2.7585,2.7585,2.7585,2.7585,2.7585,2.7585,2.7585,2.7585,2.7585,2.7585,2.7585,2.8045,2.8331,2.8523,2.9563,3.0128,3.0341,3.0928,3.12,3.12,3.12,3.12,3.1292,3.2374,3.278,3.2939,3.4427,3.4991,3.5205,3.6727,3.7268,3.7437,3.851,3.7144,3.463,3.2476,3.1539,3.12,3.12,3.12,3.12,3.12,0.0,0.0,0.0,0.0,0.0,3.3964,3.5347,3.7436,4.1471,4.3365,4.512,4.7785,4.8296,4.8379,4.8636,4.9197,4.9684,4.9894,5.0618,5.1236,5.1473,5.2335,5.3176,5.3739,5.4604,5.5218,5.5493,5.5621,5.5708,5.5708,5.6516,5.7093,5.7363,5.8204,5.8896,5.9473,5.9742,6.0165,6.0787,6.0787,6.0866,6.101,6.1447,6.254,6.4127,6.4487,6.5508,6.6914,6.6914,6.6787,6.6616,6.6616,6.6393,6.6109,6.6109,6.6014,6.5904,2.7585,2.7585,2.7585,2.7585,2.7585,2.7585,2.7585,2.7585,2.7585,0.0,0.0,0.0,2.7585,2.7585,2.7585,2.7585,2.7585,2.7585,2.7585,2.7585,2.7585,2.7585,2.7585,2.7585,2.7585,2.7585,2.7585,2.7585,2.8198,2.863,2.8912,2.9848,3.0435,3.0706,3.1052,3.12,3.1234,3.1539,3.2012,3.2588,3.251,3.3051,3.3998,3.5171,3.56,3.587,3.8058,3.9005,3.9377,3.9897,3.8531,3.5915,3.2341,3.163,3.2002,3.1393,3.12,3.12,3.12,3.12,3.12,3.12,0.0,0.0,3.2273,3.386,3.6187,3.9828,4.1743,4.3604,4.6295,4.6507,4.6507,4.7205,4.7719,4.8279,4.8976,4.9774,5.037,5.0583,5.1622,5.2546,5.3006,5.4123,5.4936,5.5192,5.5516,5.5708,5.5708,5.617,5.6478,5.6478,5.7286,5.8165,5.8973,5.9319,5.9935,6.0787,6.0787,6.0923,6.1135,6.1243,6.2334,6.4201,6.4256,6.5273,6.6875,6.6791,6.6677,6.6509,6.6413,6.6248,6.6019,6.6019,6.5984,6.5904,0.0,2.7585,2.7585,2.7585,2.7585,2.7585,2.7585,2.7585,2.7585,0.0,2.7585,2.7585,2.7585,2.7585,2.7585,2.7585,2.7585,2.7585,2.7585,2.7585,2.7585,2.7585,2.7585,2.7585,2.7585,2.7585,2.7623,2.7698,2.8295,2.8892,2.9507,3.0107,3.0706,3.12,3.12,3.1234,3.1369,3.2022,3.3241,3.4584,3.2713,3.3231,3.5227,3.6017,3.6355,3.6693,3.9389,4.0777,4.117,4.01,3.8983,3.7234,3.2814,3.2341,3.3142,3.1833,3.1326,3.12,3.12,3.12,3.12,3.12,3.12,0.0,3.1403,3.3578,3.6111,3.8102,4.0113,4.2088,4.3895,4.3693,4.3756,4.525,4.5736,4.6471,4.8076,4.8967,4.9483,4.9541,5.0912,5.1873,5.191,5.3491,5.4511,5.4511,5.5247,5.5708,5.5708,5.5708,5.5708,5.5708,5.6439,5.7324,5.8275,5.9011,5.9858,6.0787,6.0821,6.0993,6.1286,6.142,6.2494,6.4297,6.4414,6.539,6.6875,6.6678,6.6505,6.6371,6.6166,6.6019,6.5904,6.5904,6.5904,6.5904,2.7585,2.7585,2.7585,2.7585,2.7585,2.7585,2.7585,2.7585,2.7585,2.7585,2.7585,2.7585,2.7585,2.7585,2.7585,2.7585,2.7585,2.7585,2.7585,2.7585,2.7585,2.7585,2.7585,2.7585,2.7585,2.7585,2.7848,2.8319,2.8927,2.9529,3.0128,3.0757,3.1102,3.12,3.12,3.1539,3.209,3.2226,3.3884,3.6378,3.6535,3.755,3.9165,4.0506,4.1001,4.1068,4.1657,4.1961,4.161,3.8488,3.8036,3.8091,3.4201,3.3186,3.3345,3.3041,3.2138,3.12,3.12,3.12,3.12,3.12,3.12,0.0,3.2713,3.2566,3.3245,3.7079,3.7335,3.7749,4.0682,4.1651,4.2195,4.2895,4.4635,4.6471,4.8076,4.8443,4.8678,4.9004,5.0209,5.1159,5.1408,5.3276,5.4511,5.4511,5.5247,5.5708,5.5708,5.5708,5.5708,5.5708,5.5862,5.6703,5.8275,5.8467,5.9319,6.0787,6.0905,6.1073,6.1328,6.2143,6.317,6.4336,6.5039,6.5937,6.6874,6.6572,6.6418,6.6371,6.6166,6.6019,6.5904,6.5904,6.5904,6.5904,2.8492,2.8259,2.8137,2.8463,2.799,2.7698,2.8021,2.7798,2.7585,2.7585,2.7585,2.7585,2.7585,2.7585,2.7585,2.7585,2.7585,2.7585,2.7585,2.7585,2.7585,2.7585,2.7897,2.791,2.7597,2.8198,2.8511,2.8499,2.9406,2.9989,3.032,3.0908,3.12,3.1234,3.1572,3.1955,3.2395,3.3918,3.5847,3.7833,3.7077,3.7889,3.966,4.0777,4.1183,4.1284,4.2029,4.23,4.1961,3.9749,3.9242,3.9039,3.6028,3.4573,3.3863,3.3514,3.2374,3.12,3.12,3.12,3.12,3.12,3.12,0.0,0.0,3.1896,3.2366,3.5387,3.5267,3.5429,3.8111,3.8928,3.9609,4.0907,4.247,4.4085,4.5663,4.7278,4.8355,4.8577,4.9326,4.9904,5.0107,5.1802,5.3366,5.4423,5.5247,5.5708,5.5708,5.5708,5.5708,5.5708,5.5708,5.6549,5.8275,5.8313,5.9127,6.0787,6.092,6.1112,6.1331,6.2321,6.3336,6.4336,6.5234,6.6094,6.6874,6.6548,6.6387,6.6361,6.6109,6.5967,6.5904,6.5904,6.5904,6.5904,2.9293,2.8729,2.8487,2.8973,2.8259,2.776,2.8247,2.7922,2.7585,2.7585,2.7698,2.7876,2.8155,2.8061,2.8062,2.8343,2.8105,2.791,2.7785,2.7897,2.7879,2.7785,2.8234,2.8319,2.7941,2.8787,2.91,2.8865,2.9816,3.0372,3.0487,3.0958,3.1268,3.1437,3.2012,3.2632,3.3343,3.578,3.7814,3.9246,3.7564,3.7978,3.9728,4.062,4.0866,4.0904,4.2531,4.3024,4.277,4.175,4.1104,4.0312,3.7799,3.6175,3.4945,3.3931,3.2577,3.1369,3.1234,3.12,3.12,3.12,3.12,3.12,0.0,0.0,0.0,3.3433,3.3444,3.3776,3.5528,3.6037,3.6777,3.8569,3.9962,4.1332,4.2625,4.5443,4.7388,4.7388,4.7712,4.8112,4.8402,5.0255,5.229,5.4336,5.5155,5.561,5.5703,5.5708,5.5708,5.5708,5.5862,5.6703,5.8275,5.8467,5.9281,6.0787,6.0968,6.115,6.1331,6.2537,6.3539,6.4375,6.539,6.621,6.6831,6.6537,6.6368,6.6302,6.6008,6.5904,6.5904,6.5904,6.5904,6.5904,2.8904,2.8131,2.7723,2.7798,2.7685,2.761,2.7685,2.7635,2.7585,2.7585,2.8082,2.8915,3.0198,2.9663,2.9734,3.1015,2.9937,2.8962,2.8427,2.8892,2.895,2.8415,2.8451,2.8736,2.9191,2.883,2.9088,3.0118,3.0246,3.057,3.1102,3.1171,3.1539,3.2192,3.2259,3.3783,3.6321,3.6648,3.8344,4.0816,4.1337,4.1677,4.2097,4.3532,4.3615,4.3197,4.5196,4.5608,4.4824,4.2765,4.2513,4.2408,3.8891,3.7652,3.711,3.4979,3.3332,3.2022,3.1369,3.12,3.12,3.12,3.12,3.12,3.12,0.0,3.1322,3.1502,0.0,3.1675,3.2271,0.0,0.0,3.4929,3.7849,4.0092,4.0275,4.2478,4.4057,4.4057,4.4411,4.5199,4.6621,4.9897,5.2641,5.4358,5.4915,5.5306,5.5692,5.5708,5.5708,5.5708,5.6439,5.7324,5.8275,5.9011,5.9858,6.0793,6.1128,6.1268,6.1376,6.3254,6.4179,6.4375,6.6055,6.6711,6.6624,6.646,6.629,6.6123,6.5967,6.5904,6.5904,6.5904,6.5904,6.5904,2.9618,2.9065,2.8634,2.8634,2.8355,2.8234,2.8575,2.8355,2.8247,2.8587,2.8571,2.9188,3.1012,2.9805,2.9963,3.2638,3.1197,3.0396,3.0894,3.0771,3.0562,3.0249,2.9777,2.9699,3.0026,3.0059,3.0128,3.0309,3.0642,3.0938,3.12,3.12,3.1572,3.2361,3.3626,3.5355,3.745,3.9234,4.0385,4.1082,4.2274,4.2277,4.1803,4.4202,4.5113,4.5221,4.6094,4.6257,4.5886,4.494,4.4061,4.3228,4.2448,3.9927,3.7238,3.7053,3.5087,3.3051,3.3582,3.4042,3.4139,3.3335,3.3413,3.3279,3.1569,3.12,3.12,3.12,0.0,0.0,0.0,0.0,0.0,0.0,3.7424,3.9203,3.9203,4.0084,4.1405,4.3286,4.3656,4.4469,4.6299,4.7947,4.9705,5.1806,5.3046,5.3878,5.4226,5.5164,5.5708,5.5708,5.6555,5.744,5.8275,5.9088,5.9986,6.0925,6.1169,6.1331,6.1487,6.3426,6.4297,6.4414,6.6133,6.6788,6.6571,6.6452,6.6279,6.6085,6.5949,6.5904,6.5904,6.5904,6.5904,6.5904,3.0257,2.9816,2.9395,2.9395,2.9031,2.888,2.9327,2.9019,2.8892,2.9339,2.9157,2.9788,3.1919,3.0767,3.1138,3.432,3.3017,3.2391,3.3211,3.2531,3.2187,3.2372,3.1428,3.1032,3.1292,3.1473,3.1229,3.0539,3.0978,3.12,3.12,3.12,3.1708,3.2655,3.4292,3.6361,3.8753,4.0984,4.2275,4.2832,4.3672,4.3488,4.296,4.4729,4.5929,4.6716,4.6876,4.6795,4.6658,4.6658,4.5564,4.4257,4.4834,4.217,3.8905,3.9274,3.7502,3.5596,3.6306,3.6549,3.6408,3.5652,3.5185,3.448,3.2802,3.2104,3.1732,3.1539,3.1505,0.0,0.0,0.0,3.4744,3.5288,0.0,3.8358,3.8358,3.8579,3.957,4.1927,4.2588,4.348,4.5041,4.5932,4.7237,4.928,5.0913,5.2225,5.3144,5.4357,5.5241,5.5708,5.6786,5.7671,5.8275,5.9319,6.0238,6.1006,6.1207,6.1361,6.1544,6.3432,6.4297,6.4414,6.6133,6.6782,6.6531,6.6435,6.6244,6.6056,6.5958,6.5904,6.5904,6.5904,6.5904,6.5904,3.0414,2.9816,2.9395,2.9395,2.9384,2.9384,2.9395,2.9384,2.9384,2.9395,2.9881,3.1077,3.329,3.3345,3.4164,3.6412,3.59,3.5203,3.4664,3.3829,3.3717,3.455,3.3199,3.2696,3.3294,3.274,3.2042,3.1171,3.119,3.12,3.12,3.12,3.1968,3.3379,3.3446,3.6224,4.092,4.099,4.3411,4.7155,4.654,4.6667,4.7039,4.5714,4.6091,4.7438,4.8035,4.7848,4.7363,4.7363,4.6896,4.6059,4.4664,4.4097,4.3565,4.1431,4.075,4.036,3.9041,3.7669,3.6769,3.7602,3.5599,3.3816,3.5137,3.4359,3.3119,3.2429,3.2259,3.2269,3.228,3.3072,3.3994,0.0,3.6355,0.0,0.0,3.8212,3.8726,3.8828,4.0223,4.1378,4.1812,4.4317,4.6437,4.7676,4.8914,5.0645,5.3056,5.3236,5.401,5.567,5.7357,5.828,5.8313,5.9935,6.086,6.1006,6.1207,6.1361,6.1544,6.3432,6.4297,6.4414,6.6133,6.6722,6.6396,6.639,6.6191,6.5916,6.5904,6.5904,6.5904,6.5904,6.5904,6.5904,3.0928,3.0747,3.0351,2.954,2.9728,3.0118,3.0528,3.0267,3.05,3.1877,3.1868,3.296,3.611,3.5148,3.5542,3.8669,3.7452,3.6808,3.7444,3.727,3.7235,3.745,3.6121,3.5189,3.4864,3.3718,3.2458,3.12,3.12,3.12,3.119,3.1708,3.2452,3.348,3.499,3.7884,4.172,4.2265,4.3833,4.5915,4.5718,4.5081,4.4515,4.6504,4.756,4.8025,4.8238,4.8153,4.8005,4.8005,4.7565,4.706,4.6959,4.5655,4.4147,4.3853,4.2736,4.1755,4.2244,4.2334,4.2026,4.099,3.9529,3.7868,3.6037,3.4461,3.3322,3.3085,3.3017,3.3017,3.3017,3.4235,0.0,0.0,0.0,3.8285,0.0,3.8542,3.8681,3.8681,3.9195,3.9992,4.1195,4.2355,4.3766,4.5527,4.7245,4.9199,5.1418,5.2587,5.3972,5.567,5.7396,5.8313,5.8313,5.9973,6.0948,6.1204,6.1259,6.1404,6.1673,6.3476,6.4297,6.4414,6.6133,6.6721,6.6387,6.6387,6.6187,6.5904,6.5904,6.5904,6.5904,6.5904,6.5904,6.5904,3.1572,3.1799,3.1587,3.0259,3.0372,3.0757,3.1141,3.1304,3.1679,3.2492,3.3181,3.4485,3.6831,3.658,3.7369,4.0232,3.9518,3.9246,4.0074,3.9677,3.959,4.0099,3.8743,3.7718,3.7215,3.5765,3.4258,3.2747,3.1979,3.1742,3.2002,3.2182,3.2824,3.3863,3.5329,3.7901,4.1227,4.2363,4.3835,4.5452,4.5452,4.4788,4.4097,4.6515,4.733,4.7297,4.8028,4.8296,4.8296,4.8296,4.8045,4.7787,4.82,4.707,4.5729,4.619,4.5309,4.4392,4.5133,4.527,4.4957,4.3956,4.2483,4.0788,3.878,3.7182,3.6042,3.5769,3.5247,3.4924,3.5184,3.5807,3.6372,0.0,0.0,0.0,0.0,3.8681,3.8681,3.8681,3.8681,3.9265,4.07,4.12,4.2235,4.4195,4.5694,4.776,5.0538,5.1707,5.3356,5.5631,5.7396,5.8313,5.8313,6.0002,6.1005,6.1286,6.1339,6.1495,6.1758,6.3515,6.4297,6.4375,6.6051,6.6658,6.6384,6.632,6.6148,6.5904,6.5904,6.5904,6.5904,6.5904,6.5904,6.5904,3.2361,3.2926,3.2949,3.1562,3.1302,3.1302,3.1302,3.251,3.2905,3.1596,3.392,3.5731,3.5803,3.7802,3.9732,4.112,4.1889,4.23,4.23,4.1022,4.0886,4.23,4.1022,4.0244,4.0176,3.8688,3.7133,3.56,3.3434,3.2723,3.3379,3.2723,3.3163,3.4516,3.455,3.6419,3.968,4.1222,4.3438,4.592,4.5993,4.5948,4.5893,4.5984,4.5669,4.5467,4.7565,4.8296,4.8296,4.8296,4.8296,4.8296,4.8296,4.8296,4.8296,4.8296,4.8296,4.8153,4.7586,4.6416,4.5529,4.6267,4.427,4.236,4.316,4.2159,4.0862,4.0142,3.879,3.7885,3.8431,3.7685,3.7177,0.0,0.0,0.0,3.8681,3.8681,3.8681,3.8681,3.8704,3.9128,4.0214,4.0798,4.1905,4.3672,4.4343,4.6399,5.0375,5.063,5.2207,5.5478,5.7357,5.8313,5.8313,6.0104,6.1109,6.1289,6.146,6.1577,6.1758,6.3515,6.4297,6.4375,6.5945,6.6521,6.6374,6.617,6.603,6.5904,6.5904,6.5904,6.5904,6.5904,6.5904,6.5904,3.3119,3.3288,3.3277,3.2905,3.2848,3.2848,3.2848,3.3142,3.3649,3.4393,3.6118,3.7715,3.8849,4.0438,4.1612,4.1977,4.2193,4.23,4.23,4.2442,4.2713,4.3085,4.2746,4.2036,4.092,3.8925,3.7133,3.56,3.392,3.322,3.3423,3.3772,3.4144,3.4506,3.5081,3.6915,3.9645,4.0045,4.2409,4.5993,4.7205,4.6768,4.5532,4.7091,4.6655,4.5467,4.7565,4.8296,4.8296,4.8296,4.8296,4.8296,4.8296,4.8296,4.8296,4.8296,4.8296,4.8267,4.8104,4.7792,4.7465,4.7212,4.5733,4.433,4.403,4.2798,4.1686,4.151,4.1145,4.054,3.9528,3.9361,3.9075,3.8074,0.0,0.0,3.8681,3.8681,3.8681,3.8681,3.8877,3.9021,3.9135,4.0791,4.2033,4.2529,4.4275,4.6345,4.8659,5.0014,5.1669,5.378,5.6742,5.8313,5.8313,6.0104,6.1109,6.1289,6.146,6.1577,6.1758,6.3515,6.4297,6.4375,6.5945,6.6521,6.6374,6.617,6.603,6.5904,6.5904,6.5904,6.5904,6.5904,6.5904,6.5904,3.3863,3.4123,3.4359,3.4359,3.4359,3.4359,3.4359,3.4934,3.5678,3.649,3.8497,4.002,4.054,4.188,4.2929,4.3281,4.3315,4.3315,4.3315,4.3673,4.391,4.391,4.391,4.3538,4.2692,4.0798,3.9073,3.7584,3.5757,3.4709,3.4359,3.4472,3.4675,3.5002,3.5408,3.6571,3.834,4.0184,4.2323,4.4665,4.6506,4.656,0.0,4.6827,4.6953,4.6706,4.7889,4.8296,4.8296,4.8296,4.8296,4.8296,4.8296,4.8296,4.8296,4.8296,4.8296,4.8296,4.8296,4.8296,4.8229,4.7868,4.7173,4.6382,4.5764,4.495,4.4374,4.4374,4.379,4.3135,4.2474,4.1434,4.0122,3.8513,3.8496,3.8681,3.8681,3.8681,3.8681,3.8681,3.8818,3.8862,3.8704,4.0751,4.2313,4.2849,4.4437,4.6518,4.9082,4.9433,5.0664,5.3121,5.578,5.6834,5.6175,5.9486,6.0842,6.0243,6.1165,6.1633,6.1758,6.3515,6.4297,6.4375,6.5871,6.6468,6.6368,6.6133,6.599,6.5904,6.5904,6.5904,6.5904,6.5904,6.5904,6.5904,3.4641,3.5171,3.5667,3.587,3.5735,3.5802,3.6377,3.7302,3.7978,3.8159,4.0595,4.2049,4.1407,4.2679,4.3842,4.4533,4.4615,4.4615,4.4615,4.4615,4.4615,4.4615,4.4615,4.4615,4.4615,4.3078,4.1589,4.0113,3.7968,3.6468,3.56,3.4945,3.4979,3.56,3.56,3.6044,3.7088,4.1033,4.2871,4.3292,4.537,4.6214,4.6214,4.6214,4.7095,4.8296,4.8296,4.8296,4.8296,4.8296,4.8296,4.8296,4.8296,4.8296,4.8296,4.8296,4.8296,4.8296,4.8296,4.8296,4.8296,4.8296,4.8296,4.8143,4.7653,4.7502,4.7502,4.7502,4.6406,4.5523,4.5837,4.3269,4.0618,3.9232,3.8828,3.8704,3.8757,3.8964,3.9001,3.8765,3.8965,0.0,3.888,4.0765,4.2502,4.3596,4.4543,4.6548,4.9851,4.8817,4.9466,5.2428,5.4587,5.5041,5.3703,5.8749,6.0607,5.9219,6.0891,6.1719,6.1758,6.3515,6.4297,6.4375,6.581,6.6387,6.6361,6.6047,6.5904,6.5904,6.5904,6.5904,6.5904,6.5904,6.5904,6.5904,3.5408,3.5509,3.6005,3.7268,3.6456,3.6862,4.0561,3.9309,3.8328,3.9559,4.1217,4.2266,4.213,4.3484,4.4432,4.4581,4.4615,4.4615,4.4615,4.4615,4.4615,4.4615,4.4615,4.4615,4.4615,4.3078,4.1589,4.0113,3.8497,3.6963,3.56,3.5464,3.5475,3.56,3.56,3.6874,3.9181,4.1737,4.3759,4.5489,4.7204,4.7902,4.7902,4.7902,4.8039,4.8296,4.8296,4.8296,4.8296,4.8296,4.8296,4.8296,4.8296,4.8296,4.8296,4.8296,4.8296,4.8296,4.8296,4.8296,4.8296,4.8296,4.8296,4.8277,4.819,4.8134,4.8134,4.8134,4.7914,4.7357,4.6122,4.3269,4.1022,4.0736,3.9562,3.8766,3.898,4.0268,4.0647,3.9184,4.0474,4.1033,3.9795,4.0911,4.1896,4.2368,4.4085,4.551,4.6428,4.7509,4.8351,4.8966,5.3356,5.5576,5.5314,5.9307,6.1142,6.0897,6.1425,6.1719,6.1758,6.3515,6.4297,6.4375,6.581,6.6387,6.6361,6.6047,6.5904,6.5904,6.5904,6.5904,6.5904,6.5904,6.5904,6.5904,3.56,3.56,3.5836,3.6591,3.6761,3.7775,4.0709,4.0608,4.073,4.2245,4.3044,4.3484,4.3484,4.4161,4.4615,4.4615,4.4615,4.4615,4.4615,4.4615,4.4615,4.4615,4.4615,4.4615,4.4615,4.3856,4.2367,4.0113,3.9377,3.7865,3.56,3.56,3.56,3.5656,3.676,3.7986,3.9416,4.2677,4.4636,4.5694,4.756,4.8296,4.8296,4.8296,4.8296,4.8296,4.8296,4.8296,4.8296,4.8296,4.8296,4.8296,4.8296,4.8296,4.8296,4.8296,4.8296,4.8296,4.8296,4.8296,4.8296,4.8296,4.8296,4.8296,4.8296,4.8296,4.8296,4.8296,4.8296,4.7819,4.6214,4.4635,4.3391,4.2768,4.1266,4.0324,4.0608,4.1392,4.1743,4.1361,4.2184,4.2655,4.2396,4.2274,4.2363,4.2687,4.4197,4.5625,4.6846,4.6855,4.7625,4.9394,5.2736,5.4126,5.3325,5.869,6.0561,5.8889,6.0775,6.1719,6.1758,6.3515,6.4297,6.4375,6.581,6.6387,6.6361,6.6047,6.5904,6.5904,6.5904,6.5904,6.5904,6.5904,6.5904,6.5904,3.6479,3.6309,3.6186,3.6512,3.7302,3.8497,4.0303,4.1555,4.2841,4.4398,4.4615,4.4615,4.4615,4.4615,4.4615,4.4615,4.4615,4.4615,4.4615,4.4615,4.4615,4.4615,4.4615,4.4615,4.4615,4.4615,4.3295,4.0574,4.0257,3.8654,3.5847,3.5667,3.5825,3.6343,3.8038,3.9296,4.0377,4.3775,4.5457,4.6012,4.7621,4.8296,4.8296,4.8296,4.8296,4.8296,4.8296,4.8296,4.8296,4.8296,4.8296,4.8296,4.8296,4.8296,4.8296,4.8296,4.8296,4.8296,4.8296,4.8296,4.8296,4.8296,4.8296,4.8296,4.8296,4.8296,4.8296,4.8296,4.8296,4.7902,4.6654,4.614,4.5466,4.4193,4.2649,4.1584,4.1562,4.2183,4.2862,4.3444,4.3668,4.4108,4.489,4.3659,4.3065,4.3642,4.451,4.5911,4.7991,4.6513,4.7014,5.0053,5.193,5.2453,5.1597,5.7825,5.981,5.7653,6.039,6.1719,6.1758,6.3515,6.4296,6.4331,6.5799,6.6344,6.6283,6.5991,6.5904,6.5904,6.5904,6.5904,6.5904,6.5904,6.5904,6.5904,3.9432,3.8587,3.8113,3.9454,3.8688,3.887,4.1657,4.2198,4.2841,4.4398,4.4615,4.4615,4.4615,4.4615,4.4615,4.4615,4.4615,4.4615,4.4615,4.4615,4.4615,4.4615,4.4615,4.4615,4.4615,4.4615,4.3789,4.2097,4.0743,3.8928,3.6682,3.5949,3.6648,3.8502,3.8695,4.0958,4.4626,4.5042,4.6289,4.8028,4.8213,4.8296,4.8296,4.8296,4.8296,4.8296,4.8296,4.8296,4.8296,4.8296,4.8296,4.8296,4.8296,4.8296,4.8296,4.8296,4.8296,4.8296,4.8296,4.8296,4.8296,4.8296,4.8296,4.8296,4.8296,4.8296,4.8296,4.8296,4.8296,4.826,4.8113,4.6874,4.5387,4.3823,4.2474,4.1203,3.9992,4.246,4.4247,4.3874,4.459,4.5311,4.5759,4.3997,4.3393,4.4809,4.4731,4.5659,4.7981,4.6513,4.6436,4.8279,5.017,5.1802,5.3159,5.7167,5.9787,6.1045,6.1479,6.1719,6.1758,6.3515,6.4212,6.42,6.5756,6.6222,6.5952,6.5929,6.5904,6.5904,6.5904,6.5904,6.5904,6.5904,6.5904,6.5904,3.9817,3.9626,3.9423,3.9986,4.0324,4.0933,4.213,4.3078,4.389,4.4513,4.4615,4.4615,4.4615,4.4615,4.4615,4.4615,4.4615,4.4615,4.4615,4.4615,4.4615,4.4615,4.4615,4.4615,4.4615,4.4615,4.3822,4.23,4.0832,3.9648,3.8768,3.7934,3.8673,4.0789,4.2067,4.3591,4.5273,4.6521,4.7529,4.8296,4.8296,4.8296,4.8296,4.8296,4.8296,4.8296,4.8296,4.8296,4.8296,4.8296,4.8296,4.8296,4.8296,4.8296,4.8296,4.8296,4.8296,4.8296,4.8296,4.8296,4.8296,4.8296,4.8296,4.8296,4.8296,4.8296,4.8296,4.8296,4.8296,4.8296,4.8296,4.7792,4.6938,4.5772,4.5162,4.41,4.2013,4.5031,4.6832,4.5103,4.6609,4.8014,4.8717,4.6001,4.4946,4.6756,4.5649,4.5393,4.6534,4.6932,4.7894,4.963,5.1538,5.3354,5.5067,5.7753,5.9443,6.0146,6.1171,6.1719,6.1758,6.3515,6.4743,6.5491,6.5991,6.6099,6.5904,6.5904,6.5904,6.5904,6.5904,6.5904,6.5904,6.5904,6.5904,6.5904,4.1128,4.106,4.0756,4.0756,4.1623,4.23,4.23,4.3619,4.4615,4.4615,4.4615,4.4615,4.4615,4.4615,4.4615,4.4615,4.4615,4.4615,4.4615,4.4615,4.4615,4.4615,4.4615,4.4615,4.4615,4.4615,4.4059,4.2976,4.1695,4.0945,4.0719,3.982,4.069,4.3008,4.4524,4.555,4.6207,4.7668,4.8296,4.8296,4.8296,4.8296,4.8296,4.8296,4.8296,4.8296,4.8296,4.8296,4.8296,4.8296,4.8296,4.8296,4.8296,4.8296,4.8296,4.8296,4.8296,4.8296,4.8296,4.8296,4.8296,4.8296,4.8296,4.8296,4.8296,4.8296,4.8296,4.8296,4.8296,4.8296,4.8296,4.8296,4.7969,4.7005,4.7127,4.6423,4.3694,4.694,4.8667,4.61,4.7646,4.934,5.0432,4.7586,4.6375,4.7981,4.6771,4.6094,4.6312,4.7037,4.8223,4.9958,5.1405,5.3219,5.5479,5.7445,5.8945,5.9961,6.1133,6.1719,6.1758,6.3387,6.4961,6.6374,6.6142,6.5991,6.5904,6.5904,6.5904,6.5904,6.5904,6.5904,6.5904,6.5904,6.5904,6.5904,4.4228,4.3315,4.2266,4.2266,4.23,4.23,4.23,4.3619,4.4615,4.4615,4.4615,4.4615,4.4615,4.4615,4.4615,4.4615,4.4615,4.4615,4.4615,4.4615,4.4615,4.4615,4.4615,4.4615,4.4615,4.4615,4.4581,4.4581,4.37,4.2874,4.217,4.1301,4.2398,4.518,4.519,4.6336,4.825,4.8296,4.8296,4.8296,4.8296,4.8296,4.8296,4.8296,4.8296,4.8296,4.8296,4.8296,4.8296,4.8296,4.8296,4.8296,4.8296,4.8296,4.8296,4.8296,4.8296,4.8296,4.8296,4.8296,4.8296,4.8296,4.8296,4.8296,4.8296,4.8296,4.8296,4.8296,4.8296,4.8296,4.8296,4.8296,4.7914,4.6698,4.744,4.7166,4.4315,4.747,4.917,4.6581,4.7184,4.8408,4.9947,4.827,4.7345,4.8049,4.8082,4.8082,4.8082,4.6638,4.6583,4.8273,4.8616,5.0389,5.379,5.5699,5.832,6.168,6.168,6.1719,6.1758,6.3157,6.4743,6.6368,6.6063,6.5904,6.5904,6.5904,6.5904,6.5904,6.5904,6.5904,6.5904,6.5904,6.5904,6.5904,4.4296,4.4195,4.3856,4.3856,4.3856,4.3856,4.3856,4.4262,4.4615,4.4615,4.4615,4.4615,4.4615,4.4615,4.4615,4.4615,4.4615,4.4615,4.4615,4.4615,4.4615,4.4615,4.4615,4.4615,4.4615,4.4615,4.4615,4.4615,4.3748,4.3629,4.4249,4.4991,4.6029,4.7307,4.7307,4.7668,4.8296,4.8296,4.8296,4.8296,4.8296,4.8296,4.8296,4.8296,4.8296,4.8296,4.8296,4.8296,4.8296,4.8296,4.8296,4.8296,4.8296,4.8296,4.8296,4.8296,4.8296,4.8296,4.8296,4.8296,4.8296,4.8296,4.8296,4.8296,4.8296,4.8296,4.8296,4.8296,4.8296,4.8296,4.8296,4.8513,4.8475,4.7778,4.916,4.9465,4.7097,4.9391,5.0614,4.8662,4.9204,5.0432,5.2067,5.0593,4.9651,4.9846,4.9861,4.9405,4.8303,4.8903,5.0074,5.1853,5.3256,5.5028,5.7257,5.8002,5.9492,6.1719,6.1719,6.2305,6.3476,6.37,6.474,6.6368,6.6058,6.5904,6.5904,6.5904,6.5904,6.5904,6.5904,6.5904,6.5904,6.5904,6.5904,6.5904,4.4412,4.4615,4.4615,4.4615,4.4615,4.4615,4.4615,4.4615,4.4615,4.4615,4.4615,4.4615,4.4615,4.4615,4.4615,4.4615,4.4615,4.4615,4.4615,4.4615,4.4615,4.4615,4.4615,4.4615,4.4615,4.4615,4.4615,4.4615,4.4495,4.511,4.6382,4.7304,4.7955,4.8296,4.8296,4.8296,4.8296,4.8296,4.8296,4.8296,4.8296,4.8296,4.8296,4.8296,4.8296,4.8296,4.8296,4.8296,4.8296,4.8296,4.8296,4.8296,4.8296,4.8296,4.8296,4.8296,4.8296,4.8296,4.8296,4.8296,4.8296,4.8296,4.8296,4.8296,4.8296,4.8296,4.8296,4.8296,4.8296,4.8296,4.8296,4.8908,4.9334,4.9212,5.0935,5.1644,4.9774,5.1736,5.2436,4.9962,5.0724,5.188,5.2916,5.2072,5.1495,5.162,5.1053,5.0558,5.0217,5.0704,5.1508,5.269,5.4523,5.6306,5.8026,5.8826,6.0039,6.1719,6.1719,6.2617,6.4297,6.3936,6.474,6.6368,6.6058,6.5904,6.5904,6.5904,6.5904,6.5904,6.5904,6.5904,6.5904,6.5904,6.5904,6.5904,4.4615,4.4615,4.4615,4.4615,4.4615,4.4615,4.4615,4.4615,4.4615,4.4682,4.4668,4.4702,4.4736,4.4736,4.4736,4.4736,4.4716,4.4649,4.4615,4.4649,4.4649,4.4615,4.4615,4.4615,4.4615,4.4615,4.4623,4.472,4.584,4.7066,4.8296,4.8296,4.8296,4.8296,4.8296,4.8296,4.8296,4.8296,4.8296,4.8296,4.8296,4.8296,4.8296,4.8296,4.8296,4.8296,4.8296,4.8296,4.8296,4.8296,4.8296,4.8296,4.8296,4.8296,4.8296,4.8296,4.8296,4.8296,4.8296,4.8296,4.8296,4.8296,4.8296,4.8296,4.8296,4.8296,4.8296,4.8296,4.8343,4.837,4.837,4.9472,5.0476,5.0907,5.2641,5.3471,5.2162,5.4049,5.4238,5.0721,5.1767,5.2772,5.2893,5.2931,5.2995,5.3182,5.1861,5.1672,5.3143,5.2093,5.149,5.163,5.3391,5.5117,5.6757,5.8515,6.0156,6.1719,6.1719,6.2617,6.4297,6.3936,6.474,6.6368,6.6058,6.5904,6.5904,6.5904,6.5904,6.5904,6.5904,6.5904,6.5904,6.5904,6.5904,6.5904,4.4615,4.4615,4.4615,4.4615,4.4615,4.4615,4.4615,4.4615,4.4804,4.5365,4.5432,4.5635,4.6225,4.6293,4.6293,4.6293,4.5771,4.5196,4.4649,4.5128,4.521,4.4601,4.4615,4.4615,4.4615,4.4615,4.5035,4.5977,4.6246,4.7066,4.8296,4.8296,4.8296,4.8296,4.8296,4.8296,4.8296,4.8296,4.8296,4.8296,4.8296,4.8296,4.8296,4.8296,4.8296,4.8296,4.8296,4.8296,4.8296,4.8296,4.8296,4.8296,4.8296,4.8296,4.8296,4.8296,4.8296,4.8296,4.8296,4.8296,4.8296,4.8296,4.8296,4.8296,4.8296,4.8296,4.8296,4.8296,4.882,4.9307,4.9307,5.0554,5.1826,5.2522,5.3595,5.4013,5.3038,5.339,5.3451,5.2581,5.2844,5.358,5.4853,5.5006,5.449,5.3274,5.401,5.3634,5.1597,5.3571,5.4835,5.503,5.6809,5.7938,5.8367,6.0192,6.1328,6.1719,6.1719,6.2617,6.4297,6.3936,6.474,6.6368,6.6058,6.5904,6.5904,6.5904,6.5904,6.5904,6.5904,6.5904,6.5904,6.5904,6.5904,6.5904,4.4615,4.4615,4.4615,4.4615,4.4871,4.5108,4.5108,4.5379,4.5751,4.6143,4.621,4.6346,4.6752,4.68,4.68,4.68,4.6413,4.6041,4.5616,4.5974,4.6007,4.5616,4.5616,4.5447,4.5108,4.5108,4.5539,4.6389,4.6716,4.7327,4.8296,4.8296,4.8296,4.8296,4.8296,4.8296,4.8296,4.8296,4.8296,4.8296,4.8296,4.8296,4.8296,4.8296,4.8296,4.8296,4.8296,4.8296,4.8296,4.8296,4.8296,4.8296,4.8296,4.8296,4.8296,4.8296,4.8296,4.8296,4.8296,4.8296,4.8296,4.8296,4.8296,4.8296,4.8296,4.8296,4.8416,4.882,4.927,4.9762,5.0333,5.1607,5.2749,5.3395,5.3751,5.3741,5.3274,5.3197,5.3197,5.3197,5.3895,5.4703,5.5593,5.5708,5.5318,5.4395,5.4472,5.4115,5.3142,5.4108,5.4762,5.4988,5.7524,5.8892,5.8892,6.0775,6.1719,6.1719,6.1719,6.2383,6.3711,6.3778,6.4545,6.582,6.5859,6.5904,6.5904,6.5904,6.5904,6.5904,6.5904,6.5904,6.5904,6.5904,6.5904,6.5904,4.477,4.4852,4.4939,4.4939,4.5432,4.5872,4.5872,4.638,4.6819,4.6955,4.6955,4.6989,4.7124,4.7124,4.7124,4.7124,4.7124,4.7037,4.6819,4.6887,4.6936,4.68,4.68,4.6515,4.5872,4.5852,4.6012,4.6389,4.7066,4.7715,4.8296,4.8296,4.8296,4.8296,4.8296,4.8296,4.8296,4.8296,4.8296,4.8296,4.8296,4.8296,4.8296,4.8296,4.8296,4.8296,4.8296,4.8296,4.8296,4.8296,4.8296,4.8296,4.8296,4.8296,4.8296,4.8296,4.8296,4.8296,4.8296,4.8296,4.8296,4.8296,4.8296,4.8296,4.8296,4.8296,4.8563,4.9427,4.9721,5.0144,5.1349,5.2598,5.3445,5.3604,5.3374,5.3072,5.2766,5.2985,5.3197,5.3197,5.4664,5.5708,5.5708,5.5708,5.5708,5.5708,5.4395,5.4087,5.5241,5.4203,5.3562,5.3524,5.7028,5.9005,5.9336,6.0894,6.1719,6.1719,6.1719,6.2148,6.3008,6.3544,6.427,6.5113,6.5661,6.5904,6.5904,6.5904,6.5904,6.5904,6.5904,6.5904,6.5904,6.5904,6.5904,6.5904,4.5534,4.6041,4.6462,4.6462,4.6549,4.6616,4.6616,4.6733,4.7022,4.765,4.7718,4.7954,4.8578,4.8646,4.8646,4.8646,4.8646,4.8139,4.6887,4.7394,4.7462,4.6834,4.68,4.6766,4.6616,4.6515,4.643,4.6389,4.7066,4.7715,4.8296,4.8296,4.8296,4.8296,4.8296,4.8296,4.8296,4.8296,4.8296,4.8296,4.8296,4.8296,4.8296,4.8296,4.8296,4.8296,4.8296,4.8296,4.8296,4.8296,4.8296,4.8296,4.8296,4.8296,4.8296,4.8296,4.8296,4.8296,4.8296,4.8296,4.8296,4.8296,4.8296,4.8296,4.8296,4.8296,4.8563,4.9427,5.0151,5.0971,5.2205,5.3453,5.3882,5.2506,5.2779,5.2592,5.0832,5.2105,5.3197,5.3197,5.4664,5.5708,5.5708,5.5708,5.5708,5.5708,5.5478,5.4818,5.3664,5.4664,5.4667,5.3326,5.6835,5.9563,6.1249,6.1562,6.1719,6.1719,6.1719,6.2148,6.3008,6.3544,6.427,6.5113,6.5661,6.5904,6.5904,6.5904,6.5904,6.5904,6.5904,6.5904,6.5904,6.5904,6.5904,6.5904,4.6278,4.6563,4.68,4.68,4.7124,4.738,4.738,4.7733,4.8105,4.8443,4.8496,4.8597,4.8951,4.9018,4.9018,4.9018,4.9018,4.8714,4.8037,4.8308,4.8326,4.8003,4.797,4.78,4.7394,4.7642,4.7555,4.7049,4.8067,4.8484,4.8296,4.8296,4.8296,4.8296,4.8296,4.8296,4.8296,4.8296,4.8296,4.8296,4.8296,4.8296,4.8296,4.8296,4.8296,4.8296,4.8296,4.8296,4.8296,4.8296,4.8296,4.8296,4.8296,4.8296,4.8296,4.8296,4.8296,4.8296,4.8296,4.8296,4.8296,4.8296,4.8296,4.8296,4.8296,4.8673,4.9233,5.0068,5.0875,5.1871,5.3354,5.4091,5.4103,5.2857,5.296,5.2546,5.0702,5.2015,5.3197,5.3197,5.4664,5.5708,5.5708,5.5708,5.5708,5.5708,5.5708,5.5357,5.4587,5.528,5.5386,5.4678,5.7295,5.9673,6.168,6.1719,6.1719,6.1719,6.1719,6.1914,6.2343,6.3349,6.4033,6.4445,6.5462,6.5904,6.5904,6.5904,6.5904,6.5904,6.5904,6.5904,6.5904,6.5904,6.5904,6.5904,4.7056,4.7192,4.7293,4.7293,4.78,4.8157,4.8157,4.8646,4.9018,4.9018,4.9138,4.9184,4.9034,4.9153,4.9184,4.9,4.9018,4.9018,4.9018,4.9018,4.9018,4.9018,4.9018,4.8723,4.8137,4.8754,4.8753,4.8105,4.9122,4.927,4.86,4.837,4.8296,4.8296,4.8296,4.8296,4.8296,4.8296,4.8296,4.8296,4.8296,4.8296,4.8296,4.8296,4.8296,4.8296,4.8296,4.8296,4.8296,4.8296,4.8296,4.8296,4.8296,4.8296,4.8296,4.8296,4.8296,4.8296,4.8296,4.8296,4.8296,4.8296,4.8296,4.8296,4.8296,4.8967,4.9821,5.0618,5.1426,5.2503,5.4179,5.4484,5.4185,5.3261,5.3166,5.2721,5.1362,5.2321,5.3351,5.3741,5.4934,5.5708,5.5708,5.5708,5.5708,5.5708,5.5708,5.5708,5.5708,5.5708,5.5977,5.6536,5.797,5.9693,6.168,6.1719,6.1719,6.1719,6.1719,6.1719,6.1758,6.3152,6.38,6.3897,6.5308,6.5904,6.5904,6.5904,6.5904,6.5904,6.5904,6.5904,6.5904,6.5904,6.5904,6.5904,4.7819,4.836,4.8849,4.8849,4.8883,4.8917,4.8917,4.8984,4.9018,4.9018,4.9551,4.9693,4.9061,4.9566,4.9678,4.9046,4.9018,4.9018,4.9018,4.9018,4.9018,4.9018,4.9018,4.8961,4.884,4.9482,4.9778,4.9636,4.9622,4.9574,4.949,4.8673,4.8296,4.8296,4.8296,4.8296,4.8296,4.8296,4.8296,4.8296,4.8296,4.8296,4.8296,4.8296,4.8296,4.8296,4.8296,4.8296,4.8296,4.8296,4.8296,4.8296,4.8296,4.8296,4.8296,4.8296,4.8296,4.8296,4.8296,4.8296,4.8296,4.8296,4.8296,4.8296,4.8296,4.8967,4.9821,5.0618,5.1426,5.2503,5.4179,5.4484,5.4118,5.294,5.3015,5.3047,5.2618,5.2944,5.378,5.5318,5.5631,5.5708,5.5708,5.5708,5.5708,5.5708,5.5708,5.5708,5.5708,5.5708,5.6573,5.8443,5.8761,5.9777,6.168,6.1719,6.1719,6.1719,6.1719,6.1719,6.1758,6.3152,6.38,6.3897,6.5308,6.5904,6.5904,6.5904,6.5904,6.5904,6.5904,6.5904,6.5904,6.5904,6.5904,6.5904,4.8563,4.88,4.9018,4.9018,4.9018,4.9018,4.9018,4.9018,4.9018,4.9018,4.9561,4.9751,4.9061,4.959,4.9737,4.9046,4.9018,4.9018,4.9018,4.9018,4.9018,4.9018,4.9018,4.918,4.9554,5.0294,5.0587,5.0464,5.0389,5.0078,4.9574,4.871,4.8296,4.8296,4.8296,4.8296,4.8296,4.8296,4.8296,4.8296,4.8296,4.8296,4.8296,4.8296,4.8296,4.8296,4.8296,4.8296,4.8296,4.8296,4.8296,4.8296,4.8296,4.8296,4.8296,4.8296,4.8296,4.8296,4.8296,4.8296,4.8296,4.8296,4.8296,4.8296,4.8296,4.937,5.0498,5.1055,5.2223,5.3488,5.464,5.4862,5.4455,5.32,5.3991,5.4325,5.3152,5.3991,5.4972,5.5631,5.5708,5.5708,5.5708,5.5708,5.5708,5.5708,5.5708,5.5708,5.5708,5.5708,5.6621,5.8654,5.8749,5.9704,6.168,6.1719,6.1719,6.1719,6.1719,6.1719,6.1758,6.3152,6.38,6.3897,6.5308,6.5904,6.5904,6.5904,6.5904,6.5904,6.5904,6.5904,6.5904,6.5904,6.5904,6.5904,4.9018,4.9018,4.9018,4.9018,4.9184,4.9316,4.9316,4.9506,4.9669,4.9669,5.0223,5.039,4.9722,5.0272,5.0279,4.9372,4.9316,4.9211,4.9,4.9018,4.9018,4.9018,4.918,4.962,5.0321,5.1047,5.1478,5.164,5.1313,5.0775,4.9968,4.9114,4.8563,4.8296,4.8296,4.8296,4.8296,4.8296,4.8296,4.8296,4.8296,4.8296,4.8296,4.8296,4.8296,4.8296,4.8296,4.8296,4.8296,4.8296,4.8296,4.8296,4.8296,4.8296,4.8296,4.8296,4.8296,4.8296,4.8296,4.8296,4.8296,4.8296,4.8296,4.8296,4.8296,4.9681,5.1054,5.133,5.2812,5.4255,5.496,5.5107,5.4881,5.4117,5.4934,5.528,5.4164,5.4972,5.5708,5.5708,5.5708,5.5708,5.5708,5.5708,5.5708,5.5708,5.5708,5.5708,5.5708,5.5748,5.6657,5.8654,5.8742,5.97,6.168,6.1719,6.1719,6.1719,6.1719,6.1719,6.1758,6.3152,6.38,6.3897,6.5308,6.5904,6.5904,6.5904,6.5904,6.5904,6.5904,6.5904,6.5904,6.5904,6.5904,6.5904,4.9018,4.8984,4.9018,4.9018,4.958,5.0019,5.0019,5.0622,5.1099,5.1099,5.168,5.1826,5.1176,5.1692,5.1544,5.0146,5.0004,4.9722,4.9046,4.9018,4.9018,4.9034,4.9649,5.0335,5.1086,5.1753,5.2438,5.3214,5.238,5.1583,5.0765,4.9968,4.9123,4.8296,4.8296,4.8296,4.8296,4.8296,4.8296,4.8296,4.8296,4.8296,4.8296,4.8296,4.8296,4.8296,4.8296,4.8296,4.8296,4.8296,4.8296,4.8296,4.8296,4.8306,4.8306,4.8296,4.8306,4.8306,4.8306,4.8306,4.8306,4.8306,4.8306,4.8306,4.8306,4.9908,5.1409,5.1418,5.304,5.4617,5.5047,5.5114,5.5231,5.5621,5.5708,5.5708,5.5708,5.5708,5.5708,5.5708,5.5708,5.5708,5.5708,5.5708,5.5708,5.5708,5.5708,5.5708,5.5708,5.5834,5.6763,5.866,5.8811,5.978,6.168,6.1719,6.1719,6.1719,6.1719,6.1719,6.1758,6.3152,6.38,6.3897,6.5308,6.5904,6.5904,6.5904,6.5904,6.5904,6.5904,6.5904,6.5904,6.5904,6.5904,6.5904,4.9018,4.9391,4.9693,4.9693,5.0314,5.077,5.077,5.0955,5.1099,5.1099,5.168,5.1826,5.1176,5.1692,5.1729,5.085,5.0279,4.9904,4.9707,4.9693,4.9919,5.0466,5.0174,5.0568,5.1765,5.2006,5.2438,5.3214,5.238,5.1583,5.0765,4.9968,4.9123,4.8296,4.8296,4.8296,4.8296,4.8296,4.8296,4.8296,4.8296,4.8296,4.8296,4.8296,4.8296,4.8296,4.8296,4.8296,4.8296,4.8296,4.8296,4.8296,4.8296,4.8467,4.8684,4.8364,4.8711,4.9067,4.8796,4.894,4.9059,4.8787,4.8709,4.8796,4.9067,5.0517,5.1909,5.217,5.367,5.5022,5.5441,5.5537,5.5566,5.5692,5.5708,5.5708,5.5708,5.5708,5.5708,5.5708,5.5708,5.5708,5.5708,5.5708,5.5708,5.5708,5.5708,5.5708,5.5708,5.5834,5.6763,5.866,5.8811,5.978,6.168,6.1719,6.1719,6.1719,6.1719,6.1719,6.1758,6.3152,6.38,6.3897,6.5308,6.5904,6.5904,6.5904,6.5904,6.5904,6.5904,6.5904,6.5904,6.5904,6.5904,6.5904,4.9361,4.9722,5.0104,5.0376,5.1034,5.1494,5.1494,5.1752,5.191,5.191,5.2277,5.237,5.1958,5.2289,5.2266,5.1556,5.0581,5.0004,5.0004,5.0004,5.0445,5.1456,5.1086,5.1241,5.2089,5.2381,5.2758,5.3214,5.2711,5.205,5.1242,5.0445,4.9637,4.8783,4.8443,4.8296,4.8296,4.8296,4.8296,4.8296,4.8296,4.8296,4.8296,4.8296,4.8296,4.8296,4.8296,4.8296,4.8296,4.8296,4.8402,4.8559,4.8709,4.8957,4.9083,4.8847,4.9108,4.9445,4.9202,4.9318,4.9475,4.9401,4.9257,4.9202,4.9445,5.0646,5.1889,5.2463,5.3823,5.5028,5.5599,5.5708,5.5708,5.5708,5.5708,5.5708,5.5708,5.5708,5.5708,5.5708,5.5708,5.5708,5.5708,5.5708,5.5708,5.5708,5.5708,5.5708,5.5708,5.5834,5.6763,5.866,5.8811,5.978,6.168,6.1719,6.1719,6.1719,6.1719,6.1678,6.1668,6.3132,6.3764,6.379,6.5258,6.5904,6.5904,6.5904,6.5904,6.5904,6.5904,6.5904,6.5904,6.5904,6.5904,6.5904,4.9861,5.0061,5.0321,5.106,5.1741,5.2194,5.2194,5.2769,5.3214,5.3214,5.3214,5.3214,5.3214,5.3214,5.2926,5.2277,5.0981,5.0202,5.0202,5.0202,5.081,5.2136,5.2194,5.2194,5.2194,5.2872,5.3214,5.3214,5.3214,5.2784,5.1987,5.1169,5.0362,4.9574,4.8673,4.8296,4.8296,4.8296,4.8296,4.8296,4.8296,4.8296,4.8296,4.8296,4.8296,4.8296,4.8296,4.8296,4.8306,4.8354,4.8631,4.9011,4.9386,4.9518,4.954,4.9504,4.9547,4.9589,4.9554,4.9568,4.968,5.0043,4.9885,4.9596,4.9596,5.0512,5.1584,5.2474,5.365,5.4741,5.5555,5.5708,5.5708,5.5708,5.5708,5.5708,5.5708,5.5708,5.5708,5.5708,5.5708,5.5708,5.5708,5.5708,5.5708,5.5708,5.5708,5.5708,5.5708,5.5857,5.6781,5.866,5.8859,5.9824,6.168,6.1719,6.1719,6.1719,6.1719,6.1633,6.154,6.3016,6.3665,6.3675,6.5145,6.582,6.5904,6.5904,6.5904,6.5904,6.5904,6.5904,6.5904,6.5904,6.5904,6.5904,4.9861,5.0459,5.1086,5.1753,5.2486,5.2959,5.2959,5.3092,5.3214,5.3214,5.3214,5.3214,5.3214,5.3214,5.3124,5.297,5.2136,5.1643,5.1643,5.1643,5.2042,5.2926,5.2959,5.2959,5.2959,5.3114,5.3214,5.3214,5.3214,5.2784,5.1987,5.1169,5.0362,4.9574,4.8673,4.8296,4.8296,4.8296,4.8296,4.8296,4.8296,4.8296,4.8296,4.8296,4.8296,4.8296,4.8296,4.8296,4.8363,4.8639,4.9027,4.9386,4.9467,4.9738,4.9911,4.9582,4.9949,5.0364,5.0075,5.0195,5.0467,5.0568,5.0499,5.0451,5.0451,5.1146,5.2033,5.2883,5.3815,5.4741,5.5555,5.5708,5.5708,5.5708,5.5708,5.5708,5.5708,5.5708,5.5708,5.5708,5.5708,5.5708,5.5708,5.5708,5.5708,5.5708,5.5708,5.5708,5.5708,5.5967,5.6906,5.8662,5.8987,5.996,6.168,6.1719,6.1719,6.1719,6.1719,6.1633,6.154,6.2398,6.3083,6.3637,6.4529,6.5282,6.5904,6.5904,6.5904,6.5904,6.5904,6.5904,6.5904,6.5904,6.5904,6.5904,5.0307,5.0836,5.1419,5.2463,5.2937,5.3214,5.3214,5.3214,5.3214,5.3214,5.3214,5.3214,5.3214,5.3214,5.3071,5.2714,5.2335,5.2101,5.2101,5.2101,5.2415,5.3156,5.3214,5.3214,5.3214,5.3214,5.3214,5.3214,5.3214,5.2994,5.2564,5.1756,5.0949,5.0151,4.9307,4.8673,4.8296,4.8296,4.8296,4.8296,4.8296,4.8296,4.8296,4.8296,4.8296,4.8296,4.8296,4.8421,4.8693,4.928,4.961,4.9832,4.9999,5.0206,5.0341,5.0141,5.0364,5.0639,5.0456,5.0525,5.0707,5.0707,5.0707,5.0707,5.0707,5.1015,5.1664,5.2928,5.3549,5.4241,5.5478,5.5708,5.5708,5.5708,5.5708,5.5708,5.5708,5.5708,5.5708,5.5708,5.5708,5.5708,5.5708,5.5708,5.5708,5.5708,5.5708,5.5708,5.5708,5.6008,5.6978,5.8662,5.9038,6.0,6.168,6.1719,6.1719,6.1719,6.1719,6.1585,6.1431,6.2174,6.2839,6.3499,6.4271,6.5089,6.5904,6.5904,6.5904,6.5904,6.5904,6.5904,6.5904,6.5904,6.5904,6.5904,5.0995,5.1266,5.1691,5.2959,5.3214,5.3214,5.3214,5.3214,5.3214,5.3214,5.3214,5.3214,5.3214,5.3214,5.2948,5.2347,5.23,5.23,5.23,5.23,5.2565,5.3156,5.3214,5.3214,5.3214,5.3214,5.3214,5.3214,5.3214,5.3214,5.3177,5.238,5.1646,5.0949,5.0004,4.9197,4.8526,4.837,4.8296,4.8296,4.8296,4.8296,4.8296,4.8296,4.8296,4.8306,4.8364,4.8692,4.921,4.9885,5.0153,5.0241,5.0599,5.0707,5.0707,5.0707,5.0707,5.0707,5.0707,5.0707,5.0707,5.0707,5.0707,5.0707,5.0707,5.0707,5.1169,5.2856,5.3197,5.3703,5.5401,5.5708,5.5708,5.5708,5.5708,5.5708,5.5708,5.5708,5.5708,5.5708,5.5708,5.5708,5.5708,5.5708,5.5708,5.5708,5.5708,5.5708,5.5708,5.6008,5.6978,5.8662,5.9038,6.0,6.168,6.1719,6.1719,6.1719,6.1719,6.1573,6.1325,6.1981,6.2663,6.3352,6.4045,6.4974,6.5904,6.5904,6.5904,6.5904,6.5904,6.5904,6.5904,6.5904,6.5904,6.5904,5.1692,5.1946,5.2242,5.3071,5.3214,5.3214,5.3214,5.3214,5.3214,5.3214,5.3214,5.3214,5.3214,5.3214,5.3146,5.3071,5.306,5.306,5.306,5.306,5.3092,5.3214,5.3214,5.3214,5.3214,5.3214,5.3214,5.3214,5.3214,5.3214,5.3177,5.238,5.195,5.1767,5.0271,4.9537,4.938,4.8636,4.8296,4.8296,4.8296,4.8296,4.8296,4.8296,4.8296,4.8363,4.8674,4.9311,4.9955,5.0043,5.0336,5.0624,5.0697,5.0707,5.0707,5.0707,5.0707,5.0707,5.0707,5.0707,5.0707,5.0707,5.0707,5.0707,5.0707,5.0707,5.1169,5.2856,5.3197,5.3703,5.5401,5.5708,5.5708,5.5708,5.5708,5.5708,5.5708,5.5708,5.5708,5.5708,5.5708,5.5708,5.5708,5.5708,5.5708,5.5708,5.5708,5.5708,5.5708,5.6008,5.6978,5.8662,5.9038,6.0,6.168,6.1719,6.1719,6.1719,6.1719,6.1573,6.1286,6.1403,6.2124,6.3314,6.3429,6.4397,6.5904,6.5904,6.5904,6.5904,6.5904,6.5904,6.5904,6.5904,6.5904,6.5904,5.1814,5.2101,5.2335,5.3082,5.3214,5.3214,5.3214,5.3214,5.3214,5.3214,5.3214,5.3214,5.3214,5.3214,5.3214,5.3214,5.3214,5.3214,5.3214,5.3214,5.3214,5.3214,5.3214,5.3214,5.3214,5.3214,5.3214,5.3214,5.3214,5.3214,5.3177,5.2847,5.2417,5.195,5.0775,5.0004,4.9537,4.8673,4.8296,4.8296,4.8296,4.8296,4.8296,4.8296,4.8296,4.8364,4.8994,4.9603,5.0141,5.0353,5.0535,5.0707,5.0707,5.0707,5.0707,5.0707,5.0707,5.0707,5.0707,5.0707,5.0707,5.0707,5.0707,5.0707,5.0707,5.0707,5.1169,5.2856,5.3197,5.3703,5.5401,5.5708,5.5708,5.5708,5.5708,5.5708,5.5708,5.5708,5.5708,5.5708,5.5708,5.5708,5.5708,5.5708,5.5708,5.5708,5.5708,5.5733,5.5802,5.6064,5.7011,5.8757,5.9049,6.0,6.168,6.1719,6.1719,6.1719,6.1719,6.1573,6.1286,6.1286,6.2046,6.3314,6.3314,6.4282,6.5904,6.5904,6.5904,6.5904,6.5904,6.5904,6.5904,6.5904,6.5904,6.5904]}]]